[[{"header":{"parameterUnit":"m.s-1","parameterCategory":1,"la1":31.0,"la2":29.5877,"lo1":-88.7671,"lo2":-86.6584,"dy":0.0162,"dx":0.0185,"nx":115,"ny":88,"refTime":"2026-04-11T12:00:00:Z","depth":0,"parameterNumber":2,"parameterNumberName":"U-component_of_WINDS"},"data":[0.0,0.0,0.0,0.0,0.0,0.0,0.0,0.0,0.0,0.0,0.0,0.0,0.0,0.0,0.0,0.0,0.0,0.0,0.0,0.0,0.0,0.0,0.0,0.0,0.0,0.0,0.0,0.0,0.0,0.0,0.0,0.0,0.0,0.0,0.0,0.0,0.0,0.0,0.0,0.0,0.0,1.3015,1.3563,1.4616,1.4548,1.4403,1.4399,0.0,0.0,0.0,0.0,0.0,0.0,0.0,0.0,0.0,0.0,0.0,0.0,0.0,0.0,0.0,0.0,0.0,0.0,0.0,0.0,0.0,0.0,0.0,0.0,0.0,0.0,0.0,0.0,0.0,0.0,0.0,0.0,0.0,0.0,0.0,0.0,0.0,0.0,0.0,0.0,0.0,0.0,0.0,0.0,0.0,0.0,0.0,0.0,0.0,0.0,0.0,0.0,0.0,0.0,0.0,0.0,0.0,0.0,0.0,0.0,0.0,0.0,0.0,0.0,0.0,0.0,0.0,0.0,0.0,0.0,0.0,0.0,0.0,0.0,0.0,0.0,0.0,0.0,0.0,0.0,0.0,0.0,0.0,0.0,0.0,0.0,0.0,0.0,0.0,0.0,0.0,0.0,0.0,0.0,0.0,0.0,0.0,0.0,0.0,0.0,0.0,0.0,0.0,0.0,0.0,0.0,0.0,0.0,0.0,0.0,1.298,1.4546,1.4024,1.4027,1.4849,0.0,0.0,0.0,0.0,0.0,0.0,0.0,0.0,0.0,0.0,0.0,0.0,0.0,0.0,0.0,0.0,0.0,0.0,0.0,0.0,0.0,0.0,0.0,0.0,0.0,0.0,0.0,0.0,0.0,0.0,0.0,0.0,0.0,0.0,0.0,0.0,0.0,0.0,0.0,0.0,0.0,0.0,0.0,0.0,0.0,0.0,0.0,0.0,0.0,0.0,0.0,0.0,0.0,0.0,0.0,0.0,0.0,0.0,0.0,0.0,0.0,0.0,0.0,0.0,0.0,0.0,0.0,0.0,0.0,0.0,0.0,0.0,0.0,0.0,0.0,0.0,0.0,0.0,0.0,0.0,0.0,0.0,0.0,0.0,0.0,0.0,0.0,0.0,0.0,0.0,0.0,0.0,0.0,0.0,0.0,0.0,0.0,0.0,0.0,0.0,0.0,0.0,0.0,0.0,0.0,0.0,0.0,0.0,0.0,0.0,1.265,1.3746,1.375,1.3781,1.4041,0.0,0.0,0.0,0.0,0.0,0.0,0.0,0.0,0.0,0.0,0.0,0.0,0.0,0.0,0.0,0.0,0.0,0.0,0.0,0.0,0.0,0.0,0.0,0.0,0.0,0.0,0.0,0.0,0.0,0.0,0.0,0.0,0.0,0.0,0.0,0.0,0.0,0.0,0.0,0.0,0.0,0.0,0.0,0.0,0.0,0.0,0.0,0.0,0.0,0.0,0.0,0.0,0.0,0.0,0.0,0.0,0.0,0.0,0.0,0.0,0.0,0.0,0.0,0.0,0.0,0.0,0.0,0.0,0.0,0.0,0.0,0.0,0.0,0.0,0.0,0.0,0.0,0.0,0.0,0.0,0.0,0.0,0.0,0.0,0.0,0.0,0.0,0.0,0.0,0.0,0.0,0.0,0.0,0.0,0.0,0.0,0.0,0.0,0.0,0.0,0.0,0.0,0.0,0.0,0.0,0.0,0.0,0.0,0.0,0.0,1.1738,1.2925,1.3016,1.3198,1.3615,1.4601,0.0,0.0,0.0,0.0,0.0,0.0,0.0,0.0,0.0,0.0,0.0,0.0,0.0,0.0,0.0,0.0,0.0,0.0,0.0,0.0,0.0,0.0,0.0,0.0,0.0,0.0,0.0,0.0,0.0,0.0,0.0,0.0,0.0,0.0,0.0,0.0,0.0,0.0,0.0,0.0,0.0,0.0,0.0,0.0,0.0,0.0,0.0,0.0,0.0,0.0,0.0,0.0,0.0,0.0,0.0,0.0,0.0,0.0,0.0,0.0,0.0,0.0,0.0,0.0,0.0,0.0,0.0,0.0,0.0,0.0,0.0,0.0,0.0,0.0,0.0,0.0,0.0,0.0,0.0,0.0,0.0,0.0,0.0,0.0,0.0,0.0,0.0,0.0,0.0,0.0,0.0,0.0,0.0,0.0,0.0,0.0,0.0,0.0,0.0,0.0,0.0,0.0,0.0,0.0,0.0,0.0,0.0,0.0,0.0,1.0708,1.199,1.2135,1.2549,1.3516,1.4424,0.0,0.0,0.0,0.0,0.0,0.0,0.0,0.0,0.0,0.0,0.0,0.0,0.0,0.0,0.0,0.0,0.0,0.0,0.0,0.0,0.0,0.0,0.0,0.0,0.0,0.0,0.0,0.0,0.0,0.0,0.0,0.0,0.0,0.0,0.0,0.0,0.0,0.0,0.0,0.0,0.0,0.0,0.0,0.0,0.0,0.0,0.0,0.0,0.0,0.0,0.0,0.0,0.0,0.0,0.0,0.0,0.0,0.0,0.0,0.0,0.0,0.0,0.0,0.0,0.0,0.0,0.0,0.0,0.0,0.0,0.0,0.0,0.0,0.0,0.0,0.0,0.0,0.0,0.0,0.0,0.0,0.0,0.0,0.0,0.0,0.0,0.0,0.0,0.0,0.0,0.0,0.0,0.0,0.0,0.0,0.0,0.0,0.0,0.0,0.0,0.0,0.0,0.0,0.0,0.0,0.0,0.0,0.0,0.0,1.0473,1.1422,1.1508,1.2281,1.3756,1.4131,0.0,0.0,0.0,0.0,0.0,0.0,0.0,0.0,0.0,0.0,0.0,0.0,0.0,0.0,0.0,0.0,0.0,0.0,0.0,0.0,0.0,0.0,0.0,0.0,0.0,0.0,0.0,0.0,0.0,0.0,0.0,0.0,0.0,0.0,0.0,0.0,0.0,0.0,0.0,0.0,0.0,0.0,0.0,0.0,0.0,0.0,0.0,0.0,0.0,0.0,0.0,0.0,0.0,0.0,0.0,0.0,0.0,0.0,0.0,0.0,0.0,0.0,0.0,0.0,0.0,0.0,0.0,0.0,0.0,0.0,0.0,0.0,0.0,0.0,0.0,0.0,0.0,0.0,0.0,0.0,0.0,0.0,0.0,0.0,0.0,0.0,0.0,0.0,0.0,0.0,0.0,0.0,0.0,0.0,0.0,0.0,0.0,0.0,0.0,0.0,0.0,0.0,0.0,0.0,0.0,0.0,0.0,0.0,0.0,1.0195,1.0701,1.1108,1.1959,1.3205,1.3788,0.0,0.0,0.0,0.0,0.0,0.0,0.0,0.0,0.0,0.0,0.0,0.0,0.0,0.0,0.0,0.0,0.0,0.0,0.0,0.0,0.0,0.0,0.0,0.0,0.0,0.0,0.0,0.0,0.0,0.0,0.0,0.0,0.0,0.0,0.0,0.0,0.0,0.0,0.0,0.0,0.0,0.0,0.0,0.0,0.0,0.0,0.0,0.0,0.0,0.0,0.0,0.0,0.0,0.0,0.0,0.0,0.0,0.0,0.0,0.0,0.0,0.0,0.0,0.0,0.0,0.0,0.0,0.0,0.0,0.0,0.0,0.0,0.0,0.0,0.0,0.0,0.0,0.0,0.0,0.0,0.0,0.0,0.0,0.0,0.0,0.0,0.0,0.0,0.0,0.0,0.0,0.0,0.0,0.0,0.0,0.0,0.0,0.0,0.0,0.0,0.0,0.0,0.0,0.0,0.0,0.0,0.0,0.0,1.0148,1.0038,1.0145,1.077,1.1511,1.2376,1.3283,0.0,0.0,0.0,0.0,0.0,0.0,0.0,0.0,0.0,0.0,0.0,0.0,0.0,0.0,0.0,0.0,0.0,0.0,0.0,0.0,0.0,0.0,0.0,0.0,0.0,0.0,0.0,0.0,0.0,0.0,0.0,0.0,0.0,0.0,0.0,0.0,0.0,0.0,0.0,0.0,0.0,0.0,0.0,0.0,0.0,0.0,0.0,0.0,0.0,0.0,0.0,0.0,0.0,0.0,0.0,0.0,0.0,0.0,0.0,0.0,0.0,0.0,0.0,0.0,0.0,0.0,0.0,0.0,0.0,0.0,0.0,0.0,0.0,0.0,0.0,0.0,0.0,0.0,0.0,0.0,0.0,0.0,0.0,0.0,0.0,0.0,0.0,0.0,0.0,0.0,0.0,0.0,0.0,0.0,0.0,0.0,0.0,0.0,0.0,0.0,0.0,0.0,0.0,0.0,0.0,0.0,0.0,1.0999,1.0447,1.0118,1.0193,1.0268,1.0764,1.164,1.2508,0.0,0.0,0.0,0.0,0.0,0.0,0.0,0.0,0.0,0.0,0.0,0.0,0.0,0.0,0.0,0.0,0.0,0.0,0.0,0.0,0.0,0.0,0.0,0.0,0.0,0.0,0.0,0.0,0.0,0.0,0.0,0.0,0.0,0.0,0.0,0.0,0.0,0.0,0.0,0.0,0.0,0.0,0.0,0.0,0.0,0.0,0.0,0.0,0.0,0.0,0.0,0.0,0.0,0.0,0.0,0.0,0.0,0.0,0.0,0.0,0.0,0.0,0.0,0.0,0.0,0.0,0.0,0.0,0.0,0.0,0.0,0.0,0.0,0.0,0.0,0.0,0.0,0.0,0.0,0.0,0.0,0.0,0.0,0.0,0.0,0.0,0.0,0.0,0.0,0.0,0.0,0.0,0.0,0.0,0.0,0.0,0.0,0.0,0.0,0.0,0.0,0.0,0.0,0.0,0.0,0.0,1.0236,1.0528,1.0279,1.0329,1.0819,1.0429,1.0846,1.2178,1.3464,0.0,0.0,0.0,0.0,0.0,0.0,0.0,0.0,0.0,0.0,0.0,0.0,0.0,0.0,0.0,0.0,0.0,0.0,0.0,0.0,0.0,0.0,0.0,0.0,0.0,0.0,0.0,0.0,0.0,0.0,0.0,0.0,0.0,0.0,0.0,0.0,0.0,0.0,0.0,0.0,0.0,0.0,0.0,0.0,0.0,0.0,0.0,0.0,0.0,0.0,0.0,0.0,0.0,0.0,0.0,0.0,0.0,0.0,0.0,0.0,0.0,0.0,0.0,0.0,0.0,0.0,0.0,0.0,0.0,0.0,0.0,0.0,0.0,0.0,0.0,0.0,0.0,0.0,0.0,0.0,0.0,0.0,0.0,0.0,0.0,0.0,0.0,0.0,0.0,0.0,0.0,0.0,0.0,0.0,0.0,0.0,0.0,0.0,0.0,0.0,0.0,0.0,0.0,0.0,0.0,0.0,1.0034,1.0515,1.0271,1.0709,1.1828,1.1367,1.1865,1.3567,0.0,0.0,0.0,0.0,0.0,0.0,0.0,0.0,0.0,0.0,0.0,0.0,0.0,0.0,0.0,0.0,0.0,0.0,0.0,0.0,0.0,0.0,0.0,0.0,0.0,0.0,0.0,0.0,0.0,0.0,0.0,0.0,0.0,0.0,0.0,0.0,0.0,0.0,0.0,0.0,0.0,0.0,0.0,0.0,0.0,0.0,0.0,0.0,0.0,0.0,0.0,0.0,0.0,0.0,0.0,0.0,0.0,0.0,0.0,0.0,0.0,0.0,0.0,0.0,0.0,0.0,0.0,0.0,0.0,0.0,0.0,0.0,0.0,0.0,0.0,0.0,0.0,0.0,0.0,0.0,0.0,0.0,0.0,0.0,0.0,0.0,0.0,0.0,0.0,0.0,0.0,0.0,0.0,0.0,0.0,0.0,0.0,0.0,0.0,0.0,0.0,0.0,0.0,0.0,0.0,0.0,0.0,0.9981,1.2001,1.0868,1.127,1.3667,1.3692,1.4412,1.6002,0.0,0.0,0.0,0.0,0.0,0.0,0.0,0.0,0.0,0.0,0.0,0.0,0.0,0.0,0.0,0.0,0.0,0.0,0.0,0.0,0.0,0.0,0.0,0.0,0.0,0.0,0.0,0.0,0.0,0.0,0.0,0.0,0.0,0.0,0.0,0.0,0.0,0.0,0.0,0.0,0.0,0.0,0.0,0.0,0.0,0.0,0.0,0.0,0.0,0.0,0.0,0.0,0.0,0.0,0.0,0.0,0.0,0.0,0.0,0.0,0.0,0.0,0.0,0.0,0.0,0.0,0.0,0.0,0.0,0.0,0.0,0.0,0.0,0.0,0.0,0.0,0.0,0.0,0.0,0.0,0.0,0.0,0.0,0.0,0.0,0.0,0.0,0.0,0.0,0.0,0.0,0.0,0.0,0.0,0.0,0.0,0.0,0.0,0.0,0.0,0.0,0.0,0.0,0.0,0.0,0.0,0.7502,0.8672,1.0187,1.1097,1.2601,1.4714,1.4488,1.4681,1.5292,0.0,0.0,0.0,0.0,0.0,0.0,0.0,0.0,0.0,0.0,0.0,0.0,0.0,0.0,0.0,0.0,0.0,0.0,0.0,0.0,0.0,0.0,0.0,0.0,0.0,0.0,0.0,0.0,0.0,0.0,0.0,0.0,0.0,0.0,0.0,0.0,0.0,0.0,0.0,0.0,0.0,0.0,0.0,0.0,0.0,0.0,0.0,0.0,0.0,0.0,0.0,0.0,0.0,0.0,0.0,0.0,0.0,0.0,0.0,0.0,0.0,0.0,0.0,0.0,0.0,0.0,0.0,0.0,0.0,0.0,0.0,0.0,0.0,0.0,0.0,0.0,0.0,0.0,0.0,0.0,0.0,0.0,0.0,0.0,0.0,0.0,0.0,0.0,0.0,0.0,0.0,0.0,0.0,0.0,0.0,0.0,0.0,0.0,0.0,0.0,0.0,0.0,0.0,0.0,0.0,0.585,0.6543,0.7902,1.0066,1.177,1.3682,1.5843,1.5687,1.5094,1.4251,0.0,0.0,0.0,0.0,0.0,0.0,0.0,0.0,0.0,0.0,0.0,0.0,0.0,0.0,0.0,0.0,0.0,0.0,0.0,0.0,0.0,0.0,0.0,0.0,0.0,0.0,0.0,0.0,0.0,0.0,0.0,0.0,0.0,0.0,0.0,0.0,0.0,0.0,0.0,0.0,0.0,0.0,0.0,0.0,0.0,0.0,0.0,0.0,0.0,0.0,0.0,0.0,0.0,0.0,0.0,0.0,0.0,0.0,0.0,0.0,0.0,0.0,0.0,0.0,0.0,0.0,0.0,0.0,0.0,0.0,0.0,0.0,0.0,0.0,0.0,0.0,0.0,0.0,0.0,0.0,0.0,0.0,0.0,0.0,0.0,0.0,0.0,0.0,0.0,0.0,0.0,0.0,0.0,0.0,0.0,0.0,0.0,0.0,0.0,0.0,0.0,0.0,0.0,0.0,0.0,0.0,0.5161,0.8312,1.3278,1.2922,1.4274,1.7678,1.7732,1.6269,1.3371,0.0,0.0,0.0,0.0,0.0,0.0,0.0,0.0,0.0,0.0,0.0,0.0,0.0,0.0,0.0,0.0,0.0,0.0,0.0,0.0,0.0,0.0,0.0,0.0,0.0,0.0,0.0,0.0,0.0,0.0,0.0,0.0,0.0,0.0,0.0,0.0,0.0,0.0,0.0,0.0,0.0,0.0,0.0,0.0,0.0,0.0,0.0,0.0,0.0,0.0,0.0,0.0,0.0,0.0,0.0,0.0,0.0,0.0,0.0,0.0,0.0,0.0,0.0,0.0,0.0,0.0,0.0,0.0,0.0,0.0,0.0,0.0,0.0,0.0,0.0,0.0,0.0,0.0,0.0,0.0,0.0,0.0,0.0,0.0,0.0,0.0,0.0,0.0,0.0,0.0,0.0,0.0,0.0,0.0,0.0,0.0,0.0,0.0,0.0,0.0,0.0,0.0,0.0,0.0,0.0,0.0,0.4476,0.606,0.8767,1.1284,1.5076,1.9952,1.6308,1.4183,1.4246,0.0,0.0,0.0,0.0,0.0,0.0,0.0,0.0,0.0,0.0,0.0,0.0,0.0,0.0,0.0,0.0,0.0,0.0,0.0,0.0,0.0,0.0,0.0,0.0,0.0,0.0,0.0,0.0,0.0,0.0,0.0,0.0,0.0,0.0,0.0,0.0,0.0,0.0,0.0,0.0,0.0,0.0,0.0,0.0,0.0,0.0,0.0,0.0,0.0,0.0,0.0,0.0,0.0,0.0,0.0,0.0,0.0,0.0,0.0,0.0,0.0,0.0,0.0,0.0,0.0,0.0,0.0,0.0,0.0,0.0,0.0,0.0,0.0,0.0,0.0,0.0,0.0,0.0,0.0,0.0,0.0,0.0,0.0,0.0,0.0,0.0,0.0,0.0,0.0,0.0,0.0,0.0,0.0,0.0,0.0,0.0,0.0,0.0,0.0,0.0,0.0,0.0,0.0,0.0,0.0,0.0,0.4783,0.5981,0.8946,1.2452,1.6133,1.957,1.5409,1.2756,0.0,0.0,0.0,0.0,0.0,0.0,0.0,0.0,0.0,0.0,0.0,0.0,0.0,0.0,0.0,0.0,0.0,0.0,0.0,0.0,0.0,0.0,0.0,0.0,0.0,0.0,0.0,0.0,0.0,0.0,0.0,0.0,0.0,0.0,0.0,0.0,0.0,0.0,0.0,0.0,0.0,0.0,0.0,0.0,0.0,0.0,0.0,0.0,0.0,0.0,0.0,0.0,0.0,0.0,0.0,0.0,0.0,0.0,0.0,0.0,0.0,0.0,0.0,0.0,0.0,0.0,0.0,0.0,0.0,0.0,0.0,0.0,0.0,0.0,0.0,0.0,0.0,0.0,0.0,0.0,0.0,0.0,0.0,0.0,0.0,0.0,0.0,0.0,0.0,0.0,0.0,0.0,0.0,0.0,0.0,0.0,0.0,0.0,0.0,0.0,0.0,0.0,0.0,0.0,0.0,0.0,0.0,0.6142,0.8395,1.4749,1.6719,1.7344,1.6512,1.5381,1.2264,0.0,0.0,0.0,0.0,0.0,0.0,0.0,0.0,0.0,0.0,0.0,0.0,0.0,0.0,0.0,0.0,0.0,0.0,0.0,0.0,0.0,0.0,0.0,0.0,0.0,0.0,0.0,0.0,0.0,0.0,0.0,0.0,0.0,0.0,0.0,0.0,0.0,0.0,0.0,0.0,0.0,0.0,0.0,0.0,0.0,0.0,0.0,0.0,0.0,0.0,0.0,0.0,0.0,0.0,0.0,0.0,0.0,0.0,0.0,0.0,0.0,0.0,0.0,0.0,0.0,0.0,0.0,0.0,0.0,0.0,0.0,0.0,0.0,0.0,0.0,0.0,0.0,0.0,0.0,0.0,0.0,0.0,0.0,0.0,0.0,0.0,0.0,0.0,0.0,0.0,0.0,0.0,0.0,0.0,0.0,0.0,0.0,0.0,0.0,0.0,0.0,0.0,0.0,0.0,0.0,0.0,0.0,1.0005,1.1551,1.2431,1.4814,1.7341,1.9719,1.4906,1.2637,1.3386,0.0,0.0,0.0,0.0,0.0,0.0,0.0,0.0,0.0,0.0,0.0,0.0,0.0,0.0,0.0,0.0,0.0,0.0,0.0,0.0,0.0,0.0,0.0,0.0,0.0,0.0,0.0,0.0,0.0,0.0,0.0,0.0,0.0,0.0,0.0,0.0,0.0,0.0,0.0,0.0,0.0,0.0,0.0,0.0,0.0,0.0,0.0,0.0,0.0,0.0,0.0,0.0,0.0,0.0,0.0,0.0,0.0,0.0,0.0,0.0,0.0,0.0,0.0,0.0,0.0,0.0,0.0,0.0,0.0,0.0,0.0,0.0,0.0,0.0,0.0,0.0,0.0,0.0,0.0,0.0,0.0,0.0,0.0,0.0,0.0,0.0,0.0,0.0,0.0,0.0,0.0,0.0,0.0,0.0,0.0,0.0,0.0,0.0,0.0,0.0,0.0,0.0,0.0,0.0,0.0,0.0,1.34,1.5346,1.4742,1.6907,1.9062,2.1065,1.5931,1.3689,1.482,0.0,0.0,0.0,0.0,0.0,0.0,0.0,0.0,0.0,0.0,0.0,0.0,0.0,0.0,0.0,0.0,0.0,0.0,0.0,0.0,0.0,0.0,0.0,0.0,0.0,0.0,0.0,0.0,0.0,0.0,0.0,0.0,0.0,0.0,0.0,0.0,0.0,0.0,0.0,0.0,0.0,0.0,0.0,0.0,0.0,0.0,0.0,0.0,0.0,0.0,0.0,0.0,0.0,0.0,0.0,0.0,0.0,0.0,0.0,0.0,0.0,0.0,0.0,0.0,0.0,0.0,0.0,0.0,0.0,0.0,0.0,0.0,0.0,0.0,0.0,0.0,0.0,0.0,0.0,0.0,0.0,0.0,0.0,0.0,0.0,0.0,0.0,0.0,0.0,0.0,0.0,0.0,0.0,0.0,0.0,0.0,0.0,0.0,0.0,0.0,0.0,0.0,0.0,0.0,0.0,0.0,0.0,1.9477,2.0735,2.2469,2.2458,2.0667,1.8318,1.5557,1.2446,0.0,0.0,0.0,0.0,0.0,0.0,0.0,0.0,0.0,0.0,0.0,0.0,0.0,0.0,0.0,0.0,0.0,0.0,0.0,0.0,0.0,0.0,0.0,0.0,0.0,0.0,0.0,0.0,0.0,0.0,0.0,0.0,0.0,0.0,0.0,0.0,0.0,0.0,0.0,0.0,0.0,0.0,0.0,0.0,0.0,0.0,0.0,0.0,0.0,0.0,0.0,0.0,0.0,0.0,0.0,0.0,0.0,0.0,0.0,0.0,0.0,0.0,0.0,0.0,0.0,0.0,0.0,0.0,0.0,0.0,0.0,0.0,0.0,0.0,0.0,0.0,0.0,0.0,0.0,0.0,0.0,0.0,0.0,0.0,0.0,0.0,0.0,0.0,0.0,0.0,0.0,0.0,0.0,0.0,0.0,0.0,0.0,0.0,0.0,0.0,0.0,0.0,0.0,0.0,0.0,0.0,1.6378,2.0467,2.4963,2.6783,2.6811,2.4982,2.1133,1.8621,1.7671,0.0,0.0,0.0,0.0,0.0,0.0,0.0,0.0,0.0,0.0,0.0,0.0,0.0,0.0,0.0,0.0,0.0,0.0,0.0,0.0,0.0,0.0,0.0,0.0,0.0,0.0,0.0,0.0,0.0,0.0,0.0,0.0,0.0,0.0,0.0,0.0,0.0,0.0,0.0,0.0,0.0,0.0,0.0,0.0,0.0,0.0,0.0,0.0,0.0,0.0,0.0,0.0,0.0,0.0,0.0,0.0,0.0,0.0,0.0,0.0,0.0,0.0,0.0,0.0,0.0,0.0,0.0,0.0,0.0,0.0,0.0,0.0,0.0,0.0,0.0,0.0,0.0,0.0,0.0,0.0,0.0,0.0,0.0,0.0,0.0,0.0,0.0,0.0,0.0,0.0,0.0,0.0,0.0,0.0,0.0,0.0,0.0,0.0,0.0,0.0,0.0,0.0,0.0,0.0,0.0,0.0,1.8203,2.2411,2.7273,3.0023,3.0557,2.8859,2.5373,2.2436,2.0239,0.0,0.0,0.0,0.0,0.0,0.0,0.0,0.0,0.0,0.0,0.0,0.0,0.0,0.0,0.0,0.0,0.0,0.0,0.0,0.0,0.0,0.0,0.0,0.0,0.0,0.0,0.0,0.0,0.0,0.0,0.0,0.0,0.0,0.0,0.0,0.0,0.0,0.0,0.0,0.0,0.0,0.0,0.0,0.0,0.0,0.0,0.0,0.0,2.1494,0.0,0.0,0.0,0.0,0.0,0.0,0.0,0.0,0.0,0.0,0.0,0.0,0.0,0.0,0.0,0.0,0.0,0.0,0.0,0.0,0.0,0.0,0.0,0.0,0.0,0.0,0.0,0.0,0.0,0.0,0.0,0.0,0.0,0.0,0.0,0.0,0.0,0.0,0.0,0.0,0.0,0.0,0.0,0.0,0.0,0.0,0.0,0.0,0.0,0.0,0.0,0.0,0.0,0.0,0.0,1.451,1.6441,2.0867,2.4927,2.8435,3.227,3.355,3.2081,2.9754,2.6176,2.1311,0.0,0.0,0.0,0.0,0.0,0.0,0.0,0.0,0.0,0.0,0.0,0.0,0.0,0.0,0.0,0.0,0.0,0.0,0.0,0.0,0.0,0.0,0.0,0.0,0.0,0.0,0.0,0.0,0.0,0.0,0.0,0.0,0.0,0.0,0.0,0.0,0.0,0.0,0.0,0.0,0.0,0.0,0.0,0.0,0.0,0.0,0.0,2.1462,2.2615,0.0,0.0,0.0,0.0,0.0,0.0,0.0,0.0,0.0,0.0,0.0,0.0,0.0,0.0,0.0,0.0,0.0,0.0,0.0,0.0,0.0,0.0,0.0,0.0,0.0,0.0,0.0,0.5196,0.0,0.5092,0.0,0.0,0.0,0.0,0.0,0.0,0.0,0.0,0.0,0.0,0.0,0.0,0.0,0.0,0.0,0.0,0.0,0.0,0.0,0.0,0.0,0.0,0.0,0.0,1.2898,1.6016,2.2017,2.4075,2.6883,3.0896,3.3053,3.4289,3.4558,3.0136,2.6195,2.2961,0.0,0.0,0.0,0.0,0.0,0.0,0.0,0.0,0.0,0.0,0.0,0.0,0.0,0.0,0.0,0.0,0.0,0.0,0.0,0.0,0.0,0.0,0.0,0.0,0.0,0.0,0.0,0.0,0.0,0.0,0.0,0.0,0.0,0.0,0.0,0.0,0.0,0.0,0.0,0.0,0.0,0.0,0.0,0.0,0.0,0.0,0.0,2.2268,0.0,0.0,0.0,0.0,0.0,0.0,0.0,0.0,0.0,0.0,0.0,0.0,0.0,0.0,0.0,0.0,0.0,0.0,0.0,0.0,0.0,0.0,0.0,0.0,0.0,0.0,0.0,0.0,0.5784,0.5747,0.6069,0.0,0.0,0.0,0.0,0.0,0.0,0.0,0.0,0.0,0.0,0.0,0.0,0.0,0.0,0.0,0.0,0.0,0.0,0.0,0.0,0.0,0.0,0.0,1.2177,1.3646,1.702,2.2178,2.5538,2.8878,3.2199,3.3853,3.4899,3.5182,3.1393,2.7842,2.4747,0.0,0.0,0.0,0.0,0.0,0.0,0.0,0.0,0.0,0.0,0.0,0.0,0.0,0.0,0.0,0.0,0.0,0.0,0.0,0.0,0.0,0.0,0.0,0.0,0.0,0.0,0.0,0.0,0.0,0.0,0.0,0.0,0.0,0.0,0.0,0.0,0.0,1.3604,1.0271,0.0,0.0,0.0,0.0,0.0,0.0,0.0,0.0,2.1667,2.3004,0.0,0.0,0.0,0.0,0.0,0.0,0.0,0.0,0.0,0.0,0.0,0.0,0.0,0.0,0.0,0.0,0.0,0.0,0.0,0.0,0.0,0.0,0.0,0.0,0.0,0.0,0.0,0.6506,0.6488,0.7038,0.0,0.0,0.0,0.0,0.0,0.0,0.0,0.0,0.0,0.0,0.0,0.0,0.0,0.0,0.0,0.0,0.0,0.0,0.0,0.0,0.0,0.0,0.0,1.1126,1.4283,1.7786,2.155,2.6419,3.0321,3.3005,3.4501,3.53,3.5262,3.2683,2.9665,2.6233,0.0,0.0,0.0,0.0,0.0,0.0,0.0,0.0,0.0,0.0,0.0,0.0,0.0,0.0,0.0,0.0,0.0,0.0,0.0,0.0,0.0,0.0,0.0,0.0,0.0,0.0,0.0,0.0,0.0,0.0,0.0,0.0,0.0,0.0,0.0,0.0,0.0,1.5093,1.1237,1.7231,2.2566,0.0,0.0,0.0,0.0,0.0,0.0,0.0,2.546,2.7132,2.1626,0.0,0.0,0.0,0.0,0.0,0.0,0.0,0.0,0.0,0.0,0.0,0.0,0.0,0.0,0.0,0.0,0.0,0.0,0.0,0.0,0.0,0.0,0.0,0.0,0.0,0.8106,0.8101,0.8096,0.0,0.0,0.0,0.0,0.0,0.0,0.0,0.0,0.0,0.0,0.0,0.0,0.0,0.0,0.0,0.0,0.0,0.0,0.0,0.0,0.0,0.0,0.0,0.0,1.4414,1.8468,2.6516,2.7572,2.9946,3.3796,3.4757,3.5239,3.5224,3.2651,2.9633,2.6205,2.2258,0.0,0.0,0.0,0.0,0.0,0.0,0.0,0.0,0.0,0.0,0.0,0.0,0.0,0.0,0.0,0.0,0.0,0.0,0.0,0.0,0.0,0.0,0.0,0.0,0.0,0.0,0.0,0.0,0.0,0.0,0.0,0.0,0.0,0.0,0.0,0.0,1.7488,1.6061,1.967,2.2935,2.4359,0.0,0.0,0.0,0.0,0.0,2.4129,2.6747,2.7255,2.2175,1.7859,0.0,0.0,0.0,0.0,0.0,0.0,0.0,0.0,0.0,0.0,0.0,0.0,0.0,0.0,0.0,0.0,0.0,0.0,0.0,0.0,0.0,0.0,0.0,0.0,0.8826,0.885,0.9115,0.833,0.8224,0.0,0.0,0.0,0.0,0.8779,0.0,0.0,0.0,0.0,0.0,0.0,0.0,0.0,0.0,0.0,0.0,0.0,0.0,0.0,0.0,0.0,0.0,1.6297,2.052,2.5726,2.9206,3.2178,3.4588,3.4966,3.5196,3.5162,3.1727,2.8433,2.5423,0.0,0.0,0.0,0.0,0.0,0.0,0.0,0.0,0.0,0.0,0.0,0.0,0.0,0.0,0.0,0.0,0.0,0.0,0.0,0.0,0.0,0.0,0.0,0.0,0.0,0.0,0.0,0.0,0.0,0.0,0.0,0.0,0.0,0.0,0.0,0.0,0.0,0.0,2.3773,2.3637,2.3579,2.4627,2.4347,2.4264,2.4982,2.6096,2.6692,2.5995,2.8363,2.8397,2.3007,0.0,0.0,0.0,0.0,0.0,0.0,0.0,0.0,0.0,0.0,0.0,0.0,0.0,0.0,0.0,0.0,0.0,0.0,0.0,0.0,0.0,0.0,0.0,0.0,0.0,0.0,0.9411,0.9886,0.9281,0.9346,0.9908,0.0,0.0,0.0,0.9974,1.002,0.0,0.0,0.0,0.0,0.0,0.0,0.0,0.0,0.0,0.0,0.0,0.0,0.0,0.0,0.0,0.0,1.7716,2.1996,2.461,3.0366,3.4066,3.5365,3.5356,3.528,3.5136,3.1358,2.7862,2.4716,0.0,0.0,0.0,0.0,0.0,0.0,0.0,0.0,0.0,0.0,0.0,0.0,0.0,0.0,0.0,0.0,0.0,0.0,0.0,0.0,0.0,0.0,0.0,0.0,0.0,0.0,0.0,0.0,0.0,0.0,0.0,0.0,0.0,0.0,0.0,0.0,0.0,0.0,0.0,2.7364,2.5226,2.5196,2.506,2.5272,2.6122,2.6988,2.759,2.7755,2.9924,2.9708,0.0,0.0,0.0,0.0,0.0,0.0,0.0,0.0,0.0,0.0,0.0,0.0,0.0,0.0,0.0,0.0,0.0,0.0,0.0,0.0,0.0,0.0,1.1289,1.0586,0.0,0.0,1.0113,1.0059,1.004,1.0004,1.0024,1.0092,0.9952,0.9906,0.0,1.0063,1.0059,0.9999,0.0,0.0,0.0,0.0,0.0,0.0,0.0,0.0,0.0,0.0,0.0,0.0,0.0,0.0,0.0,0.0,2.0866,2.6107,2.9805,3.3226,3.6167,3.6232,3.5872,3.52,3.2995,2.9511,2.472,0.0,0.0,0.0,0.0,0.0,0.0,0.0,0.0,0.0,0.0,0.0,0.0,0.0,0.0,0.0,0.0,0.0,0.0,0.0,0.0,0.0,0.0,0.0,0.0,0.0,0.8721,0.0,0.0,0.0,0.0,0.0,0.0,0.0,0.0,0.0,0.0,0.0,0.0,0.0,0.0,2.9099,2.6658,2.6249,2.6581,2.7731,2.792,2.8461,2.9936,3.1287,3.0644,0.0,0.0,0.0,0.0,0.0,0.0,0.0,0.0,0.0,0.0,0.0,0.0,0.0,0.0,0.0,0.0,0.0,0.0,0.0,0.0,0.0,0.0,1.2225,1.1914,1.1756,1.1715,1.1713,1.1655,1.1635,1.1612,1.1549,1.1503,1.143,1.1117,1.0732,1.1278,1.1007,1.0171,0.0,0.0,0.0,0.0,0.0,0.0,0.0,0.0,0.0,0.0,0.0,0.0,1.1828,1.2073,1.294,1.8441,2.3025,2.6507,3.1604,3.4961,3.6434,3.6347,3.5701,3.4445,3.1069,2.7264,0.0,0.0,0.0,0.0,0.0,0.0,0.0,0.0,0.0,0.0,0.0,0.0,0.0,0.0,0.0,0.0,0.0,0.0,0.0,0.0,0.0,0.0,0.0,0.0,0.0,0.8088,0.8268,0.9836,0.0,0.0,0.0,0.0,0.0,0.0,0.0,0.0,0.0,0.0,0.0,0.0,0.0,3.1574,3.0005,2.9494,2.9245,2.9233,2.8501,2.9241,3.2921,3.2617,3.0694,0.0,0.0,0.0,0.0,0.0,0.0,0.0,0.0,0.0,0.0,0.0,0.0,0.0,0.0,0.0,0.0,0.0,0.0,1.3328,1.3344,1.3173,1.31,1.3111,1.2923,1.2887,1.289,1.2847,1.2844,1.2809,1.2761,1.2695,1.2594,1.2326,1.1822,1.131,1.2016,1.1544,1.023,1.1286,0.0,0.0,0.0,0.0,0.0,0.0,0.0,0.0,0.0,0.0,1.1784,1.1435,1.1897,1.3537,2.0135,2.4832,2.7198,3.3478,3.6757,3.6816,3.6653,3.5666,3.3731,2.9925,2.591,0.0,0.0,0.0,0.0,0.0,0.0,0.0,0.0,0.0,0.0,0.0,0.0,0.0,0.0,0.0,0.0,0.0,0.0,0.0,0.0,0.0,0.0,0.0,0.9436,0.9411,0.8821,0.8943,1.0392,1.1528,0.0,1.4178,0.0,0.0,0.0,0.0,0.0,0.0,0.0,0.0,0.0,0.0,3.3667,3.3199,3.2772,3.2095,3.102,3.011,3.093,3.4918,3.4238,3.1691,0.0,0.0,0.0,0.0,0.0,0.0,0.0,0.0,0.0,0.0,0.0,0.0,0.0,0.0,0.0,0.0,0.0,0.0,1.5074,1.4959,1.4228,1.3937,1.3869,1.3141,1.2843,1.2844,1.285,1.289,1.289,1.2832,1.2761,1.2665,1.1948,1.1407,1.1397,1.1536,1.1118,1.0251,1.1835,0.0,0.0,0.0,0.0,0.0,0.0,0.0,0.0,0.0,0.0,1.2515,1.1778,1.2244,1.3936,1.9869,2.4859,2.8859,3.4611,3.76,3.7621,3.7356,3.6041,3.3582,3.1383,2.7466,0.0,0.0,0.0,0.0,0.0,0.0,0.0,0.0,0.0,0.0,0.0,0.0,0.0,0.0,0.0,0.0,0.0,0.0,0.0,0.0,0.0,0.0,0.0,0.0,1.0867,1.1047,1.1242,1.1531,1.1333,1.1682,1.2477,0.0,0.0,0.0,0.0,0.0,0.0,0.0,0.0,0.0,0.0,3.5532,3.5507,3.529,3.4702,3.35,3.3638,3.4246,3.5024,3.6193,3.4783,2.8319,2.7774,2.7209,0.0,0.0,0.0,0.0,0.0,0.0,0.0,0.0,0.0,0.0,0.0,0.0,0.0,0.0,0.0,1.5522,1.5033,1.4795,1.4695,1.4637,1.4428,1.4352,1.4366,1.4408,1.4448,1.445,1.4409,1.4381,1.4264,1.3895,1.3407,1.2955,1.3499,1.2997,1.1786,1.3465,0.0,0.0,0.0,0.0,0.0,0.0,0.0,0.0,0.0,0.0,1.256,1.2231,1.2693,1.4258,2.0787,2.58,2.8938,3.4764,3.7733,3.7642,3.745,3.5852,3.273,3.076,2.6774,2.0643,0.0,0.0,0.0,0.0,0.0,0.0,0.0,0.0,0.0,0.0,0.0,0.0,0.0,0.0,0.0,0.0,0.0,0.0,0.0,0.0,0.0,0.0,0.0,0.0,1.603,1.6966,1.3787,1.4134,1.4621,1.4661,1.647,0.0,0.0,0.0,0.0,0.0,0.0,0.0,3.8722,0.0,3.8992,4.0097,3.9567,3.8288,3.6217,3.5816,3.6189,3.7384,3.5188,3.2573,3.0394,2.7439,2.442,2.167,0.0,0.0,0.0,0.0,0.0,0.0,0.0,0.0,0.0,0.0,0.0,0.0,0.0,0.0,1.6139,1.561,1.5727,1.5823,1.5856,1.5995,1.6068,1.6064,1.5877,1.5765,1.577,1.5508,1.5374,1.529,1.4988,1.4506,1.3997,1.4555,1.4601,1.4484,1.63,1.7252,0.0,0.0,0.0,0.0,0.0,0.0,0.0,0.0,0.0,1.2797,1.2539,1.3124,1.4908,2.1656,2.6591,2.9281,3.513,3.7888,3.7489,3.7103,3.5292,3.2035,2.9783,2.5935,2.0265,0.0,0.0,0.0,0.0,0.6068,0.0,0.0,0.0,0.0,0.0,0.0,0.0,0.0,0.0,0.0,0.0,0.0,0.0,0.0,0.0,0.0,0.0,0.0,0.0,0.0,2.0966,1.6651,1.6253,1.6088,1.5378,1.5621,1.7764,2.2503,0.0,0.0,0.0,0.0,0.0,0.0,4.0861,4.1645,4.377,4.2639,4.0805,3.8795,3.7473,3.6986,3.7914,3.4711,3.1776,3.0684,2.7598,2.448,2.1937,2.1992,2.225,2.1729,2.2129,2.2314,2.1721,0.0,0.0,0.0,0.0,0.0,0.0,0.0,0.0,1.7213,1.7041,1.7283,1.742,1.753,1.7626,1.7788,1.7961,1.7108,1.6826,1.6657,1.5894,1.5506,1.529,1.4567,1.4247,1.4135,1.4028,1.5387,1.7865,2.0425,2.1594,2.1581,2.1678,2.1264,2.0191,1.7958,1.6214,1.5134,1.3963,1.3472,1.3443,1.2647,1.3567,1.6308,2.2272,2.6912,3.0188,3.5827,3.8289,3.731,3.6258,3.4409,3.1592,2.8822,2.5267,2.0758,0.0,0.0,0.0,0.0,0.6564,0.0,0.0,0.0,0.0,0.0,0.0,0.0,0.0,0.0,0.0,0.0,0.0,0.0,0.0,0.0,0.0,0.0,0.0,0.0,0.0,2.2064,1.9801,1.7161,1.5068,1.3742,1.3516,1.4718,0.0,0.0,0.0,0.0,0.0,3.4925,4.1054,4.1933,4.3023,4.5862,4.392,4.1858,4.1076,3.869,3.6643,3.5936,3.5342,3.34,2.8854,2.887,0.0,0.0,0.0,0.0,0.0,0.0,0.0,0.0,0.0,0.0,0.0,0.0,0.0,0.0,0.0,0.0,1.9271,1.7868,1.7427,1.7955,1.8892,1.8637,1.9701,2.1541,2.0951,2.0386,1.9861,1.9566,1.8561,1.7061,1.6743,1.6553,1.658,1.7137,1.8134,1.9679,2.1648,2.2923,2.353,2.409,2.3555,2.2162,2.1041,1.8834,1.5914,1.5377,1.4541,1.3309,1.3049,1.426,1.6931,2.2916,2.7528,3.0793,3.5989,3.8142,3.7061,3.6584,3.4673,3.1334,2.9109,2.5231,1.9512,1.5593,0.0,0.0,0.9762,0.7947,0.0,0.0,0.0,0.0,0.0,0.0,0.0,0.0,0.0,0.0,0.0,0.0,0.0,0.0,0.0,0.0,0.0,0.0,0.0,0.0,2.2771,2.2031,1.8858,1.6901,1.7175,1.6439,1.654,1.8176,2.3439,2.7505,2.8773,3.1917,3.6171,4.1989,4.2694,4.3755,4.6652,4.5134,4.3069,4.136,3.9777,3.8413,3.7418,3.4988,3.3262,3.3475,3.1206,2.9875,3.1461,2.6894,2.4437,2.9127,3.0692,3.0197,2.6754,2.6739,2.6884,2.5887,2.5941,2.6079,2.5808,2.6321,2.6043,2.2009,2.0144,1.981,2.0532,2.1807,2.149,2.2711,2.4879,2.4208,2.366,2.3137,2.2585,2.1141,1.9169,1.8862,1.8746,1.887,2.0628,2.2033,2.324,2.5219,2.6493,2.702,2.7265,2.6423,2.4739,2.4408,2.231,1.8716,1.7353,1.6075,1.4817,1.4669,1.5841,1.8416,2.4152,2.8455,3.145,3.6255,3.8136,3.6833,3.5917,3.3973,3.0957,2.8362,2.4821,2.0105,1.8087,1.6252,0.0,1.2464,0.0,0.0,0.0,0.0,0.0,0.0,0.0,0.0,0.0,0.0,0.0,0.0,0.0,0.0,0.0,0.0,0.0,0.0,0.0,0.0,2.0742,2.275,2.2573,2.0373,1.8947,1.9052,1.9161,1.9429,2.0191,2.5479,2.994,3.1763,3.4452,3.7928,4.2521,4.3373,4.4352,4.6318,4.5319,4.3755,4.2033,4.0476,3.9164,3.8137,3.5727,3.3999,3.4218,3.3065,3.2685,3.4543,3.0584,2.8495,3.2409,3.4589,3.4418,2.9894,2.9286,2.9461,2.9454,2.9628,2.9798,2.9813,3.0625,3.067,2.5613,2.3884,2.4284,2.5147,2.5982,2.6145,2.6851,2.7835,2.6985,2.6619,2.6402,2.493,2.3223,2.1634,2.09,2.0718,2.0962,2.4284,2.6696,2.8317,3.088,3.2139,3.2026,3.1192,2.9878,2.8145,2.7879,2.6258,2.3406,2.0052,1.8264,1.806,1.7343,1.8264,2.084,2.5925,2.9663,3.2194,3.6782,3.8335,3.6572,3.4454,3.2349,3.0273,2.67,2.4081,2.2603,2.1901,2.0373,1.7643,1.6025,0.0,0.0,0.0,0.0,0.0,0.0,0.0,0.0,0.0,0.0,0.0,0.0,0.0,0.0,0.0,0.0,0.0,0.0,0.0,1.9287,2.1017,2.2119,2.1982,2.1788,2.1092,1.984,2.1404,2.2851,2.3296,2.8538,3.2669,3.3767,3.6945,4.0,4.2559,4.3908,4.4814,4.5053,4.4581,4.3953,4.3203,4.0979,3.9016,3.8062,3.7426,3.5478,3.1054,3.4434,3.7041,3.5243,3.5687,3.5662,3.423,3.6787,3.8218,3.4989,3.2685,3.1979,3.3732,3.3759,3.3509,3.3459,3.4552,3.5204,3.1994,2.7805,2.7525,2.8625,3.043,3.005,3.1429,3.3827,3.3205,3.2053,3.0522,2.958,2.7681,2.5173,2.4341,2.4386,2.5149,2.8007,2.9922,3.1094,3.3046,3.4254,3.4747,3.3735,3.2904,3.2216,3.1309,3.0321,2.918,2.6912,2.3356,1.873,1.9679,2.0875,2.2501,2.74,3.1129,3.3438,3.7017,3.7919,3.5927,3.4474,3.192,2.8157,2.6302,2.4713,2.3474,2.3308,2.2459,2.0749,1.8718,0.0,1.2984,0.0,0.0,0.0,0.0,0.9287,0.9982,1.0037,0.0,0.0,0.0,1.3361,0.0,0.0,0.0,0.0,1.5195,1.8112,2.4739,2.3775,2.3191,2.4389,2.3358,2.3341,2.5161,2.5428,2.5574,2.597,3.0483,3.2255,2.8721,3.5348,4.0976,4.2477,4.3834,4.4672,4.4671,4.5375,4.5438,4.396,4.2634,4.1178,3.9497,3.801,3.6656,3.5615,3.8254,4.0021,3.8714,3.8558,3.8371,3.7672,3.7931,3.8154,3.7918,3.6293,3.5308,3.599,3.6463,3.6788,3.6822,3.7529,3.8167,3.7316,3.363,3.1978,3.2365,3.4002,3.3789,3.5046,3.7349,3.7039,3.6245,3.5007,3.4093,3.2279,2.989,2.8595,2.8489,2.9433,3.1415,3.3146,3.4632,3.5681,3.6602,3.7297,3.6578,3.5739,3.4764,3.3923,3.3127,3.239,3.1206,2.8189,2.3585,2.3428,2.3951,2.5129,2.9237,3.2453,3.4649,3.7107,3.7398,3.5388,3.3069,3.0318,2.7164,2.6253,2.5511,2.4883,2.509,2.4629,2.3317,2.1429,1.8944,0.0,1.3729,1.1404,0.8724,0.8539,0.8798,0.932,0.9476,0.0,0.0,1.2004,1.3147,1.1263,0.0,0.0,1.4548,1.5702,1.9608,2.7547,2.6841,2.6204,2.6967,2.6405,2.6844,2.9041,2.9361,2.9602,3.0034,3.4377,3.5318,3.0037,3.6879,4.2741,4.3559,4.4526,4.515,4.5077,4.5904,4.6136,4.5004,4.4087,4.2894,4.1101,3.9986,3.9397,3.9538,4.0601,4.1371,4.0801,4.0452,4.0103,3.9367,3.8531,3.8091,3.8655,3.8187,3.7899,3.8374,3.8842,3.906,3.8986,3.9511,4.0097,4.1556,4.0193,3.725,3.6432,3.7073,3.7446,3.8209,3.9124,3.929,3.938,3.941,3.8056,3.6611,3.5092,3.3236,3.2839,3.364,3.4619,3.6338,3.8475,3.8571,3.9,3.9668,3.9301,3.8153,3.625,3.5829,3.5029,3.3902,3.3593,3.2552,3.0802,2.8226,2.7585,2.8938,3.1382,3.3749,3.5892,3.714,3.6755,3.4658,3.0893,2.8215,2.6929,2.6455,2.6239,2.6383,2.6856,2.6557,2.5316,2.3894,2.1825,1.8955,1.5814,1.1872,0.7057,0.7757,0.8429,0.8607,0.8769,0.889,0.9026,1.217,1.2749,0.9101,1.1667,1.3552,1.4066,1.6467,2.0995,2.8361,3.0139,3.0559,2.9748,3.0188,3.1047,3.1977,3.3177,3.4243,3.5078,3.9272,4.0518,3.6259,4.0993,4.4989,4.5518,4.5799,4.5993,4.603,4.6356,4.6461,4.6136,4.5332,4.4198,4.2709,4.2491,4.2367,4.2122,4.1913,4.1525,4.1365,4.1428,4.0889,3.9472,3.8547,3.786,3.7892,3.8679,3.9817,4.0603,4.0672,4.05,4.0203,4.0607,4.107,4.298,4.2216,4.165,4.12,4.0891,4.1622,4.2371,4.2994,4.2477,4.1783,4.098,3.9602,3.8213,3.6992,3.7382,3.7344,3.6991,3.8675,3.9349,3.9365,3.9945,4.0266,4.0319,3.9314,3.8707,3.8461,3.7431,3.6948,3.6877,3.6101,3.5113,3.3983,3.343,3.2481,3.1189,3.3683,3.5679,3.7077,3.7255,3.5849,3.2832,3.0708,2.8682,2.6763,2.638,2.6184,2.6173,2.6454,2.6317,2.5716,2.4328,2.3542,2.3493,1.7815,1.2253,0.7202,0.7781,0.8636,0.9261,0.947,0.9314,0.875,1.4173,1.5842,1.1833,1.5651,1.834,1.8463,1.9186,2.2988,3.1109,3.3365,3.3981,3.3091,3.2557,3.3738,3.7433,3.6711,3.6538,3.8099,4.0991,4.3286,4.4418,4.5207,4.6248,4.7807,4.7579,4.7025,4.6524,4.7787,4.8196,4.6791,4.6157,4.5281,4.3917,4.3278,4.286,4.2303,4.1693,4.1033,4.0567,4.0645,4.0194,3.8525,3.7867,3.7721,3.7892,3.8511,3.9401,4.0549,4.0871,4.0836,4.0758,4.0955,4.1093,4.4414,4.3836,4.4044,4.3771,4.316,4.3625,4.4049,4.4429,4.3866,4.3393,4.2971,4.1734,4.0692,3.9929,4.0586,4.0662,4.0367,4.1377,4.1633,4.1156,4.1184,4.1089,4.0861,3.9622,3.8973,3.8897,3.8004,3.7677,3.7895,3.7109,3.6534,3.6271,3.6327,3.5863,3.4868,3.6032,3.7218,3.8424,3.7136,3.5343,3.2949,3.077,2.8618,2.6598,2.586,2.5035,2.4129,2.4478,2.4478,2.4056,2.3113,2.3371,2.4871,1.923,1.448,1.1498,1.1095,1.1339,1.2233,1.336,1.3726,1.298,1.5753,1.681,1.5308,1.807,2.1563,2.5247,2.3705,2.5475,3.2775,3.5898,3.7338,3.6903,3.691,3.8249,4.148,4.075,4.0603,4.2129,4.3834,4.559,4.7147,4.6895,4.7447,4.9763,4.9686,4.8918,4.8179,4.8865,4.9125,4.8078,4.7587,4.665,4.4817,4.3476,4.2712,4.2473,4.1725,4.0868,4.0115,3.9622,3.899,3.7961,3.7436,3.7361,3.7716,3.8399,3.9401,4.05,4.0965,4.1012,4.1,4.114,4.1198,4.549,4.494,4.5069,4.4905,4.4558,4.4518,4.4617,4.4856,4.4417,4.4379,4.4591,4.3781,4.3239,4.29,4.2962,4.3044,4.3094,4.3179,4.3096,4.2826,4.2129,4.1607,4.1167,4.0075,3.9203,3.8579,3.8111,3.7925,3.7986,3.7411,3.7405,3.7902,3.7916,3.8216,3.8734,3.8251,3.846,3.9341,3.6997,3.511,3.3866,3.0911,2.84,2.6517,2.5195,2.3608,2.1819,2.2277,2.231,2.1731,2.1418,2.2221,2.4275,1.9933,1.7135,1.6724,1.5379,1.5034,1.6023,1.8075,1.9314,1.9124,1.8079,1.7716,1.8508,2.0387,2.4712,3.2276,2.8618,2.8274,3.4083,3.8023,4.0321,4.0441,4.1495,4.2758,4.4229,4.4528,4.4941,4.603,4.6975,4.7393,4.7043,4.7286,4.8611,5.0845,5.1138,5.0622,4.9901,4.9697,4.9672,4.9531,4.89,4.7519,4.5803,4.3973,4.2879,4.2925,4.2073,4.0925,3.9982,3.8836,3.7964,3.7774,3.7592,3.7524,3.7484,3.8464,3.9692,4.0666,4.1081,4.1337,4.1175,4.1279,4.138,4.5058,4.4575,4.4631,4.4695,4.4917,4.5217,4.5796,4.6391,4.5342,4.4524,4.3852,4.3967,4.4065,4.4195,4.4455,4.4233,4.3666,4.3731,4.3025,4.1743,4.2041,4.1632,4.0691,4.0585,4.0218,3.9624,3.9124,3.8783,3.8529,3.8521,3.8564,3.8703,3.9226,3.9779,4.0288,4.0106,3.9406,3.8288,3.7117,3.5593,3.3732,3.0817,2.8504,2.6947,2.4879,2.3336,2.2393,2.2519,2.2197,2.1373,2.133,2.1506,2.1867,1.9406,1.7765,1.7385,1.6601,1.6802,1.8333,1.9377,2.1256,2.4208,2.4345,2.3272,2.112,2.6238,3.1054,3.4036,3.1049,3.1255,3.6958,4.0041,4.1704,4.1765,4.2333,4.3565,4.5523,4.579,4.6246,4.7453,4.821,4.8199,4.7344,4.7891,4.9089,5.0433,5.0784,5.0751,5.0435,5.0403,5.0115,4.9217,4.8358,4.7595,4.7284,4.5805,4.4348,4.3654,4.2734,4.1548,4.007,3.8867,3.7897,3.7646,3.8591,3.8867,3.7524,3.8796,4.0294,4.0539,4.1449,4.1928,4.1279,4.137,4.1515,4.6133,4.5757,4.5192,4.506,4.5341,4.5421,4.5768,4.6209,4.5588,4.4786,4.3906,4.3911,4.4011,4.4221,4.4493,4.4436,4.4096,4.417,4.3701,4.2882,4.261,4.2053,4.1252,4.0656,4.0055,3.9469,3.9041,3.8856,3.8963,3.8812,3.8901,3.9326,3.967,4.0126,4.0581,4.0418,3.965,3.8201,3.7463,3.6044,3.3805,3.1477,2.9063,2.6632,2.4802,2.2927,2.1031,2.1094,2.0767,2.0002,2.021,2.0515,2.0823,2.0244,2.0504,2.1846,2.1386,2.1631,2.2941,2.3643,2.5183,2.7906,2.8963,2.7985,2.4418,2.9093,3.2858,3.4298,3.1579,3.1902,3.7175,4.0828,4.2735,4.252,4.3565,4.4949,4.614,4.68,4.7197,4.7699,4.8948,4.9588,4.9033,4.882,4.9257,5.0042,5.0285,5.0453,5.055,5.0647,5.0381,4.9959,4.9291,4.8596,4.8132,4.7325,4.5734,4.4042,4.2925,4.1741,3.9941,3.9425,3.8892,3.8021,3.8936,3.9652,3.8988,3.982,4.1042,4.1665,4.2285,4.2653,4.2237,4.2172,4.1981,4.7124,4.6766,4.5872,4.5606,4.5771,4.5528,4.544,4.558,4.5552,4.5022,4.4118,4.3797,4.3704,4.3786,4.3943,4.4095,4.4213,4.4242,4.4138,4.3922,4.3138,4.2451,4.1827,4.0739,3.9929,3.9425,3.8952,3.9119,3.9744,3.9328,3.9595,4.0274,4.0496,4.0623,4.0831,4.0631,3.9851,3.8569,3.7773,3.6332,3.4123,3.2013,2.9554,2.6592,2.4963,2.279,2.0064,2.0168,1.9928,1.9279,1.942,2.009,2.1301,2.1994,2.3648,2.6361,2.6232,2.6473,2.7539,2.811,2.9213,3.1009,3.2414,3.1737,2.8413,3.1182,3.3377,3.408,3.1896,3.2364,3.6821,4.0762,4.3107,4.2828,4.4446,4.5808,4.6408,4.7239,4.7512,4.7474,4.8968,5.0465,5.0535,4.9767,4.9346,4.978,4.9918,5.0034,5.0397,5.055,5.0624,5.057,5.0244,4.9815,4.8827,4.8127,4.6881,4.4464,4.3345,4.2128,4.056,4.0201,3.9838,3.8521,3.9313,3.9904,4.0123,4.0815,4.1866,4.3082,4.322,4.3168,4.3285,4.3131,4.2742,4.648,4.5947,4.581,4.6079,4.6515,4.5747,4.5375,4.5425,4.5409,4.4769,4.3804,4.3894,4.3687,4.3286,4.3458,4.3523,4.3523,4.3523,4.3085,4.2359,4.2774,4.2304,4.1121,4.1202,4.122,4.1096,4.0353,4.0646,4.1714,4.1526,4.1905,4.2832,4.3162,4.2987,4.261,4.2004,4.0849,3.9016,3.7455,3.6109,3.481,3.161,2.9372,2.807,2.5579,2.3674,2.2546,2.2515,2.2224,2.1559,2.0826,2.173,2.4568,2.4853,2.5733,2.7548,2.7331,2.7836,2.946,2.9968,3.1254,3.3705,3.4196,3.3805,3.2866,3.4659,3.5275,3.3909,3.3462,3.46,3.7248,3.9753,4.1752,4.2919,4.3871,4.488,4.6002,4.6605,4.6835,4.6637,4.7841,4.9124,4.9941,5.0098,4.9903,4.9639,4.959,4.9708,5.0057,5.0363,5.0509,5.0432,5.0376,4.9942,4.9107,4.8356,4.7374,4.5995,4.4449,4.2994,4.1527,4.0824,4.0238,3.9738,3.9977,4.0158,4.0155,4.133,4.2526,4.3597,4.3584,4.3376,4.3484,4.3631,4.363,4.7176,4.6586,4.6449,4.6504,4.6557,4.5637,4.5139,4.5035,4.5217,4.501,4.4503,4.43,4.4109,4.3989,4.4189,4.4266,4.4227,4.4266,4.3971,4.3412,4.3652,4.3166,4.2156,4.2218,4.2117,4.1902,4.1527,4.1644,4.2272,4.2466,4.2718,4.3178,4.336,4.3178,4.274,4.2146,4.13,4.0226,3.8509,3.6817,3.5112,3.2649,3.0839,2.9654,2.7229,2.5491,2.4576,2.4383,2.4306,2.427,2.3159,2.4102,2.7597,2.7843,2.8283,2.9167,2.9415,2.9691,3.0119,3.098,3.2173,3.3659,3.3651,3.3805,3.4151,3.538,3.5612,3.4411,3.3864,3.4506,3.6906,3.8975,4.0525,4.1469,4.3156,4.4498,4.5229,4.6067,4.6507,4.6358,4.6738,4.7728,4.924,4.9708,4.9767,4.935,4.9471,4.9767,4.9999,5.0285,5.0509,5.0544,5.0376,4.9976,4.9411,4.8736,4.7701,4.6388,4.4873,4.3421,4.207,4.111,4.043,4.0146,4.0737,4.0986,4.0379,4.1419,4.2714,4.3547,4.3689,4.3618,4.39,4.4232,4.4197,4.7854,4.7362,4.7046,4.6782,4.6518,4.5834,4.5354,4.5026,4.5418,4.5614,4.5565,4.4812,4.4546,4.4716,4.4936,4.5022,4.4943,4.4986,4.4856,4.4511,4.4279,4.3898,4.3542,4.322,4.3045,4.2942,4.2766,4.2888,4.3322,4.3613,4.3666,4.3614,4.3546,4.3374,4.294,4.2323,4.1806,4.1329,3.973,3.7824,3.5697,3.414,3.2637,3.1097,2.9222,2.774,2.6731,2.6503,2.6573,2.686,2.5947,2.6787,2.9955,3.0729,3.1006,3.0996,3.1351,3.1436,3.0949,3.1683,3.244,3.2869,3.275,3.3072,3.3983,3.4584,3.4865,3.4623,3.4234,3.4827,3.6787,3.8574,3.9807,4.0405,4.2561,4.4068,4.4378,4.5317,4.5944,4.587,4.5823,4.6397,4.7545,4.864,4.9168,4.9107,4.953,4.9884,5.0057,5.0285,5.0564,5.0655,5.0432,5.0034,4.9615,4.9012,4.8025,4.6618,4.5105,4.3685,4.2365,4.1264,4.0554,4.0462,4.1339,4.1756,4.0986,4.1655,4.2613,4.3113,4.329,4.3647,4.4282,4.4451,4.4565,4.7415,4.7702,4.7362,4.6912,4.6454,4.6739,4.6462,4.5951,4.6372,4.6748,4.6735,4.5337,4.4782,4.494,4.4962,4.501,4.5058,4.5022,4.4879,4.4565,4.3687,4.3802,4.4585,4.3946,4.4101,4.4889,4.4541,4.4936,4.6041,4.5796,4.567,4.5712,4.5063,4.4558,4.4148,4.3573,4.2861,4.1966,4.0591,3.8985,3.7291,3.5825,3.4204,3.2413,3.128,3.0265,2.9446,2.9387,2.9328,2.9303,2.9122,2.9783,3.1461,3.3305,3.3927,3.2904,3.2596,3.2464,3.2398,3.1945,3.1867,3.2313,3.2273,3.2241,3.2402,3.2332,3.2815,3.4129,3.5692,3.6559,3.7129,3.8691,4.0005,4.0719,4.2271,4.3359,4.3835,4.416,4.4527,4.478,4.506,4.5009,4.483,4.6848,4.8668,4.908,4.9411,4.9767,4.9825,5.0194,5.053,5.0675,5.0675,5.0376,4.9708,4.9229,4.8383,4.7275,4.5629,4.4045,4.2911,4.1581,4.0615,4.1033,4.133,4.1821,4.2109,4.2459,4.2333,4.2492,4.2867,4.3416,4.4064,4.4293,4.4372,4.816,4.7748,4.7637,4.7202,4.6651,4.6746,4.6477,4.5939,4.6274,4.6514,4.6591,4.6079,4.6109,4.6517,4.6569,4.6569,4.6569,4.6621,4.6464,4.6143,4.5726,4.5623,4.5679,4.5395,4.5387,4.5738,4.5503,4.5883,4.665,4.6828,4.6806,4.6681,4.6317,4.5862,4.5276,4.4948,4.4372,4.3558,4.274,4.1588,3.977,3.7115,3.5602,3.5132,3.365,3.2462,3.1954,3.1911,3.1905,3.1983,3.1388,3.2075,3.4284,3.4151,3.3841,3.3597,3.2689,3.2118,3.1924,3.1638,3.1447,3.1463,3.1873,3.1935,3.1675,3.2402,3.3836,3.5941,3.649,3.7004,3.8181,3.9786,4.0926,4.1341,4.2517,4.3582,4.4165,4.4406,4.4443,4.4238,4.4056,4.3779,4.3695,4.6208,4.8505,4.9168,4.953,4.9708,4.9825,5.0171,5.0341,5.0453,5.0397,5.0228,4.9825,4.9107,4.8386,4.7474,4.6086,4.4559,4.3409,4.1713,4.0746,4.1421,4.172,4.1851,4.1852,4.2238,4.2302,4.2302,4.2743,4.3416,4.3889,4.4006,4.4293,4.869,4.8175,4.8135,4.7777,4.7241,4.7241,4.6947,4.6647,4.7098,4.7191,4.7149,4.7625,4.7996,4.8343,4.8026,4.7773,4.7751,4.798,4.7912,4.7622,4.7393,4.72,4.7144,4.6915,4.6886,4.6991,4.7287,4.7637,4.797,4.8065,4.8012,4.769,4.7276,4.6716,4.6091,4.5844,4.5425,4.4805,4.4295,4.339,4.1908,3.9081,3.7547,3.7455,3.5828,3.4659,3.4162,3.4026,3.4038,3.4186,3.3462,3.3903,3.5667,3.4504,3.3763,3.3783,3.2702,3.1983,3.1831,3.1679,3.1484,3.1366,3.1859,3.2077,3.2075,3.2848,3.4776,3.7469,3.7592,3.8067,3.9068,4.0443,4.1265,4.1405,4.2506,4.3504,4.3904,4.4224,4.4316,4.3889,4.3388,4.3062,4.3651,4.6187,4.861,4.929,4.959,4.9767,4.9942,5.0114,5.0285,5.0397,5.0171,4.9942,4.9942,4.9073,4.8161,4.7341,4.618,4.4888,4.3876,4.2028,4.095,4.1686,4.2012,4.2174,4.2045,4.2238,4.2365,4.2429,4.2837,4.3487,4.4079,4.4164,4.4273,4.8377,4.9018,4.8785,4.8723,4.8868,4.8842,4.8698,4.8392,4.9253,4.9424,4.9193,4.9958,5.0459,5.0257,4.872,4.7988,4.815,4.8606,4.8787,4.8568,4.7838,4.8082,4.9354,4.8559,4.8559,4.9157,4.9854,5.0452,5.0713,5.0168,4.9531,4.8731,4.7838,4.6948,4.6167,4.5884,4.5659,4.5497,4.4622,4.3911,4.3459,4.1945,4.0347,3.8957,3.7852,3.6943,3.6279,3.576,3.5522,3.5522,3.5473,3.5336,3.4759,3.4785,3.4384,3.3562,3.2768,3.2524,3.2757,3.2287,3.2039,3.2236,3.2315,3.2648,3.3306,3.3217,3.4585,3.777,3.8925,3.9525,3.944,4.0117,4.0728,4.1043,4.2018,4.2689,4.267,4.3541,4.3798,4.3727,4.3056,4.3072,4.4431,4.6618,4.8286,4.9168,4.9471,4.9649,5.0034,5.0206,5.032,5.0467,5.0263,4.9825,4.9564,4.8923,4.8065,4.7404,4.6471,4.5016,4.3754,4.2663,4.2259,4.1914,4.2302,4.243,4.227,4.227,4.2397,4.2524,4.2935,4.353,4.4169,4.4909,4.515,4.9124,4.9133,4.8807,4.8885,4.9174,4.9316,4.9436,4.9618,4.9918,4.9918,4.9755,5.0123,5.029,5.0055,4.9427,4.9358,4.9715,4.9513,4.9519,4.9692,4.926,4.9293,4.9624,4.9288,4.922,4.9653,5.0157,5.0627,5.0725,5.0183,4.9584,4.8925,4.8129,4.7469,4.7045,4.6946,4.6684,4.6158,4.5766,4.5309,4.4561,4.3977,4.3008,4.1661,3.9971,3.873,3.803,3.7599,3.7313,3.6985,3.6722,3.642,3.6079,3.5105,3.4058,3.2983,3.2739,3.2708,3.2702,3.2463,3.2433,3.2724,3.3161,3.3502,3.3826,3.4239,3.5476,3.7702,3.8635,3.9003,3.9324,3.9817,4.0492,4.1137,4.204,4.2754,4.3085,4.3427,4.3595,4.3421,4.265,4.2555,4.4032,4.622,4.8065,4.9229,4.9411,4.953,4.9918,5.0149,5.0402,5.0863,5.046,5.0007,5.072,4.9351,4.8196,4.7699,4.6888,4.5934,4.4724,4.3918,4.3444,4.3231,4.3331,4.2912,4.288,4.2623,4.2686,4.259,4.3002,4.3742,4.4253,4.5032,4.5412,5.0153,4.991,4.9769,4.9715,4.9888,5.0105,5.0156,5.041,5.0537,5.0505,5.034,5.0542,5.057,5.0434,5.0199,5.0443,5.0852,5.0257,5.0191,5.0485,5.0449,5.0311,5.0208,5.0101,5.0063,5.0167,5.0575,5.0919,5.1127,5.0794,5.0126,4.9325,4.8761,4.8264,4.7898,4.7703,4.7407,4.7111,4.6881,4.6356,4.544,4.5244,4.4689,4.3456,4.1757,4.0355,3.9434,3.8965,3.8401,3.777,3.7367,3.6999,3.6446,3.5063,3.3683,3.2628,3.2826,3.2966,3.2812,3.2685,3.2883,3.3411,3.388,3.4285,3.4613,3.5135,3.6228,3.7413,3.8051,3.8294,3.86,3.9007,3.9701,4.0788,4.1794,4.2537,4.306,4.3307,4.329,4.2867,4.198,4.1929,4.3051,4.5372,4.7369,4.9006,4.9168,4.9411,4.986,5.0068,5.0426,5.1142,5.0548,5.0556,5.0856,5.0054,4.8862,4.8286,4.7238,4.6346,4.5859,4.5112,4.4673,4.4558,4.4302,4.3784,4.3396,4.3138,4.3009,4.2816,4.3364,4.414,4.4626,4.5145,4.5664,5.1216,5.147,5.1613,5.1334,5.1232,5.1177,5.1043,5.1041,5.1386,5.1499,5.1251,5.1605,5.1794,5.1663,5.1132,5.1026,5.1377,5.1034,5.0746,5.0713,5.0856,5.0928,5.0856,5.0883,5.0988,5.0988,5.1651,5.1954,5.2004,5.1806,5.1069,5.0076,4.9645,4.8981,4.8453,4.783,4.7765,4.7926,4.7463,4.6841,4.6155,4.5853,4.5291,4.4281,4.3182,4.1869,4.0413,3.969,3.8842,3.7903,3.7526,3.6816,3.5725,3.4574,3.3541,3.2946,3.3126,3.3259,3.3146,3.3105,3.3433,3.427,3.4482,3.4845,3.5678,3.5892,3.619,3.6788,3.725,3.7567,3.7685,3.7653,3.8405,4.0227,4.1122,4.1707,4.2377,4.2867,4.2867,4.2302,4.1323,4.0919,4.1939,4.4204,4.6573,4.8178,4.8923,4.935,4.9767,4.9976,5.0321,5.0848,5.0746,5.0652,5.0823,5.0824,4.978,4.8768,4.7523,4.6486,4.6397,4.5949,4.5516,4.5368,4.5691,4.5172,4.3975,4.3748,4.3453,4.3453,4.4035,4.4524,4.4915,4.5471,4.6289,5.1619,5.1801,5.1486,5.1805,5.2326,5.2029,5.2238,5.2866,5.3128,5.2986,5.2856,5.279,5.2734,5.2592,5.2211,5.2055,5.2202,5.2023,5.1629,5.093,5.0876,5.0843,5.0865,5.1177,5.1556,5.1739,5.175,5.1588,5.1252,5.0797,5.0204,4.9636,4.8946,4.8464,4.8237,4.759,4.7398,4.7424,4.7647,4.7475,4.7174,4.6962,4.6429,4.5515,4.4573,4.3403,4.2077,4.0587,3.9368,3.849,3.7406,3.6445,3.5533,3.4715,3.439,3.4483,3.397,3.3783,3.3771,3.3486,3.3785,3.4674,3.4701,3.5159,3.6362,3.6753,3.679,3.6654,3.6753,3.6907,3.7058,3.6937,3.7739,3.9664,4.0391,4.1128,4.188,4.2443,4.2427,4.1851,4.1055,4.0646,4.1372,4.3587,4.6218,4.8085,4.8798,4.9229,4.9649,4.9952,5.0355,5.0935,5.0803,5.0875,5.1329,5.1181,5.0091,4.9401,4.8345,4.7293,4.7141,4.6705,4.6334,4.6209,4.6496,4.6099,4.4934,4.4249,4.4081,4.4013,4.4405,4.4765,4.5126,4.5749,4.654,5.2178,5.2333,5.2168,5.2397,5.2924,5.263,5.2961,5.3738,5.3693,5.3616,5.3506,5.3383,5.3147,5.2989,5.2717,5.2475,5.2394,5.2313,5.1787,5.1152,5.1192,5.1077,5.0839,5.1115,5.1385,5.1508,5.1353,5.0973,5.057,5.0153,4.9757,4.9297,4.8859,4.8587,4.8634,4.8161,4.7837,4.7987,4.8181,4.8207,4.7919,4.7805,4.7362,4.6634,4.5384,4.433,4.3406,4.1696,4.017,3.9014,3.7496,3.616,3.5222,3.4955,3.5115,3.519,3.4691,3.4122,3.403,3.3722,3.3994,3.4971,3.491,3.5336,3.6537,3.7029,3.6846,3.6352,3.6163,3.6413,3.6909,3.7124,3.7839,3.9471,3.9998,4.0691,4.1526,4.2012,4.2142,4.1752,4.1278,4.1472,4.2723,4.4003,4.6385,4.8022,4.8736,4.9046,4.9445,4.9983,5.0506,5.0967,5.1128,5.1526,5.2196,5.1531,5.0391,4.9854,4.9352,4.8519,4.8015,4.7232,4.6633,4.6633,4.686,4.6448,4.5373,4.5101,4.4827,4.4827,4.47,4.5031,4.5432,4.5897,4.6491,5.2838,5.3092,5.3311,5.3259,5.3134,5.3085,5.3276,5.3656,5.3531,5.3596,5.3688,5.3549,5.3326,5.3102,5.2989,5.2663,5.2144,5.2104,5.178,5.1486,5.1501,5.1389,5.0927,5.0863,5.0753,5.0579,5.0579,5.042,5.0058,5.0041,4.9896,4.9356,4.9317,4.9544,4.9447,4.9176,4.8982,4.9158,4.9038,4.873,4.8435,4.8211,4.789,4.7612,4.5739,4.4617,4.4127,4.2545,4.0932,3.9439,3.7682,3.6241,3.5175,3.5468,3.5659,3.5353,3.4733,3.4355,3.4061,3.394,3.4304,3.5125,3.5187,3.5615,3.6384,3.6476,3.6226,3.5782,3.5524,3.5963,3.6996,3.7785,3.8611,3.9627,3.9942,4.0515,4.15,4.1623,4.1654,4.1849,4.1893,4.2435,4.4559,4.5502,4.6814,4.7958,4.861,4.8889,4.9304,4.9888,5.0543,5.1099,5.1555,5.1799,5.234,5.2163,5.1145,5.0843,5.0378,4.9716,4.8739,4.7761,4.735,4.7318,4.7119,4.6641,4.6127,4.5754,4.5286,4.4921,4.4993,4.5294,4.5627,4.6032,4.634,5.3679,5.3787,5.3533,5.3668,5.3911,5.3661,5.392,5.4452,5.4402,5.4388,5.437,5.4205,5.4026,5.4007,5.3724,5.3566,5.3215,5.3161,5.2394,5.1496,5.1414,5.1309,5.0861,5.0309,4.9977,4.9977,4.9915,4.9708,4.9322,4.9501,4.9567,4.9726,4.9374,4.9381,4.948,4.8936,4.8615,4.8797,4.8955,4.8866,4.8713,4.8403,4.7965,4.7247,4.6005,4.4941,4.4035,4.2443,4.0642,3.8915,3.777,3.7201,3.6983,3.6125,3.539,3.494,3.4817,3.4807,3.4763,3.4442,3.4658,3.5262,3.5087,3.5087,3.5752,3.5812,3.5554,3.5198,3.4898,3.5237,3.6616,3.803,3.8943,3.91,3.9708,4.0355,4.0764,4.0987,4.1055,4.1319,4.148,4.2382,4.3489,4.5179,4.6682,4.7832,4.8356,4.8677,4.9164,4.9796,5.0507,5.163,5.22,5.2179,5.2309,5.2281,5.2094,5.1862,5.1417,5.0884,4.9692,4.8394,4.8334,4.847,4.8069,4.7626,4.6869,4.6285,4.575,4.5374,4.5478,4.5709,4.5792,4.6031,4.6247,5.3758,5.3985,5.3745,5.3978,5.4348,5.4134,5.423,5.4549,5.4613,5.4613,5.4444,5.4242,5.404,5.3985,5.3608,5.3377,5.3144,5.3055,5.2445,5.1739,5.1221,5.0691,5.0151,4.9594,4.9387,4.9189,4.9251,4.9088,4.8862,4.8965,4.9178,4.947,4.9442,4.9487,4.9642,4.9337,4.9082,4.9133,4.9219,4.9206,4.8968,4.8698,4.8302,4.7614,4.6597,4.5384,4.3998,4.2452,4.0821,3.9168,3.826,3.7965,3.7832,3.6662,3.5668,3.527,3.5185,3.5213,3.5296,3.4925,3.4842,3.508,3.4942,3.5066,3.5335,3.5359,3.5096,3.4735,3.4496,3.5058,3.6259,3.8031,3.8937,3.8889,3.9354,3.9879,4.0121,4.0301,4.0509,4.0876,4.1403,4.2002,4.259,4.4691,4.6389,4.7605,4.8163,4.8559,4.912,4.9787,5.0493,5.1486,5.2302,5.2368,5.2346,5.2294,5.2202,5.2029,5.166,5.1257,5.0295,4.9011,4.8985,4.9017,4.8887,4.8479,4.7604,4.6929,4.6674,4.6398,4.6241,4.6178,4.6253,4.6147,4.6307,5.3584,5.3789,5.3931,5.4071,5.421,5.4242,5.4094,5.4125,5.4071,5.3985,5.3813,5.3608,5.3346,5.3201,5.2815,5.2487,5.2276,5.1972,5.1698,5.1122,5.0455,4.9543,4.8837,4.8951,4.8806,4.8661,4.853,4.8469,4.8521,4.8521,4.8718,4.8965,4.9309,4.9582,4.9647,4.9773,4.9947,4.9663,4.9504,4.9247,4.8841,4.8646,4.8358,4.7751,4.6728,4.547,4.408,4.2685,4.1227,3.9402,3.9024,3.8437,3.7634,3.6921,3.6556,3.6245,3.5739,3.5514,3.58,3.5427,3.5141,3.5296,3.5267,3.5126,3.5323,3.5103,3.4919,3.4766,3.4448,3.5175,3.6629,3.8164,3.8944,3.9017,3.9017,3.918,3.9589,3.9817,4.0041,4.0462,4.1348,4.2202,4.3259,4.4492,4.6209,4.7071,4.7704,4.8299,4.8895,4.9625,5.0274,5.101,5.1782,5.2476,5.2423,5.2267,5.214,5.1932,5.1455,5.1005,5.053,4.9733,4.9556,4.9458,4.917,4.8743,4.806,4.7617,4.7355,4.6982,4.6516,4.6749,4.6967,4.664,4.6578,5.3465,5.3496,5.329,5.329,5.3258,5.3082,5.2905,5.2815,5.2726,5.2726,5.2426,5.2336,5.2245,5.2245,5.2094,5.1911,5.1697,5.1151,5.0276,4.8984,4.8295,4.7818,4.7602,4.8196,4.8377,4.8226,4.792,4.7964,4.8133,4.8301,4.8469,4.8718,4.88,4.8965,4.9241,4.921,4.9241,4.9159,4.9047,4.8769,4.8469,4.8271,4.789,4.7183,4.6047,4.4935,4.3867,4.296,4.1705,4.0281,3.9349,3.8587,3.7353,3.6779,3.658,3.6495,3.6037,3.5755,3.6083,3.605,3.6043,3.6153,3.6045,3.6005,3.505,3.5001,3.5127,3.5136,3.4917,3.5654,3.7539,3.8727,3.9141,3.9179,3.9188,3.9304,3.9673,3.9934,3.9934,4.0148,4.1321,4.3055,4.4693,4.4819,4.5859,4.6555,4.7257,4.7893,4.8617,4.9337,4.9953,5.0627,5.1019,5.1706,5.2108,5.2092,5.225,5.1871,5.1308,5.0946,5.0448,5.0349,5.0176,4.9821,4.9395,4.8874,4.831,4.7808,4.7398,4.7071,4.6806,4.6868,4.6911,4.6823,4.6915,5.2476,5.2157,5.2479,5.2452,5.2267,5.2334,5.2185,5.2033,5.1941,5.1849,5.1542,5.1449,5.1356,5.1356,5.1263,5.1199,5.0952,5.059,4.9991,4.9212,4.8706,4.829,4.7967,4.8028,4.803,4.7555,4.7314,4.7309,4.7624,4.7794,4.7964,4.8301,4.8385,4.8552,4.8635,4.8552,4.8552,4.8552,4.8301,4.8049,4.7794,4.7624,4.7036,4.6326,4.5395,4.4494,4.3416,4.2738,4.1539,4.0294,3.9534,3.858,3.7344,3.695,3.6929,3.6549,3.6087,3.59,3.6139,3.6028,3.5942,3.6283,3.6328,3.6067,3.5711,3.5594,3.5648,3.584,3.5821,3.6325,3.7606,3.8496,3.8762,3.8517,3.8574,3.8688,3.8967,3.9547,4.0106,4.0278,4.146,4.3149,4.4402,4.483,4.5246,4.5801,4.6813,4.749,4.8264,4.8932,4.948,4.9992,5.0264,5.0799,5.1497,5.1956,5.2394,5.1925,5.1205,5.0888,5.05,5.0547,5.0723,5.0058,4.939,4.9004,4.8488,4.8009,4.764,4.7558,4.7354,4.7058,4.6875,4.6823,4.7067,5.106,5.0468,5.1332,5.1394,5.0939,5.1151,5.1146,5.102,5.1075,5.0822,5.0728,5.0508,5.022,5.0316,5.0154,5.0124,4.9764,4.9552,4.8923,4.8552,4.837,4.805,4.7852,4.7444,4.6978,4.6402,4.6609,4.6844,4.7106,4.7222,4.7366,4.7709,4.7934,4.7934,4.7934,4.7849,4.7849,4.7964,4.7624,4.7366,4.7193,4.6931,4.6255,4.5669,4.5259,4.4414,4.3343,4.2453,4.1423,3.9957,3.9591,3.8727,3.7808,3.733,3.7146,3.6353,3.6009,3.6046,3.6268,3.608,3.5918,3.5951,3.6082,3.6253,3.6515,3.6518,3.6327,3.6344,3.6437,3.6632,3.6629,3.7566,3.7978,3.7805,3.7681,3.7873,3.8243,3.9292,3.9923,4.0578,4.141,4.2731,4.3684,4.4235,4.4586,4.5117,4.6107,4.7003,4.7731,4.8396,4.8765,4.9313,4.9634,5.0486,5.1282,5.1698,5.2162,5.1636,5.0925,5.059,5.0195,5.0021,4.9884,4.9852,4.939,4.8872,4.8543,4.811,4.7973,4.7964,4.7576,4.6917,4.6736,4.6819,4.6849,4.9494,4.9194,4.9191,4.9038,4.8761,4.8822,4.8827,4.8557,4.8989,4.8852,4.8753,4.8581,4.8653,4.8653,4.8553,4.807,4.7824,4.7738,4.7195,4.667,4.6461,4.6346,4.6289,4.6052,4.5538,4.5499,4.5956,4.6491,4.658,4.6697,4.6756,4.6844,4.6931,4.7019,4.7163,4.7076,4.7076,4.7193,4.6931,4.6756,4.658,4.6284,4.581,4.5428,4.5191,4.4378,4.3398,4.2644,4.1751,4.017,3.9944,3.9463,3.8718,3.7896,3.6797,3.606,3.6001,3.6156,3.6341,3.6598,3.6718,3.7053,3.694,3.7053,3.73,3.7291,3.6835,3.6515,3.6452,3.6656,3.6784,3.7407,3.8206,3.8601,3.8773,3.8913,3.8933,3.9129,3.9591,4.0142,4.1122,4.1884,4.2651,4.3349,4.3849,4.4358,4.5187,4.6066,4.692,4.7449,4.7836,4.843,4.8959,5.0033,5.1138,5.1539,5.1817,5.1145,5.0472,4.991,4.9528,4.9171,4.8944,4.8965,4.8852,4.8521,4.8187,4.8049,4.7794,4.7452,4.7006,4.6586,4.6226,4.5867,4.541,4.7624,4.719,4.7462,4.7362,4.703,4.7166,4.7162,4.7149,4.7617,4.78,4.7813,4.7909,4.8078,4.8078,4.8078,4.7785,4.7362,4.7207,4.6841,4.6433,4.6307,4.6083,4.5757,4.5464,4.525,4.5157,4.543,4.5595,4.5837,4.5956,4.6046,4.6225,4.6314,4.6491,4.6491,4.6403,4.6491,4.6403,4.6225,4.6046,4.5956,4.5595,4.5269,4.471,4.4476,4.3698,4.2406,4.1798,4.0935,3.987,3.9256,3.9135,3.8695,3.7659,3.6197,3.5386,3.5494,3.5764,3.5899,3.6058,3.6243,3.6373,3.6665,3.6772,3.6934,3.6929,3.6822,3.6377,3.6325,3.6197,3.5637,3.6586,3.7022,3.7087,3.7758,3.8132,3.8086,3.8299,3.8851,3.9532,4.0435,4.1085,4.1478,4.217,4.29,4.3638,4.4304,4.516,4.6062,4.661,4.7098,4.7607,4.814,4.8745,4.9764,5.0306,5.0727,5.0336,4.9793,4.9186,4.8814,4.8408,4.8194,4.8133,4.7964,4.7794,4.788,4.7764,4.7366,4.6872,4.6426,4.5895,4.5361,4.4857,4.4519,4.5742,4.5224,4.5912,4.5836,4.543,4.5705,4.5888,4.6,4.6433,4.6684,4.6768,4.7131,4.7253,4.7382,4.7354,4.727,4.7242,4.68,4.655,4.62,4.6072,4.6072,4.5841,4.5453,4.4761,4.4303,4.4244,4.4397,4.4954,4.5138,4.5293,4.5384,4.5656,4.5747,4.5776,4.5685,4.5776,4.5776,4.5595,4.5321,4.5138,4.4897,4.4358,4.3361,4.325,4.2572,4.1349,4.0776,4.0033,3.9195,3.8585,3.837,3.8405,3.709,3.5738,3.4853,3.4944,3.5059,3.5141,3.5359,3.5629,3.571,3.5871,3.6031,3.6111,3.627,3.6163,3.5871,3.5817,3.5628,3.4839,3.5327,3.5734,3.5878,3.6225,3.6677,3.7053,3.7378,3.7978,3.8801,3.9706,4.0343,4.0859,4.1453,4.2286,4.3148,4.3856,4.4549,4.5406,4.5917,4.6423,4.6785,4.7197,4.7483,4.8038,4.8488,4.8845,4.8942,4.8443,4.7971,4.7878,4.7774,4.7598,4.7452,4.6989,4.6814,4.7076,4.7249,4.6726,4.6197,4.5756,4.5286,4.4672,4.4225,4.3803,4.4227,4.4143,4.4283,4.416,4.3931,4.4221,4.4425,4.4508,4.4884,4.5002,4.5267,4.5165,4.5302,4.5356,4.543,4.492,4.4648,4.4675,4.462,4.4402,4.4058,4.3949,4.3487,4.3074,4.3264,4.3296,4.3009,4.3478,4.4115,4.4209,4.4303,4.4583,4.449,4.4397,4.4769,4.4954,4.4982,4.4982,4.489,4.449,4.3965,4.3871,4.3436,4.2931,4.2331,4.1637,4.0599,4.0049,3.9382,3.8448,3.8225,3.7811,3.7236,3.6813,3.6134,3.5519,3.5141,3.503,3.4861,3.511,3.5248,3.5274,3.5493,3.5898,3.5925,3.5574,3.5354,3.571,3.5439,3.4914,3.4426,3.45,3.5183,3.5688,3.5949,3.6362,3.6607,3.6785,3.7428,3.773,3.8549,3.9618,4.043,4.1,4.1681,4.2625,4.3401,4.4008,4.4472,4.5024,4.5488,4.583,4.5723,4.6024,4.6346,4.6727,4.7059,4.7268,4.7114,4.6865,4.6933,4.6962,4.6903,4.6668,4.6195,4.6195,4.6726,4.6638,4.6106,4.5576,4.5051,4.4618,4.4066,4.3598,4.3089,4.2555,4.2873,4.2555,4.2431,4.2387,4.2457,4.2877,4.3252,4.3814,4.4269,4.472,4.5042,4.5177,4.5016,4.5177,4.5173,4.4824,4.4291,4.4232,4.3674,4.346,4.3325,4.3479,4.2984,4.2797,4.2591,4.2476,4.2484,4.3067,4.3478,4.3669,4.3737,4.3926,4.4115,4.4021,4.4237,4.4209,4.4115,4.3832,4.3546,4.3259,4.3012,4.2683,4.1973,4.1191,4.0346,3.9506,3.8806,3.8346,3.752,3.7246,3.7013,3.6638,3.5917,3.4791,3.4711,3.4641,3.4547,3.4461,3.4751,3.4894,3.4894,3.5094,3.5349,3.5517,3.55,3.4762,3.4199,3.5136,3.4958,3.4283,3.4171,3.4503,3.4939,3.5473,3.5858,3.6073,3.6546,3.6828,3.7108,3.7505,3.8538,3.9523,4.0138,4.0924,4.2293,4.2803,4.3174,4.3554,4.3778,4.4265,4.4724,4.4461,4.4316,4.4618,4.4948,4.525,4.5496,4.5759,4.5637,4.5974,4.5982,4.5985,4.5866,4.5475,4.5747,4.6373,4.6048,4.545,4.4862,4.4338,4.3827,4.3285,4.268,4.2324,4.1097,4.1571,4.1372,4.1272,4.1272,4.1272,4.1607,4.2255,4.265,4.3383,4.4069,4.4518,4.4678,4.4493,4.4281,4.4069,4.4203,4.3912,4.3753,4.3568,4.3254,4.291,4.2699,4.2515,4.244,4.2594,4.2198,4.2087,4.2179,4.2565,4.2873,4.297,4.3259,4.3451,4.3546,4.3642,4.3642,4.3614,4.3163,4.2776,4.2484,4.2164,4.1523,4.0728,3.9834,3.8999,3.8075,3.7441,3.7041,3.6564,3.6243,3.6193,3.6286,3.5454,3.4255,3.4059,3.4074,3.4385,3.4363,3.4451,3.4663,3.4648,3.4735,3.5011,3.5188,3.5486,3.5108,3.3449,3.4208,3.4512,3.4246,3.3993,3.4048,3.4341,3.4631,3.5041,3.5453,3.5982,3.6483,3.6767,3.71,3.7484,3.8333,3.8962,4.0187,4.1707,4.2301,4.2479,4.2575,4.2671,4.2903,4.3369,4.3272,4.3036,4.3285,4.3478,4.3671,4.3835,4.4199,4.4546,4.4826,4.5103,4.5258,4.5046,4.4769,4.5018,4.5475,4.5178,4.4761,4.385,4.3125,4.289,4.2417,4.1938,4.1789,4.0185,4.0262,4.0971,4.1272,4.1272,4.1272,4.1298,4.1481,4.1481,4.2,4.2808,4.2729,4.2574,4.2027,4.221,4.203,4.1412,4.1204,4.1464,4.1234,4.0747,4.1105,4.1208,4.1466,4.1544,4.1647,4.1671,4.18,4.1722,4.1755,4.2047,4.2164,4.2457,4.2289,4.2484,4.2776,4.297,4.2873,4.2484,4.1993,4.1471,4.1019,4.0385,3.9321,3.8464,3.7739,3.6895,3.6422,3.5982,3.5573,3.5571,3.5639,3.5784,3.5248,3.4287,3.3642,3.4168,3.4303,3.4145,3.4535,3.4844,3.459,3.459,3.4933,3.512,3.4056,3.3408,3.3458,3.4089,3.3906,3.3766,3.3568,3.3598,3.3796,3.4115,3.4552,3.5064,3.5697,3.6205,3.6443,3.6714,3.6989,3.7546,3.8204,3.8582,4.006,4.1255,4.1386,4.1591,4.169,4.1815,4.202,4.1921,4.1948,4.2199,4.2396,4.2787,4.2982,4.3287,4.3546,4.3832,4.4087,4.4397,4.4209,4.3926,4.4303,4.447,4.4096,4.3574,4.2537,4.2003,4.2043,4.184,4.1426,4.1566,3.9243,3.9672,3.975,3.9955,4.0287,4.0287,4.0568,4.1055,4.1106,4.1518,4.232,4.2242,4.2138,4.1854,4.1828,4.1828,4.1673,4.1338,4.1158,4.0978,4.0747,4.0542,4.0696,4.1132,4.1544,4.144,4.1544,4.1647,4.1467,4.1181,4.1075,4.1198,4.1696,4.2065,4.219,4.1993,4.1895,4.1696,4.1398,4.0896,4.0567,3.9905,3.9166,3.8438,3.7185,3.6642,3.6251,3.5767,3.5376,3.5083,3.5256,3.5332,3.526,3.4848,3.4126,3.3387,3.4198,3.4126,3.398,3.4582,3.4944,3.5036,3.5161,3.5278,3.5057,3.4685,3.4096,3.4102,3.4292,3.4314,3.3099,3.2969,3.2946,3.3338,3.3754,3.4093,3.4681,3.5274,3.5745,3.5843,3.613,3.6464,3.6944,3.7494,3.7825,3.8324,3.9488,4.0389,4.0593,4.0745,4.0821,4.0997,4.0997,4.1198,4.155,4.1723,4.1921,4.219,4.2387,4.2652,4.2846,4.3163,4.3355,4.319,4.319,4.3451,4.3421,4.3045,4.2416,4.1447,4.1305,4.146,4.1207,4.0969,4.1256,3.8428,3.9025,3.8736,3.8945,3.9362,3.949,3.9794,4.0304,4.0408,4.0765,4.1486,4.1872,4.1868,4.1792,4.1894,4.1813,4.1554,4.1326,4.1203,4.0844,4.054,4.0363,4.0593,4.1132,4.1567,4.1439,4.1646,4.1697,4.1311,4.0773,4.0644,4.0795,4.1198,4.1471,4.1498,4.1298,4.0896,4.0593,4.0389,3.9878,3.9544,3.9104,3.8129,3.7484,3.6534,3.5963,3.5647,3.5294,3.5058,3.4863,3.4869,3.4999,3.4817,3.4412,3.3956,3.3932,3.3957,3.3982,3.3838,3.4197,3.4621,3.4711,3.4711,3.4725,3.4835,3.504,3.4221,3.3377,3.4362,3.4605,3.2544,3.224,3.2316,3.2632,3.3118,3.3481,3.4154,3.475,3.502,3.5277,3.5582,3.5898,3.5805,3.626,3.6946,3.7392,3.8442,3.9343,3.9669,3.9772,3.9903,4.0083,4.0287,4.0593,4.0896,4.1097,4.1298,4.1298,4.1597,4.1796,4.2092,4.2289,4.2484,4.2484,4.2484,4.2582,4.2614,4.2439,4.1518,4.0455,4.0692,4.1151,4.1018,4.0785,4.094,3.7678,3.8396,3.8396,3.8502,3.8841,3.8841,3.9074,3.9461,3.9565,3.9719,4.0127,4.1094,4.1271,4.0832,4.1084,4.1285,4.1121,4.0989,4.0814,4.0439,4.034,4.0095,4.035,4.0913,4.158,4.1304,4.1613,4.1821,4.1386,4.0874,4.0671,4.0466,4.0619,4.067,4.0517,4.0517,4.0415,4.0083,3.9955,3.9337,3.8607,3.8291,3.7369,3.6685,3.611,3.5643,3.5317,3.5086,3.4832,3.4475,3.468,3.4713,3.4551,3.451,3.431,3.4347,3.417,3.3767,3.3109,3.3693,3.3959,3.4126,3.4221,3.3929,3.401,3.4039,3.3672,3.2577,3.3147,3.3047,3.2037,3.1343,3.156,3.1858,3.2323,3.2862,3.3426,3.4151,3.4487,3.4653,3.5075,3.5421,3.5001,3.4934,3.5831,3.653,3.7605,3.816,3.8575,3.8753,3.8841,3.9154,3.9362,3.9775,4.0083,4.0491,4.0694,4.0593,4.0795,4.1097,4.1198,4.1398,4.1597,4.1597,4.1696,4.1796,4.1993,4.2065,4.1232,4.0675,4.067,4.0854,4.0732,4.0597,4.059,3.6549,3.7573,3.7445,3.7661,3.8267,3.8945,3.9154,3.9362,3.949,3.9594,3.9747,4.0253,4.0278,4.0174,4.0551,4.0771,4.0689,4.0823,4.0699,4.0649,4.0384,4.0335,4.0492,4.1114,4.1597,4.1572,4.189,4.2081,4.1954,4.1246,4.0883,4.0727,4.0375,3.9919,4.0002,4.0002,3.9865,3.9099,3.8712,3.8291,3.7548,3.7227,3.6811,3.6087,3.5619,3.5397,3.5313,3.5215,3.4812,3.4502,3.4841,3.4749,3.4739,3.4783,3.4899,3.4624,3.4404,3.3993,3.3461,3.3459,3.3707,3.3785,3.3764,3.3718,3.4006,3.362,3.2796,3.1905,3.1936,3.1732,3.1219,3.0266,3.0203,3.0706,3.1254,3.187,3.2533,3.3396,3.3898,3.4009,3.4379,3.4602,3.4447,3.3957,3.4558,3.5356,3.6302,3.6944,3.7382,3.7619,3.7761,3.821,3.8502,3.8841,3.9258,3.9337,3.975,3.9955,4.0185,4.0491,4.0593,4.0593,4.0795,4.0896,4.0997,4.1097,4.1198,4.1398,4.1398,4.1156,4.0701,4.0415,4.0329,4.015,4.0046,3.5412,3.6502,3.6611,3.6977,3.7709,3.8533,3.905,3.9258,3.9594,3.9697,3.9747,3.9873,4.0023,4.0174,4.0501,4.0696,4.0639,4.1031,4.0947,4.0972,4.0794,4.0646,4.0854,4.126,4.1504,4.1679,4.1923,4.2032,4.1922,4.148,4.1171,4.0856,4.04,4.0104,3.9865,3.9537,3.9259,3.8615,3.8297,3.7774,3.7176,3.6633,3.6277,3.5836,3.5504,3.5282,3.555,3.5459,3.5165,3.5075,3.5114,3.5192,3.5267,3.5373,3.5502,3.5213,3.4518,3.4093,3.3608,3.317,3.33,3.3155,3.3446,3.3568,3.3568,3.3132,3.2252,3.1424,3.1137,3.0827,3.0412,2.9363,2.9226,2.9835,3.0483,3.1215,3.1684,3.2529,3.2839,3.3014,3.3135,3.3423,3.3754,3.3367,3.3254,3.4155,3.5024,3.5598,3.6145,3.6472,3.6688,3.7012,3.7441,3.7761,3.7974,3.808,3.8502,3.9129,3.944,3.9672,3.9672,3.9672,3.9981,4.0185,4.0491,4.0593,4.0593,4.0694,4.0818,4.0676,4.0132,3.9986,3.9894,3.9752,3.9543,3.4485,3.5178,3.6028,3.653,3.6939,3.8,3.8792,3.9362,3.9594,3.9697,3.9722,4.0199,4.0275,4.0501,4.1003,4.0989,4.0923,4.1395,4.1285,4.1052,4.1029,4.0967,4.0917,4.115,4.1285,4.1538,4.1722,4.1898,4.1695,4.1572,4.133,4.1037,4.093,4.0355,3.9782,3.9296,3.8863,3.8431,3.8119,3.7637,3.7026,3.658,3.6223,3.5911,3.5711,3.5866,3.6022,3.5972,3.5808,3.5848,3.5871,3.5972,3.6079,3.6241,3.6225,3.5688,3.4703,3.4004,3.3499,3.3106,3.2667,3.242,3.2566,3.2667,3.2566,3.2465,3.1863,3.1059,3.0684,3.0308,2.9846,2.92,2.873,2.9293,2.9899,3.0398,3.0863,3.1351,3.1539,3.1572,3.1728,3.1973,3.2517,3.2416,3.1815,3.2706,3.348,3.4134,3.4803,3.5598,3.5708,3.5708,3.6145,3.658,3.6688,3.6904,3.7441,3.8056,3.8291,3.8526,3.8631,3.8921,3.9233,3.9544,3.9955,4.0185,4.0185,4.0287,4.0462,4.0119,3.9849,3.9564,3.96,3.9401,3.9194,3.3977,3.462,3.509,3.5679,3.6367,3.7643,3.8704,3.9569,3.9697,3.9697,3.9697,3.9848,3.9998,3.9973,4.0501,4.0714,4.0972,4.1225,4.1422,4.1359,4.1125,4.0842,4.0721,4.0709,4.0881,4.1164,4.1558,4.1953,4.2349,4.2127,4.1657,4.1443,4.1086,4.0419,3.997,3.9465,3.8951,3.8477,3.8248,3.7688,3.713,3.6748,3.6365,3.6117,3.6027,3.6252,3.6746,3.6291,3.6196,3.6599,3.5908,3.5836,3.6572,3.7026,3.7216,3.5955,3.4843,3.3856,3.3368,3.2848,3.2364,3.1878,3.1753,3.1732,3.1834,3.1797,3.1478,3.0811,3.0364,3.0105,2.9232,2.8552,2.8157,2.8439,2.893,2.924,2.9623,2.9891,3.0065,3.0371,3.0403,3.0589,3.1147,3.071,3.0371,3.1261,3.2018,3.2685,3.3346,3.4267,3.4825,3.4825,3.4958,3.5378,3.573,3.584,3.6472,3.7012,3.7251,3.7548,3.7926,3.8218,3.8582,3.8921,3.944,3.9672,3.9903,4.0007,4.021,4.0158,3.9848,3.9544,3.9207,3.9017,3.8754,3.365,3.4129,3.4955,3.5718,3.6518,3.7497,3.8457,3.9166,3.9597,3.9697,3.9697,3.9722,3.9697,3.9823,4.017,4.0383,4.06,4.104,4.1286,4.1359,4.1144,4.1169,4.0862,4.058,4.095,4.1296,4.1506,4.1854,4.2375,4.2312,4.1923,4.1509,4.1015,4.0626,4.0344,4.0063,3.958,3.9051,3.8478,3.7883,3.752,3.7178,3.6838,3.6634,3.6544,3.6974,3.7474,3.6835,3.6901,3.7077,3.62,3.6059,3.6688,3.7227,3.7228,3.6015,3.5235,3.437,3.3786,3.2819,3.2185,3.1538,3.1016,3.0703,3.0909,3.0952,3.0559,3.0003,3.0174,2.9959,2.879,2.7771,2.7642,2.7529,2.7596,2.7791,2.8046,2.8264,2.8652,2.91,2.9241,2.94,2.9269,2.8899,2.8913,2.9928,3.0859,3.1536,3.2227,3.314,3.3706,3.3952,3.4065,3.4289,3.4513,3.4736,3.5268,3.5708,3.595,3.6363,3.7026,3.7477,3.7631,3.8185,3.8816,3.9154,3.9362,3.9775,4.0007,3.9829,3.9677,3.9363,3.8962,3.8678,3.8423,3.3526,3.3594,3.5224,3.6179,3.71,3.7412,3.7873,3.846,3.9187,3.9594,3.9594,3.9697,3.9644,3.974,3.9904,4.0145,4.0483,4.0955,4.1174,4.1261,4.1281,4.1177,4.1087,4.1233,4.0959,4.1314,4.1598,4.159,4.1899,4.1972,4.1859,4.1606,4.1444,4.1052,4.0683,4.0636,4.0287,3.9616,3.9195,3.8617,3.816,3.7678,3.7428,3.7405,3.7291,3.7359,3.8044,3.7996,3.7788,3.7414,3.6841,3.6432,3.6603,3.6796,3.6517,3.6177,3.5428,3.4638,3.3682,3.2796,3.1949,3.1253,3.058,3.0096,3.0201,3.0454,3.0075,2.9311,2.9211,2.8959,2.8031,2.727,2.7024,2.687,2.6822,2.6973,2.7052,2.7246,2.7452,2.7804,2.8217,2.8387,2.8651,2.8443,2.8689,2.9257,2.9686,3.0509,3.0956,3.1767,3.2342,3.2799,3.2934,3.3048,3.3254,3.3593,3.3931,3.4289,3.4736,3.5179,3.5881,3.634,3.6712,3.7334,3.808,3.8607,3.8945,3.9233,3.9365,3.9575,3.9399,3.9144,3.8907,3.8589,3.8298,3.2498,3.2893,3.4016,3.5305,3.6554,3.6892,3.7316,3.7829,3.8453,3.8945,3.9387,3.9411,3.9481,3.9569,3.9685,3.9996,4.0538,4.0881,4.1047,4.1144,4.1177,4.1128,4.0773,4.0725,4.0716,4.0901,4.1047,4.1314,4.1672,4.172,4.1606,4.1287,4.1287,4.1057,4.085,4.0826,4.0687,4.0083,3.9756,3.922,3.8573,3.8475,3.8335,3.8063,3.7927,3.8225,3.862,3.8526,3.8361,3.8166,3.6911,3.6478,3.6386,3.6495,3.6534,3.6372,3.5489,3.4437,3.3523,3.2509,3.1593,3.0662,3.0048,2.991,2.987,3.0075,2.9758,2.8789,2.8176,2.7845,2.7493,2.6893,2.6399,2.6224,2.6047,2.614,2.6231,2.6268,2.6388,2.6693,2.7099,2.7441,2.7801,2.8145,2.8545,2.8737,2.8975,2.945,2.945,3.002,3.0723,3.1189,3.1787,3.1903,3.2113,3.2457,3.2913,3.348,3.3931,3.4379,3.4736,3.5511,3.6277,3.682,3.7334,3.7974,3.8291,3.8185,3.8509,3.8856,3.9091,3.8993,3.9095,3.8965,3.8556,3.2266,3.2721,3.3481,3.4567,3.5631,3.6015,3.653,3.7215,3.7796,3.821,3.8631,3.8865,3.9143,3.9349,3.9536,3.9843,4.0536,4.0886,4.1063,4.1094,4.1022,4.095,4.0684,4.0604,4.0846,4.0918,4.0967,4.1184,4.1353,4.1378,4.1287,4.1172,4.1196,4.1081,4.0942,4.0942,4.0711,4.0223,4.013,3.9616,3.8872,3.8843,3.8957,3.8684,3.8589,3.8843,3.9033,3.892,3.8642,3.8129,3.7026,3.6478,3.6254,3.6386,3.6254,3.5985,3.517,3.4075,3.3204,3.2169,3.1168,3.0396,2.952,2.9299,2.9223,2.9419,2.9302,2.8439,2.7472,2.7086,2.7173,2.669,2.6346,2.6036,2.5741,2.5528,2.5696,2.5963,2.6201,2.6439,2.6713,2.661,2.6815,2.6557,2.7039,2.7779,2.814,2.8498,2.8498,2.8498,2.9213,2.9804,3.0392,3.0859,3.1189,3.1536,3.1998,3.2571,3.3233,3.3593,3.4065,3.5069,3.5863,3.6145,3.658,3.7441,3.7655,3.7548,3.7868,3.8404,3.8718,3.8901,3.9013,3.912,3.8941,3.2093,3.2767,3.3286,3.3993,3.4739,3.5063,3.5759,3.652,3.7252,3.7489,3.7596,3.821,3.855,3.8965,3.9393,3.9758,4.0134,4.0676,4.0908,4.1028,4.11,4.1028,4.1052,4.11,4.1167,4.1167,4.1191,4.1215,4.1287,4.1287,4.1287,4.1196,4.1196,4.1196,4.1081,4.085,4.0595,4.0246,4.0013,3.9684,3.9426,3.9308,3.9144,3.9144,3.9049,3.919,3.9308,3.9265,3.8711,3.8067,3.7257,3.6639,3.6168,3.6168,3.5598,3.5266,3.4758,3.3987,3.324,3.1927,3.123,3.0449,2.9291,2.8829,2.8765,2.8718,2.8703,2.7939,2.6958,2.6517,2.659,2.6336,2.5973,2.571,2.5311,2.4907,2.5234,2.5528,2.5764,2.6034,2.5961,2.5839,2.5717,2.5594,2.5961,2.6692,2.7177,2.7418,2.7659,2.7779,2.814,2.8737,2.9213,2.9686,3.0138,3.0859,3.1325,3.1767,3.2342,3.2706,3.3296,3.4065,3.4736,3.5157,3.5685,3.6472,3.6904,3.6796,3.7227,3.7761,3.808,3.8372,3.8589,3.8753,3.9137,3.124,3.279,3.2894,3.3369,3.4133,3.4835,3.5215,3.5588,3.6479,3.6928,3.6989,3.7274,3.7762,3.8431,3.8791,3.9213,3.9695,4.0258,4.0475,4.0547,4.0908,4.1076,4.1172,4.1124,4.1172,4.1196,4.1196,4.1196,4.1196,4.1196,4.1172,4.1124,4.1148,4.1148,4.1148,4.0803,4.0548,4.0339,4.0013,3.9567,3.9426,3.9285,3.9049,3.9049,3.893,3.9049,3.9308,3.9544,3.9081,3.8436,3.7402,3.6714,3.6196,3.573,3.5069,3.4447,3.405,3.3497,3.2622,3.1526,3.0691,2.9767,2.8906,2.8649,2.8569,2.8461,2.8127,2.7194,2.6457,2.6127,2.6031,2.5473,2.5094,2.4959,2.4736,2.4492,2.4458,2.4674,2.4754,2.5051,2.5103,2.5226,2.5349,2.5226,2.5226,2.5839,2.6449,2.6692,2.6813,2.6935,2.7177,2.7779,2.8259,2.8618,2.9213,3.0157,3.0743,3.1092,3.1556,3.2133,3.2592,3.2841,3.3388,3.4155,3.4714,3.529,3.5621,3.6168,3.6712,3.7143,3.7489,3.7892,3.8137,3.8331,3.8699]},{"header":{"parameterUnit":"m.s-1","parameterCategory":1,"la1":31.0,"la2":29.5877,"lo1":-88.7671,"lo2":-86.6584,"dy":0.0162,"dx":0.0185,"nx":115,"ny":88,"refTime":"2026-04-11T12:00:00:Z","depth":0,"parameterNumber":3,"parameterNumberName":"V-component_of_WINDS"},"data":[0.0,0.0,0.0,0.0,0.0,0.0,0.0,0.0,0.0,0.0,0.0,0.0,0.0,0.0,0.0,0.0,0.0,0.0,0.0,0.0,0.0,0.0,0.0,0.0,0.0,0.0,0.0,0.0,0.0,0.0,0.0,0.0,0.0,0.0,0.0,0.0,0.0,0.0,0.0,0.0,0.0,-0.6104,-0.5105,-0.4157,-0.3493,-0.2669,-0.1641,0.0,0.0,0.0,0.0,0.0,0.0,0.0,0.0,0.0,0.0,0.0,0.0,0.0,0.0,0.0,0.0,0.0,0.0,0.0,0.0,0.0,0.0,0.0,0.0,0.0,0.0,0.0,0.0,0.0,0.0,0.0,0.0,0.0,0.0,0.0,0.0,0.0,0.0,0.0,0.0,0.0,0.0,0.0,0.0,0.0,0.0,0.0,0.0,0.0,0.0,0.0,0.0,0.0,0.0,0.0,0.0,0.0,0.0,0.0,0.0,0.0,0.0,0.0,0.0,0.0,0.0,0.0,0.0,0.0,0.0,0.0,0.0,0.0,0.0,0.0,0.0,0.0,0.0,0.0,0.0,0.0,0.0,0.0,0.0,0.0,0.0,0.0,0.0,0.0,0.0,0.0,0.0,0.0,0.0,0.0,0.0,0.0,0.0,0.0,0.0,0.0,0.0,0.0,0.0,0.0,0.0,0.0,0.0,0.0,0.0,-0.3906,-0.3661,-0.3497,-0.3142,-0.2618,0.0,0.0,0.0,0.0,0.0,0.0,0.0,0.0,0.0,0.0,0.0,0.0,0.0,0.0,0.0,0.0,0.0,0.0,0.0,0.0,0.0,0.0,0.0,0.0,0.0,0.0,0.0,0.0,0.0,0.0,0.0,0.0,0.0,0.0,0.0,0.0,0.0,0.0,0.0,0.0,0.0,0.0,0.0,0.0,0.0,0.0,0.0,0.0,0.0,0.0,0.0,0.0,0.0,0.0,0.0,0.0,0.0,0.0,0.0,0.0,0.0,0.0,0.0,0.0,0.0,0.0,0.0,0.0,0.0,0.0,0.0,0.0,0.0,0.0,0.0,0.0,0.0,0.0,0.0,0.0,0.0,0.0,0.0,0.0,0.0,0.0,0.0,0.0,0.0,0.0,0.0,0.0,0.0,0.0,0.0,0.0,0.0,0.0,0.0,0.0,0.0,0.0,0.0,0.0,0.0,0.0,0.0,0.0,0.0,0.0,-0.4171,-0.4072,-0.362,-0.334,-0.3081,0.0,0.0,0.0,0.0,0.0,0.0,0.0,0.0,0.0,0.0,0.0,0.0,0.0,0.0,0.0,0.0,0.0,0.0,0.0,0.0,0.0,0.0,0.0,0.0,0.0,0.0,0.0,0.0,0.0,0.0,0.0,0.0,0.0,0.0,0.0,0.0,0.0,0.0,0.0,0.0,0.0,0.0,0.0,0.0,0.0,0.0,0.0,0.0,0.0,0.0,0.0,0.0,0.0,0.0,0.0,0.0,0.0,0.0,0.0,0.0,0.0,0.0,0.0,0.0,0.0,0.0,0.0,0.0,0.0,0.0,0.0,0.0,0.0,0.0,0.0,0.0,0.0,0.0,0.0,0.0,0.0,0.0,0.0,0.0,0.0,0.0,0.0,0.0,0.0,0.0,0.0,0.0,0.0,0.0,0.0,0.0,0.0,0.0,0.0,0.0,0.0,0.0,0.0,0.0,0.0,0.0,0.0,0.0,0.0,0.0,-0.3421,-0.3676,-0.364,-0.3567,-0.3521,-0.1922,0.0,0.0,0.0,0.0,0.0,0.0,0.0,0.0,0.0,0.0,0.0,0.0,0.0,0.0,0.0,0.0,0.0,0.0,0.0,0.0,0.0,0.0,0.0,0.0,0.0,0.0,0.0,0.0,0.0,0.0,0.0,0.0,0.0,0.0,0.0,0.0,0.0,0.0,0.0,0.0,0.0,0.0,0.0,0.0,0.0,0.0,0.0,0.0,0.0,0.0,0.0,0.0,0.0,0.0,0.0,0.0,0.0,0.0,0.0,0.0,0.0,0.0,0.0,0.0,0.0,0.0,0.0,0.0,0.0,0.0,0.0,0.0,0.0,0.0,0.0,0.0,0.0,0.0,0.0,0.0,0.0,0.0,0.0,0.0,0.0,0.0,0.0,0.0,0.0,0.0,0.0,0.0,0.0,0.0,0.0,0.0,0.0,0.0,0.0,0.0,0.0,0.0,0.0,0.0,0.0,0.0,0.0,0.0,0.0,-0.2227,-0.2934,-0.3308,-0.3569,-0.359,-0.2317,0.0,0.0,0.0,0.0,0.0,0.0,0.0,0.0,0.0,0.0,0.0,0.0,0.0,0.0,0.0,0.0,0.0,0.0,0.0,0.0,0.0,0.0,0.0,0.0,0.0,0.0,0.0,0.0,0.0,0.0,0.0,0.0,0.0,0.0,0.0,0.0,0.0,0.0,0.0,0.0,0.0,0.0,0.0,0.0,0.0,0.0,0.0,0.0,0.0,0.0,0.0,0.0,0.0,0.0,0.0,0.0,0.0,0.0,0.0,0.0,0.0,0.0,0.0,0.0,0.0,0.0,0.0,0.0,0.0,0.0,0.0,0.0,0.0,0.0,0.0,0.0,0.0,0.0,0.0,0.0,0.0,0.0,0.0,0.0,0.0,0.0,0.0,0.0,0.0,0.0,0.0,0.0,0.0,0.0,0.0,0.0,0.0,0.0,0.0,0.0,0.0,0.0,0.0,0.0,0.0,0.0,0.0,0.0,0.0,-0.1542,-0.2246,-0.2211,-0.2332,-0.2518,-0.1579,0.0,0.0,0.0,0.0,0.0,0.0,0.0,0.0,0.0,0.0,0.0,0.0,0.0,0.0,0.0,0.0,0.0,0.0,0.0,0.0,0.0,0.0,0.0,0.0,0.0,0.0,0.0,0.0,0.0,0.0,0.0,0.0,0.0,0.0,0.0,0.0,0.0,0.0,0.0,0.0,0.0,0.0,0.0,0.0,0.0,0.0,0.0,0.0,0.0,0.0,0.0,0.0,0.0,0.0,0.0,0.0,0.0,0.0,0.0,0.0,0.0,0.0,0.0,0.0,0.0,0.0,0.0,0.0,0.0,0.0,0.0,0.0,0.0,0.0,0.0,0.0,0.0,0.0,0.0,0.0,0.0,0.0,0.0,0.0,0.0,0.0,0.0,0.0,0.0,0.0,0.0,0.0,0.0,0.0,0.0,0.0,0.0,0.0,0.0,0.0,0.0,0.0,0.0,0.0,0.0,0.0,0.0,0.0,0.0,-0.0892,-0.1314,-0.1784,-0.2136,-0.2269,-0.148,0.0,0.0,0.0,0.0,0.0,0.0,0.0,0.0,0.0,0.0,0.0,0.0,0.0,0.0,0.0,0.0,0.0,0.0,0.0,0.0,0.0,0.0,0.0,0.0,0.0,0.0,0.0,0.0,0.0,0.0,0.0,0.0,0.0,0.0,0.0,0.0,0.0,0.0,0.0,0.0,0.0,0.0,0.0,0.0,0.0,0.0,0.0,0.0,0.0,0.0,0.0,0.0,0.0,0.0,0.0,0.0,0.0,0.0,0.0,0.0,0.0,0.0,0.0,0.0,0.0,0.0,0.0,0.0,0.0,0.0,0.0,0.0,0.0,0.0,0.0,0.0,0.0,0.0,0.0,0.0,0.0,0.0,0.0,0.0,0.0,0.0,0.0,0.0,0.0,0.0,0.0,0.0,0.0,0.0,0.0,0.0,0.0,0.0,0.0,0.0,0.0,0.0,0.0,0.0,0.0,0.0,0.0,0.0,0.0421,-0.0131,-0.0487,-0.1394,-0.1978,-0.2016,-0.1425,0.0,0.0,0.0,0.0,0.0,0.0,0.0,0.0,0.0,0.0,0.0,0.0,0.0,0.0,0.0,0.0,0.0,0.0,0.0,0.0,0.0,0.0,0.0,0.0,0.0,0.0,0.0,0.0,0.0,0.0,0.0,0.0,0.0,0.0,0.0,0.0,0.0,0.0,0.0,0.0,0.0,0.0,0.0,0.0,0.0,0.0,0.0,0.0,0.0,0.0,0.0,0.0,0.0,0.0,0.0,0.0,0.0,0.0,0.0,0.0,0.0,0.0,0.0,0.0,0.0,0.0,0.0,0.0,0.0,0.0,0.0,0.0,0.0,0.0,0.0,0.0,0.0,0.0,0.0,0.0,0.0,0.0,0.0,0.0,0.0,0.0,0.0,0.0,0.0,0.0,0.0,0.0,0.0,0.0,0.0,0.0,0.0,0.0,0.0,0.0,0.0,0.0,0.0,0.0,0.0,0.0,0.0,0.1448,0.1445,0.0885,-0.02,-0.0336,-0.0611,-0.0967,-0.0875,0.0,0.0,0.0,0.0,0.0,0.0,0.0,0.0,0.0,0.0,0.0,0.0,0.0,0.0,0.0,0.0,0.0,0.0,0.0,0.0,0.0,0.0,0.0,0.0,0.0,0.0,0.0,0.0,0.0,0.0,0.0,0.0,0.0,0.0,0.0,0.0,0.0,0.0,0.0,0.0,0.0,0.0,0.0,0.0,0.0,0.0,0.0,0.0,0.0,0.0,0.0,0.0,0.0,0.0,0.0,0.0,0.0,0.0,0.0,0.0,0.0,0.0,0.0,0.0,0.0,0.0,0.0,0.0,0.0,0.0,0.0,0.0,0.0,0.0,0.0,0.0,0.0,0.0,0.0,0.0,0.0,0.0,0.0,0.0,0.0,0.0,0.0,0.0,0.0,0.0,0.0,0.0,0.0,0.0,0.0,0.0,0.0,0.0,0.0,0.0,0.0,0.0,0.0,0.0,0.0,0.0,0.0873,0.1928,0.1766,0.1131,0.0165,-0.0114,-0.0545,-0.1092,-0.1178,0.0,0.0,0.0,0.0,0.0,0.0,0.0,0.0,0.0,0.0,0.0,0.0,0.0,0.0,0.0,0.0,0.0,0.0,0.0,0.0,0.0,0.0,0.0,0.0,0.0,0.0,0.0,0.0,0.0,0.0,0.0,0.0,0.0,0.0,0.0,0.0,0.0,0.0,0.0,0.0,0.0,0.0,0.0,0.0,0.0,0.0,0.0,0.0,0.0,0.0,0.0,0.0,0.0,0.0,0.0,0.0,0.0,0.0,0.0,0.0,0.0,0.0,0.0,0.0,0.0,0.0,0.0,0.0,0.0,0.0,0.0,0.0,0.0,0.0,0.0,0.0,0.0,0.0,0.0,0.0,0.0,0.0,0.0,0.0,0.0,0.0,0.0,0.0,0.0,0.0,0.0,0.0,0.0,0.0,0.0,0.0,0.0,0.0,0.0,0.0,0.0,0.0,0.0,0.0,0.0,0.0,0.0944,0.1996,0.1811,0.1244,0.0439,0.0099,-0.0492,-0.1336,0.0,0.0,0.0,0.0,0.0,0.0,0.0,0.0,0.0,0.0,0.0,0.0,0.0,0.0,0.0,0.0,0.0,0.0,0.0,0.0,0.0,0.0,0.0,0.0,0.0,0.0,0.0,0.0,0.0,0.0,0.0,0.0,0.0,0.0,0.0,0.0,0.0,0.0,0.0,0.0,0.0,0.0,0.0,0.0,0.0,0.0,0.0,0.0,0.0,0.0,0.0,0.0,0.0,0.0,0.0,0.0,0.0,0.0,0.0,0.0,0.0,0.0,0.0,0.0,0.0,0.0,0.0,0.0,0.0,0.0,0.0,0.0,0.0,0.0,0.0,0.0,0.0,0.0,0.0,0.0,0.0,0.0,0.0,0.0,0.0,0.0,0.0,0.0,0.0,0.0,0.0,0.0,0.0,0.0,0.0,0.0,0.0,0.0,0.0,0.0,0.0,0.0,0.0,0.0,0.0,0.0,0.0,0.061,0.1288,0.1794,0.1484,0.0358,0.0718,0.022,-0.1295,0.0,0.0,0.0,0.0,0.0,0.0,0.0,0.0,0.0,0.0,0.0,0.0,0.0,0.0,0.0,0.0,0.0,0.0,0.0,0.0,0.0,0.0,0.0,0.0,0.0,0.0,0.0,0.0,0.0,0.0,0.0,0.0,0.0,0.0,0.0,0.0,0.0,0.0,0.0,0.0,0.0,0.0,0.0,0.0,0.0,0.0,0.0,0.0,0.0,0.0,0.0,0.0,0.0,0.0,0.0,0.0,0.0,0.0,0.0,0.0,0.0,0.0,0.0,0.0,0.0,0.0,0.0,0.0,0.0,0.0,0.0,0.0,0.0,0.0,0.0,0.0,0.0,0.0,0.0,0.0,0.0,0.0,0.0,0.0,0.0,0.0,0.0,0.0,0.0,0.0,0.0,0.0,0.0,0.0,0.0,0.0,0.0,0.0,0.0,0.0,0.0,0.0,0.0,0.0,0.0,0.0,-0.1071,-0.0019,0.0981,0.1289,0.1186,0.061,-0.0348,-0.1155,-0.1742,0.0,0.0,0.0,0.0,0.0,0.0,0.0,0.0,0.0,0.0,0.0,0.0,0.0,0.0,0.0,0.0,0.0,0.0,0.0,0.0,0.0,0.0,0.0,0.0,0.0,0.0,0.0,0.0,0.0,0.0,0.0,0.0,0.0,0.0,0.0,0.0,0.0,0.0,0.0,0.0,0.0,0.0,0.0,0.0,0.0,0.0,0.0,0.0,0.0,0.0,0.0,0.0,0.0,0.0,0.0,0.0,0.0,0.0,0.0,0.0,0.0,0.0,0.0,0.0,0.0,0.0,0.0,0.0,0.0,0.0,0.0,0.0,0.0,0.0,0.0,0.0,0.0,0.0,0.0,0.0,0.0,0.0,0.0,0.0,0.0,0.0,0.0,0.0,0.0,0.0,0.0,0.0,0.0,0.0,0.0,0.0,0.0,0.0,0.0,0.0,0.0,0.0,0.0,0.0,0.0,-0.2513,-0.1692,-0.0657,0.0484,0.0797,0.0897,0.0726,-0.0719,-0.1753,-0.2162,0.0,0.0,0.0,0.0,0.0,0.0,0.0,0.0,0.0,0.0,0.0,0.0,0.0,0.0,0.0,0.0,0.0,0.0,0.0,0.0,0.0,0.0,0.0,0.0,0.0,0.0,0.0,0.0,0.0,0.0,0.0,0.0,0.0,0.0,0.0,0.0,0.0,0.0,0.0,0.0,0.0,0.0,0.0,0.0,0.0,0.0,0.0,0.0,0.0,0.0,0.0,0.0,0.0,0.0,0.0,0.0,0.0,0.0,0.0,0.0,0.0,0.0,0.0,0.0,0.0,0.0,0.0,0.0,0.0,0.0,0.0,0.0,0.0,0.0,0.0,0.0,0.0,0.0,0.0,0.0,0.0,0.0,0.0,0.0,0.0,0.0,0.0,0.0,0.0,0.0,0.0,0.0,0.0,0.0,0.0,0.0,0.0,0.0,0.0,0.0,0.0,0.0,0.0,0.0,0.0,0.0,-0.2138,-0.1205,-0.029,0.0451,0.0811,0.0772,0.0271,-0.0817,-0.2448,0.0,0.0,0.0,0.0,0.0,0.0,0.0,0.0,0.0,0.0,0.0,0.0,0.0,0.0,0.0,0.0,0.0,0.0,0.0,0.0,0.0,0.0,0.0,0.0,0.0,0.0,0.0,0.0,0.0,0.0,0.0,0.0,0.0,0.0,0.0,0.0,0.0,0.0,0.0,0.0,0.0,0.0,0.0,0.0,0.0,0.0,0.0,0.0,0.0,0.0,0.0,0.0,0.0,0.0,0.0,0.0,0.0,0.0,0.0,0.0,0.0,0.0,0.0,0.0,0.0,0.0,0.0,0.0,0.0,0.0,0.0,0.0,0.0,0.0,0.0,0.0,0.0,0.0,0.0,0.0,0.0,0.0,0.0,0.0,0.0,0.0,0.0,0.0,0.0,0.0,0.0,0.0,0.0,0.0,0.0,0.0,0.0,0.0,0.0,0.0,0.0,0.0,0.0,0.0,0.0,0.0,-0.2637,-0.1954,-0.1038,-0.0345,0.023,0.061,-0.0819,-0.1804,-0.2193,0.0,0.0,0.0,0.0,0.0,0.0,0.0,0.0,0.0,0.0,0.0,0.0,0.0,0.0,0.0,0.0,0.0,0.0,0.0,0.0,0.0,0.0,0.0,0.0,0.0,0.0,0.0,0.0,0.0,0.0,0.0,0.0,0.0,0.0,0.0,0.0,0.0,0.0,0.0,0.0,0.0,0.0,0.0,0.0,0.0,0.0,0.0,0.0,0.0,0.0,0.0,0.0,0.0,0.0,0.0,0.0,0.0,0.0,0.0,0.0,0.0,0.0,0.0,0.0,0.0,0.0,0.0,0.0,0.0,0.0,0.0,0.0,0.0,0.0,0.0,0.0,0.0,0.0,0.0,0.0,0.0,0.0,0.0,0.0,0.0,0.0,0.0,0.0,0.0,0.0,0.0,0.0,0.0,0.0,0.0,0.0,0.0,0.0,0.0,0.0,0.0,0.0,0.0,0.0,0.0,0.0,-0.3106,-0.2401,-0.1178,-0.0462,-0.0035,0.0128,-0.0808,-0.1566,0.0,0.0,0.0,0.0,0.0,0.0,0.0,0.0,0.0,0.0,0.0,0.0,0.0,0.0,0.0,0.0,0.0,0.0,0.0,0.0,0.0,0.0,0.0,0.0,0.0,0.0,0.0,0.0,0.0,0.0,0.0,0.0,0.0,0.0,0.0,0.0,0.0,0.0,0.0,0.0,0.0,0.0,0.0,0.0,0.0,0.0,0.0,0.0,0.0,0.0,0.0,0.0,0.0,0.0,0.0,0.0,0.0,0.0,0.0,0.0,0.0,0.0,0.0,0.0,0.0,0.0,0.0,0.0,0.0,0.0,0.0,0.0,0.0,0.0,0.0,0.0,0.0,0.0,0.0,0.0,0.0,0.0,0.0,0.0,0.0,0.0,0.0,0.0,0.0,0.0,0.0,0.0,0.0,0.0,0.0,0.0,0.0,0.0,0.0,0.0,0.0,0.0,0.0,0.0,0.0,0.0,0.0,-0.3422,-0.2467,-0.0708,0.0073,0.0076,-0.0613,0.0537,0.0187,0.0,0.0,0.0,0.0,0.0,0.0,0.0,0.0,0.0,0.0,0.0,0.0,0.0,0.0,0.0,0.0,0.0,0.0,0.0,0.0,0.0,0.0,0.0,0.0,0.0,0.0,0.0,0.0,0.0,0.0,0.0,0.0,0.0,0.0,0.0,0.0,0.0,0.0,0.0,0.0,0.0,0.0,0.0,0.0,0.0,0.0,0.0,0.0,0.0,0.0,0.0,0.0,0.0,0.0,0.0,0.0,0.0,0.0,0.0,0.0,0.0,0.0,0.0,0.0,0.0,0.0,0.0,0.0,0.0,0.0,0.0,0.0,0.0,0.0,0.0,0.0,0.0,0.0,0.0,0.0,0.0,0.0,0.0,0.0,0.0,0.0,0.0,0.0,0.0,0.0,0.0,0.0,0.0,0.0,0.0,0.0,0.0,0.0,0.0,0.0,0.0,0.0,0.0,0.0,0.0,0.0,0.0,-0.2333,-0.1726,-0.1307,-0.0939,-0.0303,0.0559,0.0683,0.069,0.0584,0.0,0.0,0.0,0.0,0.0,0.0,0.0,0.0,0.0,0.0,0.0,0.0,0.0,0.0,0.0,0.0,0.0,0.0,0.0,0.0,0.0,0.0,0.0,0.0,0.0,0.0,0.0,0.0,0.0,0.0,0.0,0.0,0.0,0.0,0.0,0.0,0.0,0.0,0.0,0.0,0.0,0.0,0.0,0.0,0.0,0.0,0.0,0.0,0.0,0.0,0.0,0.0,0.0,0.0,0.0,0.0,0.0,0.0,0.0,0.0,0.0,0.0,0.0,0.0,0.0,0.0,0.0,0.0,0.0,0.0,0.0,0.0,0.0,0.0,0.0,0.0,0.0,0.0,0.0,0.0,0.0,0.0,0.0,0.0,0.0,0.0,0.0,0.0,0.0,0.0,0.0,0.0,0.0,0.0,0.0,0.0,0.0,0.0,0.0,0.0,0.0,0.0,0.0,0.0,0.0,0.0,-0.1764,-0.1174,-0.0837,-0.048,0.0166,0.1104,0.1639,0.1954,0.205,0.0,0.0,0.0,0.0,0.0,0.0,0.0,0.0,0.0,0.0,0.0,0.0,0.0,0.0,0.0,0.0,0.0,0.0,0.0,0.0,0.0,0.0,0.0,0.0,0.0,0.0,0.0,0.0,0.0,0.0,0.0,0.0,0.0,0.0,0.0,0.0,0.0,0.0,0.0,0.0,0.0,0.0,0.0,0.0,0.0,0.0,0.0,0.0,0.0,0.0,0.0,0.0,0.0,0.0,0.0,0.0,0.0,0.0,0.0,0.0,0.0,0.0,0.0,0.0,0.0,0.0,0.0,0.0,0.0,0.0,0.0,0.0,0.0,0.0,0.0,0.0,0.0,0.0,0.0,0.0,0.0,0.0,0.0,0.0,0.0,0.0,0.0,0.0,0.0,0.0,0.0,0.0,0.0,0.0,0.0,0.0,0.0,0.0,0.0,0.0,0.0,0.0,0.0,0.0,0.0,0.0,0.0,-0.0765,0.0543,0.1178,0.1374,0.1219,0.3189,0.3807,0.2873,0.0,0.0,0.0,0.0,0.0,0.0,0.0,0.0,0.0,0.0,0.0,0.0,0.0,0.0,0.0,0.0,0.0,0.0,0.0,0.0,0.0,0.0,0.0,0.0,0.0,0.0,0.0,0.0,0.0,0.0,0.0,0.0,0.0,0.0,0.0,0.0,0.0,0.0,0.0,0.0,0.0,0.0,0.0,0.0,0.0,0.0,0.0,0.0,0.0,0.0,0.0,0.0,0.0,0.0,0.0,0.0,0.0,0.0,0.0,0.0,0.0,0.0,0.0,0.0,0.0,0.0,0.0,0.0,0.0,0.0,0.0,0.0,0.0,0.0,0.0,0.0,0.0,0.0,0.0,0.0,0.0,0.0,0.0,0.0,0.0,0.0,0.0,0.0,0.0,0.0,0.0,0.0,0.0,0.0,0.0,0.0,0.0,0.0,0.0,0.0,0.0,0.0,0.0,0.0,0.0,0.0,-0.0966,-0.0223,0.1363,0.2225,0.2759,0.2957,0.3869,0.4428,0.4529,0.0,0.0,0.0,0.0,0.0,0.0,0.0,0.0,0.0,0.0,0.0,0.0,0.0,0.0,0.0,0.0,0.0,0.0,0.0,0.0,0.0,0.0,0.0,0.0,0.0,0.0,0.0,0.0,0.0,0.0,0.0,0.0,0.0,0.0,0.0,0.0,0.0,0.0,0.0,0.0,0.0,0.0,0.0,0.0,0.0,0.0,0.0,0.0,0.0,0.0,0.0,0.0,0.0,0.0,0.0,0.0,0.0,0.0,0.0,0.0,0.0,0.0,0.0,0.0,0.0,0.0,0.0,0.0,0.0,0.0,0.0,0.0,0.0,0.0,0.0,0.0,0.0,0.0,0.0,0.0,0.0,0.0,0.0,0.0,0.0,0.0,0.0,0.0,0.0,0.0,0.0,0.0,0.0,0.0,0.0,0.0,0.0,0.0,0.0,0.0,0.0,0.0,0.0,0.0,0.0,0.0,-0.0,0.0685,0.1967,0.3222,0.4023,0.4313,0.499,0.5438,0.566,0.0,0.0,0.0,0.0,0.0,0.0,0.0,0.0,0.0,0.0,0.0,0.0,0.0,0.0,0.0,0.0,0.0,0.0,0.0,0.0,0.0,0.0,0.0,0.0,0.0,0.0,0.0,0.0,0.0,0.0,0.0,0.0,0.0,0.0,0.0,0.0,0.0,0.0,0.0,0.0,0.0,0.0,0.0,0.0,0.0,0.0,0.0,0.0,0.581,0.0,0.0,0.0,0.0,0.0,0.0,0.0,0.0,0.0,0.0,0.0,0.0,0.0,0.0,0.0,0.0,0.0,0.0,0.0,0.0,0.0,0.0,0.0,0.0,0.0,0.0,0.0,0.0,0.0,0.0,0.0,0.0,0.0,0.0,0.0,0.0,0.0,0.0,0.0,0.0,0.0,0.0,0.0,0.0,0.0,0.0,0.0,0.0,0.0,0.0,0.0,0.0,0.0,0.0,0.0,0.0792,0.0359,0.1139,0.1907,0.2613,0.4177,0.5164,0.544,0.6189,0.6587,0.6313,0.0,0.0,0.0,0.0,0.0,0.0,0.0,0.0,0.0,0.0,0.0,0.0,0.0,0.0,0.0,0.0,0.0,0.0,0.0,0.0,0.0,0.0,0.0,0.0,0.0,0.0,0.0,0.0,0.0,0.0,0.0,0.0,0.0,0.0,0.0,0.0,0.0,0.0,0.0,0.0,0.0,0.0,0.0,0.0,0.0,0.0,0.0,0.3064,0.5849,0.0,0.0,0.0,0.0,0.0,0.0,0.0,0.0,0.0,0.0,0.0,0.0,0.0,0.0,0.0,0.0,0.0,0.0,0.0,0.0,0.0,0.0,0.0,0.0,0.0,0.0,0.0,-0.3184,0.0,-0.3275,0.0,0.0,0.0,0.0,0.0,0.0,0.0,0.0,0.0,0.0,0.0,0.0,0.0,0.0,0.0,0.0,0.0,0.0,0.0,0.0,0.0,0.0,0.0,0.0,0.1356,0.1577,0.2411,0.2637,0.3182,0.4136,0.5309,0.5969,0.6016,0.6268,0.6349,0.6368,0.0,0.0,0.0,0.0,0.0,0.0,0.0,0.0,0.0,0.0,0.0,0.0,0.0,0.0,0.0,0.0,0.0,0.0,0.0,0.0,0.0,0.0,0.0,0.0,0.0,0.0,0.0,0.0,0.0,0.0,0.0,0.0,0.0,0.0,0.0,0.0,0.0,0.0,0.0,0.0,0.0,0.0,0.0,0.0,0.0,0.0,0.0,0.4177,0.0,0.0,0.0,0.0,0.0,0.0,0.0,0.0,0.0,0.0,0.0,0.0,0.0,0.0,0.0,0.0,0.0,0.0,0.0,0.0,0.0,0.0,0.0,0.0,0.0,0.0,0.0,0.0,-0.2931,-0.3169,-0.3312,0.0,0.0,0.0,0.0,0.0,0.0,0.0,0.0,0.0,0.0,0.0,0.0,0.0,0.0,0.0,0.0,0.0,0.0,0.0,0.0,0.0,0.0,0.0,0.1766,0.1979,0.2392,0.3018,0.3532,0.4187,0.4956,0.5969,0.6547,0.6521,0.6744,0.6684,0.6342,0.0,0.0,0.0,0.0,0.0,0.0,0.0,0.0,0.0,0.0,0.0,0.0,0.0,0.0,0.0,0.0,0.0,0.0,0.0,0.0,0.0,0.0,0.0,0.0,0.0,0.0,0.0,0.0,0.0,0.0,0.0,0.0,0.0,0.0,0.0,0.0,0.0,-1.1619,-1.1357,0.0,0.0,0.0,0.0,0.0,0.0,0.0,0.0,0.2708,0.5417,0.0,0.0,0.0,0.0,0.0,0.0,0.0,0.0,0.0,0.0,0.0,0.0,0.0,0.0,0.0,0.0,0.0,0.0,0.0,0.0,0.0,0.0,0.0,0.0,0.0,0.0,0.0,-0.2563,-0.2906,-0.3207,0.0,0.0,0.0,0.0,0.0,0.0,0.0,0.0,0.0,0.0,0.0,0.0,0.0,0.0,0.0,0.0,0.0,0.0,0.0,0.0,0.0,0.0,0.0,0.1663,0.2454,0.3056,0.3269,0.4243,0.5074,0.5597,0.655,0.6942,0.6934,0.7246,0.7122,0.6358,0.0,0.0,0.0,0.0,0.0,0.0,0.0,0.0,0.0,0.0,0.0,0.0,0.0,0.0,0.0,0.0,0.0,0.0,0.0,0.0,0.0,0.0,0.0,0.0,0.0,0.0,0.0,0.0,0.0,0.0,0.0,0.0,0.0,0.0,0.0,0.0,0.0,-1.1322,-0.9639,-0.3271,0.2422,0.0,0.0,0.0,0.0,0.0,0.0,0.0,0.623,1.0415,0.9912,0.0,0.0,0.0,0.0,0.0,0.0,0.0,0.0,0.0,0.0,0.0,0.0,0.0,0.0,0.0,0.0,0.0,0.0,0.0,0.0,0.0,0.0,0.0,0.0,0.0,-0.2343,-0.275,-0.3108,0.0,0.0,0.0,0.0,0.0,0.0,0.0,0.0,0.0,0.0,0.0,0.0,0.0,0.0,0.0,0.0,0.0,0.0,0.0,0.0,0.0,0.0,0.0,0.0,0.238,0.3008,0.4378,0.4924,0.5618,0.6493,0.7071,0.7249,0.6927,0.7388,0.7251,0.6473,0.5344,0.0,0.0,0.0,0.0,0.0,0.0,0.0,0.0,0.0,0.0,0.0,0.0,0.0,0.0,0.0,0.0,0.0,0.0,0.0,0.0,0.0,0.0,0.0,0.0,0.0,0.0,0.0,0.0,0.0,0.0,0.0,0.0,0.0,0.0,0.0,0.0,-0.8248,-0.4643,-0.1937,0.1252,0.5624,0.0,0.0,0.0,0.0,0.0,0.5404,0.8177,1.0531,1.0399,0.9596,0.0,0.0,0.0,0.0,0.0,0.0,0.0,0.0,0.0,0.0,0.0,0.0,0.0,0.0,0.0,0.0,0.0,0.0,0.0,0.0,0.0,0.0,0.0,0.0,-0.2058,-0.258,-0.2787,-0.2547,-0.2495,0.0,0.0,0.0,0.0,-0.225,0.0,0.0,0.0,0.0,0.0,0.0,0.0,0.0,0.0,0.0,0.0,0.0,0.0,0.0,0.0,0.0,0.0,0.2727,0.3526,0.4594,0.5743,0.662,0.7116,0.7592,0.7642,0.7234,0.7398,0.7221,0.6693,0.0,0.0,0.0,0.0,0.0,0.0,0.0,0.0,0.0,0.0,0.0,0.0,0.0,0.0,0.0,0.0,0.0,0.0,0.0,0.0,0.0,0.0,0.0,0.0,0.0,0.0,0.0,0.0,0.0,0.0,0.0,0.0,0.0,0.0,0.0,0.0,0.0,0.0,-0.2866,-0.129,0.0823,0.4066,0.5677,0.6786,0.74,0.8165,0.8352,0.727,0.9284,1.1043,1.1283,0.0,0.0,0.0,0.0,0.0,0.0,0.0,0.0,0.0,0.0,0.0,0.0,0.0,0.0,0.0,0.0,0.0,0.0,0.0,0.0,0.0,0.0,0.0,0.0,0.0,0.0,-0.2129,-0.2328,-0.2336,-0.2395,-0.2562,0.0,0.0,0.0,-0.2464,-0.2084,0.0,0.0,0.0,0.0,0.0,0.0,0.0,0.0,0.0,0.0,0.0,0.0,0.0,0.0,0.0,0.0,0.3004,0.3928,0.4617,0.6316,0.7319,0.7598,0.8,0.7983,0.7548,0.7601,0.74,0.6912,0.0,0.0,0.0,0.0,0.0,0.0,0.0,0.0,0.0,0.0,0.0,0.0,0.0,0.0,0.0,0.0,0.0,0.0,0.0,0.0,0.0,0.0,0.0,0.0,0.0,0.0,0.0,0.0,0.0,0.0,0.0,0.0,0.0,0.0,0.0,0.0,0.0,0.0,0.0,-0.1015,0.0661,0.2426,0.4758,0.6653,0.7676,0.8964,0.95,0.8751,1.0158,1.1553,0.0,0.0,0.0,0.0,0.0,0.0,0.0,0.0,0.0,0.0,0.0,0.0,0.0,0.0,0.0,0.0,0.0,0.0,0.0,0.0,0.0,0.0,-0.0049,-0.0092,0.0,0.0,-0.0287,-0.1079,-0.177,-0.1967,-0.2062,-0.2122,-0.2551,-0.2724,0.0,-0.2254,-0.1887,-0.1539,0.0,0.0,0.0,0.0,0.0,0.0,0.0,0.0,0.0,0.0,0.0,0.0,0.0,0.0,0.0,0.0,0.3585,0.4898,0.6132,0.7138,0.777,0.8199,0.8199,0.7804,0.8303,0.8184,0.7322,0.0,0.0,0.0,0.0,0.0,0.0,0.0,0.0,0.0,0.0,0.0,0.0,0.0,0.0,0.0,0.0,0.0,0.0,0.0,0.0,0.0,0.0,0.0,0.0,0.0,-0.6601,0.0,0.0,0.0,0.0,0.0,0.0,0.0,0.0,0.0,0.0,0.0,0.0,0.0,0.0,0.0381,0.1806,0.3806,0.5893,0.8017,0.9004,0.973,1.0601,1.1233,1.184,0.0,0.0,0.0,0.0,0.0,0.0,0.0,0.0,0.0,0.0,0.0,0.0,0.0,0.0,0.0,0.0,0.0,0.0,0.0,0.0,0.0,0.0,0.016,0.0104,0.0205,0.0281,-0.0358,-0.0764,-0.1018,-0.158,-0.1985,-0.2236,-0.2586,-0.272,-0.2651,-0.2167,-0.167,-0.1136,0.0,0.0,0.0,0.0,0.0,0.0,0.0,0.0,0.0,0.0,0.0,0.0,0.2595,0.2374,0.2194,0.3169,0.4164,0.5093,0.6502,0.7431,0.7827,0.8224,0.8242,0.7952,0.8107,0.7947,0.0,0.0,0.0,0.0,0.0,0.0,0.0,0.0,0.0,0.0,0.0,0.0,0.0,0.0,0.0,0.0,0.0,0.0,0.0,0.0,0.0,0.0,0.0,0.0,0.0,-0.6206,-0.6548,-0.5852,0.0,0.0,0.0,0.0,0.0,0.0,0.0,0.0,0.0,0.0,0.0,0.0,0.0,0.131,0.2098,0.4014,0.595,0.756,0.8307,0.936,1.1416,1.2033,1.2246,0.0,0.0,0.0,0.0,0.0,0.0,0.0,0.0,0.0,0.0,0.0,0.0,0.0,0.0,0.0,0.0,0.0,0.0,0.247,0.2383,0.1355,0.0801,0.0601,0.0423,0.0309,0.0141,-0.0336,-0.0449,-0.028,-0.1145,-0.1728,-0.2136,-0.2508,-0.2621,-0.2585,-0.2038,-0.1494,-0.094,-0.0246,0.0,0.0,0.0,0.0,0.0,0.0,0.0,0.0,0.0,0.0,0.2424,0.2378,0.2259,0.2174,0.346,0.449,0.5225,0.6887,0.7813,0.7909,0.8462,0.8563,0.8254,0.8299,0.8107,0.0,0.0,0.0,0.0,0.0,0.0,0.0,0.0,0.0,0.0,0.0,0.0,0.0,0.0,0.0,0.0,0.0,0.0,0.0,0.0,0.0,0.0,0.0,-0.435,-0.4847,-0.6062,-0.6498,-0.5584,-0.5223,0.0,-0.2373,0.0,0.0,0.0,0.0,0.0,0.0,0.0,0.0,0.0,0.0,0.2871,0.327,0.4825,0.6239,0.7162,0.8068,0.9456,1.1853,1.2716,1.2804,0.0,0.0,0.0,0.0,0.0,0.0,0.0,0.0,0.0,0.0,0.0,0.0,0.0,0.0,0.0,0.0,0.0,0.0,0.2692,0.2671,0.2541,0.2145,0.1458,0.0775,0.0477,0.0449,0.0224,0.0141,0.0084,-0.0701,-0.1145,-0.1331,-0.1973,-0.2321,-0.2371,-0.1827,-0.1439,-0.1123,-0.0155,0.0,0.0,0.0,0.0,0.0,0.0,0.0,0.0,0.0,0.0,0.2746,0.2638,0.2519,0.2395,0.3147,0.4104,0.5479,0.7199,0.8164,0.8254,0.9055,0.9321,0.8841,0.9445,0.9257,0.0,0.0,0.0,0.0,0.0,0.0,0.0,0.0,0.0,0.0,0.0,0.0,0.0,0.0,0.0,0.0,0.0,0.0,0.0,0.0,0.0,0.0,0.0,0.0,-0.4281,-0.5508,-0.6622,-0.7417,-0.6543,-0.5541,-0.4665,0.0,0.0,0.0,0.0,0.0,0.0,0.0,0.0,0.0,0.0,0.4836,0.5544,0.6143,0.6745,0.735,0.8935,1.0634,1.2145,1.3173,1.3265,1.1658,1.1647,1.1479,0.0,0.0,0.0,0.0,0.0,0.0,0.0,0.0,0.0,0.0,0.0,0.0,0.0,0.0,0.0,0.3441,0.3298,0.2909,0.2591,0.222,0.1358,0.0815,0.0502,0.0409,0.0378,0.0315,-0.0377,-0.0974,-0.1436,-0.1891,-0.2244,-0.2548,-0.2168,-0.1827,-0.1447,-0.0558,0.0,0.0,0.0,0.0,0.0,0.0,0.0,0.0,0.0,0.0,0.29,0.2936,0.2843,0.2804,0.3806,0.484,0.5888,0.7231,0.8106,0.8518,0.9164,0.9272,0.9,0.9478,0.935,0.8551,0.0,0.0,0.0,0.0,0.0,0.0,0.0,0.0,0.0,0.0,0.0,0.0,0.0,0.0,0.0,0.0,0.0,0.0,0.0,0.0,0.0,0.0,0.0,0.0,-0.5016,-0.5677,-0.5605,-0.5891,-0.5285,-0.3351,-0.1332,0.0,0.0,0.0,0.0,0.0,0.0,0.0,0.622,0.0,0.6263,0.653,0.7512,0.8313,0.8611,0.9096,1.0121,1.2237,1.203,1.1695,1.2049,1.1436,1.0745,1.0278,0.0,0.0,0.0,0.0,0.0,0.0,0.0,0.0,0.0,0.0,0.0,0.0,0.0,0.0,0.4211,0.4073,0.3415,0.3147,0.2975,0.2106,0.1441,0.0982,0.0832,0.0723,0.0585,-0.0034,-0.0705,-0.1371,-0.1642,-0.2039,-0.25,-0.224,-0.1922,-0.1586,-0.0961,-0.0678,0.0,0.0,0.0,0.0,0.0,0.0,0.0,0.0,0.0,0.325,0.3155,0.306,0.3135,0.4455,0.5471,0.6157,0.7387,0.8313,0.9,0.9423,0.9704,0.9718,0.9965,0.9826,0.9129,0.0,0.0,0.0,0.0,0.1499,0.0,0.0,0.0,0.0,0.0,0.0,0.0,0.0,0.0,0.0,0.0,0.0,0.0,0.0,0.0,0.0,0.0,0.0,0.0,0.0,-0.4123,-0.2973,-0.4393,-0.4689,-0.2539,-0.1953,-0.0582,0.2266,0.0,0.0,0.0,0.0,0.0,0.0,0.822,0.8284,0.8409,0.9258,1.0079,1.0214,0.9866,1.017,1.1863,1.1362,1.1019,1.1625,1.115,1.0899,1.1238,1.1388,1.1398,1.1131,1.0496,0.9414,0.7585,0.0,0.0,0.0,0.0,0.0,0.0,0.0,0.0,0.5017,0.5048,0.4309,0.3902,0.3766,0.3068,0.254,0.2126,0.1647,0.1287,0.0873,0.0381,-0.0203,-0.0835,-0.1114,-0.1592,-0.2144,-0.1785,-0.1583,-0.1524,-0.1339,-0.1415,-0.1604,-0.1326,-0.1021,-0.0397,0.0627,0.1561,0.2329,0.3417,0.3895,0.3855,0.3359,0.3226,0.3503,0.4938,0.5843,0.621,0.7861,0.9016,0.9562,1.0311,1.0767,1.0955,1.1136,1.0855,1.0013,0.0,0.0,0.0,0.0,0.2292,0.0,0.0,0.0,0.0,0.0,0.0,0.0,0.0,0.0,0.0,0.0,0.0,0.0,0.0,0.0,0.0,0.0,0.0,0.0,0.0,-0.193,0.0389,-0.2221,-0.3827,-0.2796,-0.3433,-0.2894,0.0,0.0,0.0,0.0,0.0,0.7026,1.1289,1.1334,1.1027,1.1435,1.1461,1.1608,1.207,1.146,1.0941,1.0987,1.1569,1.1582,1.0147,1.101,0.0,0.0,0.0,0.0,0.0,0.0,0.0,0.0,0.0,0.0,0.0,0.0,0.0,0.0,0.0,0.0,0.6542,0.5935,0.5121,0.4979,0.5106,0.4004,0.3874,0.4432,0.3553,0.2865,0.2351,0.2186,0.1095,-0.0559,-0.0694,-0.1266,-0.2146,-0.2104,-0.1986,-0.1852,-0.1751,-0.1452,-0.1079,-0.0736,-0.0,0.1065,0.2351,0.2941,0.2878,0.355,0.4273,0.4778,0.4208,0.4123,0.4576,0.5449,0.6482,0.7606,0.8723,0.9775,1.0627,1.1272,1.1601,1.156,1.1687,1.1036,0.9359,0.7945,0.0,0.0,0.4194,0.3271,0.0,0.0,0.0,0.0,0.0,0.0,0.0,0.0,0.0,0.0,0.0,0.0,0.0,0.0,0.0,0.0,0.0,0.0,0.0,0.0,0.0348,0.0,-0.1816,-0.2904,-0.2682,-0.3047,-0.2694,-0.0992,0.1331,0.2891,0.3151,0.57,0.9439,1.4355,1.3461,1.265,1.3598,1.2942,1.235,1.2349,1.15,1.1015,1.1351,1.0614,1.0248,1.1119,1.1901,1.3852,1.8164,1.5449,1.3685,1.6816,1.6578,1.481,1.115,1.013,0.9388,0.7915,0.7316,0.711,0.6915,0.8362,0.8462,0.8393,0.7582,0.6532,0.6326,0.6563,0.5358,0.5295,0.5973,0.5035,0.4385,0.3976,0.3729,0.2502,0.0628,0.0453,-0.0368,-0.1692,-0.1759,-0.1831,-0.1931,-0.1653,-0.1273,-0.0767,0.0059,0.1096,0.2273,0.4194,0.4946,0.4536,0.4812,0.5262,0.5762,0.5267,0.5223,0.563,0.6302,0.7293,0.8648,0.9884,1.0845,1.1525,1.2192,1.2533,1.2429,1.2553,1.1839,1.0189,0.9415,0.837,0.0,0.5713,0.0,0.0,0.0,0.0,0.0,0.0,0.0,0.0,0.0,0.0,0.0,0.0,0.0,0.0,0.0,0.0,0.0,0.0,0.0,0.0,0.1269,0.1691,0.0493,-0.0845,-0.1699,-0.1835,-0.1929,-0.1572,-0.0397,0.2734,0.5212,0.6102,0.843,1.1686,1.6216,1.5253,1.4304,1.4826,1.3964,1.3065,1.2551,1.1894,1.1508,1.1933,1.1265,1.0638,1.0461,1.2942,1.6385,2.0858,1.9019,1.7719,2.0153,2.0476,1.8883,1.4179,1.2582,1.1754,1.1012,1.0419,1.0043,1.012,1.145,1.1773,1.074,1.0015,0.854,0.7929,0.8006,0.7312,0.6944,0.6876,0.623,0.5901,0.5612,0.5015,0.3938,0.2656,0.2197,0.0995,-0.0778,-0.0795,-0.1107,-0.1546,-0.1078,-0.0771,-0.0559,0.1089,0.222,0.3145,0.599,0.7344,0.7212,0.715,0.692,0.6573,0.6484,0.6467,0.6521,0.7373,0.8366,0.946,1.1158,1.2087,1.2326,1.314,1.3565,1.3637,1.3678,1.328,1.24,1.1645,1.0437,0.8558,0.7687,0.0,0.0,0.0,0.0,0.0,0.0,0.0,0.0,0.0,0.0,0.0,0.0,0.0,0.0,0.0,0.0,0.0,0.0,0.0,0.3749,0.3141,0.2179,0.1972,0.0618,-0.0276,-0.039,-0.028,0.01,0.1068,0.484,0.7994,0.9206,1.1295,1.3773,1.6872,1.6745,1.598,1.5293,1.4485,1.3753,1.3003,1.2529,1.2395,1.2551,1.3437,1.2738,0.8612,1.4351,2.0111,2.1809,2.3509,2.3829,2.1807,2.3099,2.3535,2.0099,1.6385,1.4321,1.5373,1.4243,1.32,1.3433,1.396,1.4223,1.4665,1.1874,1.0912,1.0774,1.1076,1.0274,1.0212,1.0666,0.9757,0.8664,0.7398,0.6625,0.5193,0.3314,0.2719,0.1812,0.0604,0.0244,0.0,-0.0,0.0144,0.0523,0.1137,0.2507,0.3822,0.5102,0.73,0.8766,0.9551,0.9662,0.9024,0.7758,0.7702,0.7857,0.819,0.8705,0.974,1.1351,1.2475,1.3335,1.3881,1.4456,1.4547,1.4347,1.443,1.3911,1.2679,1.2328,1.1505,1.012,0.9028,0.0,0.5986,0.0,0.0,0.0,0.0,0.2467,0.2259,0.1792,0.0,0.0,0.0,0.1434,0.0,0.0,0.0,0.0,0.0,0.0672,0.3863,0.3447,0.2796,0.2241,0.1377,0.0917,0.1319,0.1444,0.162,0.2101,0.6133,0.8042,0.5778,1.0638,1.5218,1.7594,1.6936,1.6259,1.6149,1.5072,1.4109,1.3861,1.3647,1.3579,1.3793,1.4117,1.4163,1.3493,2.0987,2.6868,2.6359,2.6998,2.6993,2.553,2.5705,2.5373,2.335,2.0014,1.7604,1.7456,1.71,1.6862,1.6975,1.7401,1.7696,1.8301,1.5503,1.3739,1.3323,1.3652,1.2802,1.2669,1.2952,1.2035,1.0909,0.9708,0.8579,0.7082,0.527,0.3955,0.2869,0.1865,0.1372,0.1085,0.1058,0.1246,0.1678,0.2526,0.4006,0.5581,0.7231,0.8773,1.0286,1.1629,1.1901,1.1461,1.0316,0.9585,0.9435,0.9962,1.0353,1.1333,1.2955,1.3966,1.4732,1.5204,1.5596,1.5782,1.5762,1.5541,1.4952,1.4007,1.3552,1.2753,1.1626,1.0509,0.9188,0.0,0.6329,0.4724,0.2856,0.2795,0.2753,0.2497,0.2014,0.0,0.0,0.1262,0.1585,0.1209,0.0,0.0,0.1337,0.1581,0.2494,0.4363,0.4071,0.3566,0.3132,0.2892,0.3177,0.4146,0.4388,0.4622,0.4891,0.8731,1.0044,0.6728,1.1894,1.6621,1.8043,1.7204,1.6545,1.6518,1.5582,1.4879,1.4949,1.4858,1.5084,1.588,1.6461,1.754,1.9713,2.5618,2.9783,2.9103,2.9121,2.887,2.7951,2.7105,2.6302,2.5464,2.2832,2.0577,1.9764,1.9791,1.9795,1.9332,1.9592,1.9992,2.1518,2.0149,1.7074,1.5841,1.5832,1.5034,1.4476,1.4143,1.3433,1.2795,1.2049,1.0554,0.9298,0.8102,0.5636,0.4032,0.3165,0.2725,0.2223,0.1764,0.219,0.2813,0.3732,0.5523,0.7416,0.9291,1.0528,1.1891,1.3269,1.3829,1.3986,1.3795,1.1981,1.1285,1.1692,1.2204,1.3124,1.4501,1.5574,1.6173,1.6439,1.6861,1.7205,1.7488,1.6854,1.6316,1.5931,1.504,1.4121,1.3039,1.2044,1.0941,0.9606,0.7585,0.541,0.3068,0.3115,0.311,0.2838,0.2126,0.1548,0.1168,0.2064,0.1905,0.0119,0.0535,0.1067,0.1789,0.3313,0.4558,0.5384,0.4976,0.4567,0.4446,0.4916,0.5894,0.753,0.7888,0.83,0.8827,1.21,1.3459,1.0999,1.4718,1.7949,1.8622,1.781,1.7082,1.664,1.6188,1.5885,1.6225,1.6388,1.7077,1.8349,1.9701,2.1821,2.5309,2.8671,3.017,3.0191,3.0237,2.9981,2.8942,2.7622,2.6633,2.6655,2.4999,2.3454,2.1817,2.1854,2.1762,2.0817,2.0802,2.0926,2.3336,2.2447,2.1336,1.9872,1.8313,1.8206,1.7442,1.6289,1.5776,1.4591,1.2921,1.1543,0.9971,0.8201,0.6423,0.5415,0.5117,0.4236,0.3789,0.3617,0.411,0.4766,0.5577,0.7375,0.9114,1.0847,1.2343,1.3722,1.5087,1.5324,1.5541,1.5577,1.471,1.3955,1.34,1.3609,1.4506,1.6218,1.6684,1.7388,1.8199,1.8818,1.8805,1.7882,1.7961,1.7413,1.6275,1.5738,1.5042,1.4035,1.3072,1.2386,1.197,0.9175,0.5976,0.2357,0.2948,0.3337,0.3099,0.2828,0.2365,0.1661,0.3207,0.344,0.1689,0.3007,0.3898,0.3882,0.386,0.4364,0.5555,0.5808,0.5686,0.5315,0.5668,0.6787,0.8901,0.8729,0.911,1.0835,1.4014,1.64,1.694,1.8036,1.9512,2.141,2.0074,1.8642,1.8209,1.7748,1.7542,1.7844,1.8182,1.8988,2.0246,2.1578,2.3392,2.6434,2.9058,3.0641,3.0155,3.0767,3.0842,2.9295,2.7893,2.7031,2.6655,2.5611,2.4145,2.2246,2.1731,2.1713,2.1444,2.132,2.1392,2.4619,2.4049,2.3666,2.2423,2.0934,2.0227,1.9382,1.829,1.739,1.6116,1.4378,1.2461,1.0524,0.8669,0.7797,0.717,0.6574,0.5907,0.5481,0.551,0.588,0.6508,0.7389,0.9147,1.09,1.2638,1.402,1.5606,1.707,1.6912,1.7133,1.7593,1.6555,1.5873,1.5707,1.5387,1.599,1.7511,1.8313,1.939,2.0689,2.0463,1.9946,1.9148,1.8702,1.7775,1.6199,1.5594,1.4854,1.3959,1.301,1.2624,1.2878,1.0011,0.7023,0.427,0.4342,0.4467,0.4422,0.4633,0.4526,0.3906,0.4295,0.4269,0.3499,0.438,0.5227,0.5771,0.4769,0.4664,0.6001,0.7141,0.7512,0.709,0.7845,0.9183,1.1212,1.0919,1.1451,1.3688,1.6498,1.8651,1.9892,1.9785,2.0385,2.2678,2.1992,2.1017,1.9956,1.9619,1.9599,1.9792,1.9955,2.0648,2.2345,2.3238,2.4536,2.7189,2.9488,3.0796,3.0366,3.0817,3.0737,2.9261,2.821,2.7394,2.6903,2.5779,2.4145,2.2334,2.1553,2.1463,2.1571,2.1302,2.1105,2.5737,2.5039,2.4726,2.4128,2.3196,2.1713,2.0687,1.9971,1.8626,1.7258,1.5791,1.3385,1.1283,0.9707,0.9426,0.8855,0.7987,0.7516,0.7308,0.7263,0.7618,0.8276,0.9221,1.102,1.2832,1.4713,1.5884,1.7383,1.9147,1.8551,1.865,1.9312,1.7681,1.7215,1.7959,1.7231,1.7527,1.887,2.0192,2.1727,2.3276,2.1846,2.0919,2.0625,1.9333,1.7871,1.6219,1.5311,1.4488,1.3579,1.2742,1.2445,1.2839,1.0266,0.8173,0.6885,0.6253,0.596,0.611,0.6758,0.7125,0.6961,0.5918,0.5248,0.5176,0.5415,0.6161,0.7451,0.6083,0.5624,0.6857,0.8604,0.9587,0.9244,1.0538,1.216,1.3522,1.3614,1.4386,1.6754,1.8979,2.0607,2.0822,2.056,2.1137,2.3037,2.371,2.3337,2.2087,2.148,2.1341,2.1665,2.1644,2.2411,2.4354,2.5006,2.602,2.8143,3.001,3.0979,3.0541,3.0616,3.0333,2.9248,2.8457,2.7766,2.7359,2.5822,2.3967,2.2195,2.15,2.1176,2.132,2.1032,2.0744,2.6409,2.5606,2.5509,2.5158,2.4515,2.3538,2.2212,2.0655,1.9247,1.7426,1.5421,1.3968,1.2844,1.1945,1.0775,1.0009,0.9681,0.9196,0.8753,0.8588,0.9609,1.0476,1.1285,1.3383,1.5237,1.6921,1.814,1.9125,2.0057,1.9733,1.9649,1.972,1.8291,1.8024,1.8787,1.8808,1.954,2.1006,2.2413,2.3225,2.3401,2.2907,2.227,2.1531,2.0237,1.8729,1.6951,1.6587,1.5833,1.4348,1.3918,1.305,1.1627,1.0264,0.8665,0.7024,0.6876,0.7003,0.7175,0.7829,0.8805,1.0151,0.9713,0.847,0.6407,0.7834,0.8758,0.8486,0.803,0.801,0.8702,1.0076,1.098,1.0899,1.1939,1.3423,1.5121,1.5432,1.615,1.786,2.0588,2.1966,2.1203,2.1699,2.3021,2.4734,2.4906,2.4616,2.4463,2.297,2.2182,2.2559,2.3195,2.4382,2.621,2.7522,2.8389,2.9445,3.0764,3.1451,3.0747,3.064,3.0416,2.9412,2.8556,2.798,2.7766,2.6168,2.4331,2.2587,2.1807,2.1479,2.1374,2.0852,2.0473,2.7583,2.7222,2.6488,2.6016,2.5522,2.4405,2.332,2.2165,2.0536,1.8551,1.6416,1.5013,1.4088,1.3414,1.2339,1.1803,1.1404,1.1115,1.0896,1.0791,1.1817,1.2757,1.3603,1.5403,1.7106,1.851,1.9571,2.0443,2.1155,2.0528,2.0359,2.0472,1.8816,1.8392,1.9356,2.0483,2.1528,2.2502,2.3637,2.4312,2.4448,2.4044,2.3325,2.2347,2.1183,1.9409,1.7106,1.6779,1.5863,1.4202,1.3696,1.2944,1.1901,1.0934,1.0,0.9217,0.9299,0.9518,0.9738,1.028,1.1146,1.2425,1.2444,1.1024,0.7641,0.9313,1.036,0.9916,0.9055,0.8772,0.9614,1.1804,1.3065,1.2696,1.3945,1.5477,1.6794,1.715,1.7764,1.9272,2.1921,2.3519,2.2864,2.2765,2.3759,2.5773,2.5898,2.5569,2.5203,2.4293,2.3761,2.3829,2.4576,2.5839,2.7649,2.8859,2.97,2.9847,3.0901,3.1454,3.0787,3.0941,3.0798,2.9439,2.8549,2.8023,2.781,2.6607,2.4905,2.3214,2.2483,2.2204,2.1987,2.1257,2.0589,2.8737,2.8799,2.7563,2.6864,2.6426,2.5107,2.4288,2.3601,2.1727,1.9693,1.7601,1.6375,1.5369,1.4651,1.4172,1.3692,1.3307,1.321,1.3284,1.3324,1.4121,1.4929,1.5951,1.7293,1.8725,2.0196,2.093,2.1684,2.2486,2.1465,2.1053,2.1189,1.9533,1.9268,2.0358,2.2176,2.324,2.3635,2.453,2.5204,2.5597,2.5011,2.4147,2.3116,2.1892,1.9986,1.7288,1.6923,1.5922,1.4136,1.3535,1.3172,1.2862,1.2129,1.1662,1.1668,1.1955,1.2274,1.2478,1.3108,1.37,1.4377,1.4687,1.3308,0.9507,1.0585,1.1411,1.1403,0.9904,0.9433,1.0471,1.3343,1.4948,1.4434,1.5848,1.7241,1.8398,1.8846,1.9317,2.0519,2.3095,2.5023,2.5058,2.4139,2.4201,2.6191,2.6682,2.6464,2.5679,2.5203,2.4965,2.5075,2.5463,2.6626,2.8475,2.9493,2.9866,2.9991,3.0918,3.1459,3.1264,3.1408,3.0985,2.9558,2.8563,2.8071,2.7964,2.7015,2.5655,2.3881,2.3466,2.3316,2.3015,2.2214,2.1427,2.9185,2.8711,2.8487,2.7824,2.6855,2.6545,2.5542,2.3899,2.2025,2.0167,1.8369,1.7846,1.7099,1.6292,1.571,1.5412,1.5412,1.5412,1.5363,1.5418,1.6099,1.6985,1.7987,1.9322,2.0889,2.2546,2.2599,2.3113,2.3842,2.29,2.2282,2.1942,2.1285,2.155,2.2537,2.3886,2.4545,2.4617,2.5502,2.5994,2.6112,2.5144,2.4429,2.3974,2.2137,2.0219,1.8339,1.8314,1.7364,1.5449,1.5131,1.4865,1.4399,1.4061,1.3253,1.1978,1.3109,1.403,1.4448,1.5352,1.6097,1.6439,1.6679,1.5495,1.2699,1.2359,1.2492,1.2594,1.1522,1.1326,1.2644,1.4469,1.5819,1.6047,1.684,1.7905,1.929,2.0265,2.1097,2.1623,2.3983,2.5845,2.6136,2.5664,2.5702,2.6952,2.7206,2.6989,2.6336,2.5661,2.5459,2.5697,2.5806,2.6554,2.8067,2.9343,2.9891,3.0299,3.0979,3.1669,3.1865,3.1752,3.1297,3.0217,2.8912,2.8119,2.7986,2.7226,2.6445,2.5809,2.529,2.4791,2.4602,2.3937,2.3198,3.049,2.9965,2.9307,2.8777,2.8391,2.7422,2.6192,2.4707,2.3538,2.1953,2.0281,1.9492,1.8951,1.8333,1.7741,1.7548,1.7645,1.7548,1.7654,1.8093,1.8529,1.9445,2.0675,2.1511,2.2631,2.3828,2.3855,2.4043,2.4283,2.3298,2.2833,2.2717,2.2452,2.2717,2.3448,2.4579,2.5308,2.5627,2.659,2.6749,2.61,2.597,2.5535,2.4883,2.3153,2.1579,1.999,1.9482,1.8567,1.7232,1.6367,1.6029,1.6337,1.5914,1.5118,1.4069,1.5231,1.6373,1.7127,1.735,1.7287,1.7058,1.7331,1.6854,1.5205,1.4205,1.3938,1.4607,1.3682,1.3332,1.4167,1.6044,1.7098,1.686,1.8097,1.9233,1.9901,2.0994,2.181,2.2485,2.459,2.6456,2.7435,2.6989,2.6881,2.7638,2.7422,2.6881,2.6445,2.5898,2.5459,2.5476,2.5806,2.6573,2.753,2.8708,2.9662,3.0269,3.0985,3.1547,3.1991,3.183,3.1304,3.039,2.9192,2.8433,2.8143,2.7938,2.7607,2.6948,2.6642,2.6079,2.5602,2.5025,2.4122,3.1524,3.1348,3.0261,2.9803,2.9635,2.8225,2.6983,2.5996,2.5305,2.4126,2.2594,2.1374,2.0654,2.0378,1.9889,1.9693,1.9775,1.9677,1.9971,2.0638,2.0765,2.1648,2.303,2.3466,2.4107,2.4918,2.5066,2.5012,2.4886,2.4051,2.3709,2.3804,2.3521,2.3673,2.4294,2.543,2.6123,2.6584,2.7433,2.7355,2.6294,2.6793,2.6547,2.5407,2.4304,2.2969,2.155,2.0706,1.9843,1.8983,1.7833,1.7562,1.8177,1.8101,1.7543,1.6917,1.7647,1.8517,1.9246,1.8943,1.826,1.7477,1.7782,1.7677,1.6759,1.567,1.5523,1.6422,1.5873,1.5415,1.5805,1.7275,1.8246,1.7674,1.9172,2.0199,2.0459,2.1494,2.2533,2.312,2.5139,2.7058,2.7727,2.7941,2.796,2.8067,2.7314,2.6663,2.6336,2.5898,2.5348,2.5255,2.5697,2.6464,2.7079,2.8155,2.9286,3.0274,3.0855,3.1449,3.1924,3.195,3.14,3.049,2.976,2.8967,2.8433,2.8495,2.8473,2.7998,2.7579,2.701,2.5954,2.5664,2.483,3.1832,3.2175,3.1348,3.0611,3.0024,2.9064,2.8472,2.7884,2.7179,2.6448,2.5507,2.3476,2.2327,2.1919,2.2051,2.1953,2.1855,2.1837,2.2132,2.2585,2.25,2.329,2.4714,2.4737,2.5333,2.631,2.5976,2.6075,2.6582,2.591,2.5576,2.5339,2.4979,2.5082,2.5875,2.6832,2.7306,2.7253,2.7767,2.768,2.7093,2.7489,2.6964,2.5324,2.4993,2.4074,2.2391,2.2145,2.1504,2.0328,2.0109,1.9901,1.9754,2.071,2.0892,1.9869,2.0073,2.0286,2.0245,1.9864,1.9243,1.8562,1.8633,1.8056,1.6599,1.6563,1.6991,1.7766,1.7796,1.7536,1.761,1.8145,1.8655,1.8879,1.9711,2.0334,2.0791,2.2259,2.3675,2.444,2.6016,2.7178,2.7472,2.8288,2.8668,2.8194,2.753,2.6881,2.6772,2.599,2.5331,2.5128,2.5128,2.5806,2.6989,2.7853,2.9071,3.0409,3.0777,3.1417,3.2043,3.2051,3.1448,3.0641,3.0305,2.9556,2.9076,2.891,2.9095,2.8932,2.8373,2.7526,2.6476,2.6091,2.5489,3.3099,3.2663,3.2132,3.1094,2.9863,2.9495,2.9042,2.8428,2.7804,2.7399,2.7035,2.5805,2.4775,2.4086,2.3985,2.3985,2.3985,2.3883,2.4188,2.4794,2.4827,2.5419,2.6506,2.6606,2.7003,2.7482,2.7341,2.7162,2.6934,2.6225,2.5945,2.6009,2.5939,2.6345,2.7339,2.795,2.8132,2.7883,2.8423,2.8316,2.7718,2.7464,2.7073,2.6594,2.5704,2.4685,2.3537,2.3398,2.3074,2.2291,2.1572,2.1533,2.2371,2.2927,2.2826,2.1923,2.1739,2.1258,2.0338,2.0059,1.9555,1.8626,1.8775,1.8437,1.7467,1.7685,1.8563,1.9923,1.9402,1.8753,1.8932,1.9297,1.963,1.994,2.0737,2.1492,2.19,2.3487,2.4889,2.5799,2.6866,2.7756,2.8105,2.8734,2.8714,2.796,2.7314,2.6989,2.6772,2.6118,2.5789,2.5569,2.5679,2.6008,2.6772,2.8067,2.9217,3.0244,3.0939,3.1637,3.1829,3.2007,3.1407,3.051,3.0034,2.9852,2.9715,2.9301,2.9209,2.9209,2.856,2.7526,2.6764,2.6572,2.6091,3.4252,3.342,3.2928,3.1924,3.0678,3.0678,3.0197,2.9432,2.9003,2.8777,2.847,2.8053,2.7571,2.6797,2.6076,2.5804,2.5927,2.5915,2.6285,2.6806,2.6814,2.7388,2.8327,2.8329,2.8451,2.8655,2.8695,2.8341,2.7695,2.7055,2.675,2.6845,2.702,2.7518,2.8106,2.8507,2.8661,2.8544,2.8903,2.8856,2.8401,2.7748,2.7405,2.7463,2.6511,2.553,2.482,2.4608,2.4391,2.4048,2.3105,2.3084,2.4171,2.4612,2.4306,2.3327,2.2898,2.2084,2.077,2.0573,2.0154,1.9315,1.9332,1.9274,1.8894,1.8965,2.0078,2.1742,2.1053,2.0347,2.0121,2.0607,2.0799,2.087,2.1892,2.2767,2.3099,2.464,2.5974,2.6764,2.7641,2.8502,2.9029,2.9283,2.892,2.7745,2.7206,2.6881,2.6554,2.6227,2.5898,2.5679,2.6118,2.6554,2.6554,2.8048,2.9513,3.0451,3.1149,3.1577,3.1586,3.1527,3.1139,3.0148,2.9691,2.9393,2.9577,2.9301,2.9117,2.9024,2.8488,2.7704,2.7277,2.7064,2.6734,3.4827,3.4803,3.3843,3.3175,3.2962,3.279,3.2232,3.1127,3.1377,3.1034,3.0146,3.0166,3.0319,3.0048,2.827,2.7428,2.7381,2.7921,2.831,2.8608,2.8461,2.889,2.9655,2.9611,2.9611,2.9829,2.9808,2.9719,2.9427,2.8965,2.8741,2.8562,2.8461,2.8349,2.843,2.8811,2.8948,2.8985,2.9116,2.9202,2.9175,2.8693,2.812,2.7787,2.725,2.6841,2.6358,2.5743,2.5338,2.5338,2.507,2.4857,2.4793,2.5622,2.5443,2.405,2.3481,2.288,2.2199,2.1778,2.1307,2.0935,2.0885,2.0799,2.041,2.0256,2.109,2.2919,2.3043,2.2476,2.1749,2.1895,2.1998,2.1823,2.2814,2.3541,2.3897,2.552,2.6839,2.7324,2.8228,2.9189,2.9969,2.9986,2.9157,2.796,2.7422,2.7098,2.6464,2.6136,2.5916,2.5714,2.6026,2.6772,2.7333,2.8388,2.9743,3.0785,3.1345,3.1667,3.1354,3.0996,3.0422,2.9897,2.9346,2.9161,2.9324,2.9324,2.9139,2.8954,2.8553,2.8,2.7869,2.7791,2.7398,3.5527,3.5046,3.4017,3.3285,3.2857,3.2642,3.2104,3.1458,3.1496,3.1496,3.1241,3.1168,3.1121,3.1278,3.0586,2.9951,2.9431,2.9311,2.9607,3.0154,3.0335,3.0653,3.1008,3.1249,3.1356,3.1329,3.1038,3.057,3.0178,2.956,2.9499,2.9835,2.9638,2.9518,2.9827,2.9908,2.9884,2.969,2.9579,2.9565,2.9634,2.9384,2.9283,2.9172,2.8248,2.7499,2.7001,2.7067,2.6862,2.6381,2.668,2.6827,2.6697,2.6694,2.6134,2.4967,2.4447,2.3764,2.2898,2.2626,2.2395,2.1969,2.2158,2.228,2.2072,2.1499,2.1953,2.4135,2.4851,2.449,2.3745,2.3221,2.2909,2.3038,2.3423,2.4066,2.475,2.6094,2.7241,2.7662,2.8768,3.0075,3.0689,3.0738,2.9743,2.7853,2.753,2.7314,2.6682,2.6245,2.6098,2.6056,2.6408,2.7011,2.7253,2.8349,2.9679,3.0976,3.1775,3.1717,3.1608,3.1326,3.0846,3.013,2.9365,2.9217,2.9471,2.9431,2.9201,2.9135,2.8733,2.8678,2.8464,2.8551,2.8239,3.6105,3.5436,3.4687,3.4009,3.3334,3.3007,3.2572,3.196,3.2196,3.2175,3.207,3.2044,3.2217,3.2285,3.2289,3.1981,3.1622,3.11,3.1059,3.1547,3.1678,3.1897,3.1986,3.2226,3.2356,3.2268,3.2065,3.1663,3.1177,3.0671,3.0717,3.0971,3.0766,3.0748,3.0957,3.0683,3.0493,3.0448,3.03,3.0104,3.0076,3.0231,3.0285,3.0287,2.9511,2.8652,2.8128,2.831,2.8156,2.7694,2.765,2.7881,2.8347,2.7642,2.6553,2.5492,2.5302,2.4729,2.3621,2.353,2.3455,2.3178,2.3394,2.3563,2.3567,2.2926,2.3752,2.5355,2.6152,2.6074,2.5549,2.485,2.4329,2.4266,2.4251,2.4683,2.5491,2.6668,2.7579,2.8373,2.9669,3.0743,3.0993,3.046,2.9456,2.8009,2.796,2.753,2.6791,2.6482,2.639,2.6623,2.716,2.788,2.8627,2.9779,3.0384,3.1507,3.2163,3.2151,3.1962,3.1735,3.1136,3.0339,2.9882,2.9672,2.9547,2.9509,2.9421,2.9427,2.9525,2.9633,2.9537,2.9458,2.9231,3.6701,3.6207,3.614,3.5446,3.4556,3.4357,3.3785,3.3146,3.369,3.3444,3.2966,3.3353,3.3636,3.3551,3.3364,3.3454,3.3845,3.33,3.2955,3.2934,3.2712,3.2601,3.2712,3.2886,3.2797,3.2797,3.3064,3.3098,3.2654,3.2529,3.2378,3.1902,3.178,3.1657,3.1466,3.1061,3.1019,3.1272,3.1266,3.1003,3.0694,3.1074,3.1273,3.115,3.0944,3.056,2.9904,2.9369,2.9005,2.8822,2.7894,2.8122,2.9188,2.8374,2.692,2.5973,2.5997,2.5636,2.4751,2.4609,2.4626,2.4671,2.471,2.474,2.4982,2.5016,2.534,2.6119,2.6816,2.7044,2.688,2.6857,2.6395,2.5259,2.5447,2.6061,2.6609,2.7441,2.8373,2.9209,3.0578,3.1116,3.0331,2.9536,2.8961,2.8805,2.8388,2.7638,2.6881,2.6573,2.6756,2.7179,2.7696,2.8512,2.9937,3.1298,3.1713,3.2126,3.2509,3.2701,3.2488,3.2174,3.1429,3.0745,3.0965,3.0756,3.0223,3.0208,3.0426,3.0426,3.0548,3.0458,3.0439,3.0383,3.0493,3.7676,3.7291,3.6725,3.6274,3.5795,3.526,3.4739,3.4496,3.4666,3.4739,3.4654,3.5107,3.5402,3.5474,3.5549,3.5776,3.6045,3.5754,3.5153,3.4515,3.4316,3.4294,3.4471,3.4845,3.4775,3.4571,3.4906,3.4797,3.4246,3.3942,3.3704,3.3638,3.2705,3.223,3.2079,3.1499,3.1223,3.1538,3.1837,3.2022,3.2119,3.2427,3.251,3.2316,3.2088,3.197,3.1852,3.0584,2.9801,2.9534,2.8573,2.8602,2.9422,2.9,2.8475,2.83,2.7508,2.6993,2.6504,2.6044,2.6041,2.6486,2.6387,2.6494,2.6906,2.6703,2.6852,2.7495,2.7947,2.7938,2.7672,2.7834,2.7671,2.6628,2.6734,2.6965,2.7457,2.8093,2.8888,2.9852,3.0937,3.1472,3.1035,3.0097,2.9161,2.9036,2.8601,2.7853,2.7098,2.67,2.6774,2.7512,2.8161,2.9225,3.0842,3.1981,3.2529,3.3009,3.3382,3.3115,3.2855,3.225,3.1548,3.1315,3.1658,3.1683,3.1172,3.1128,3.1298,3.1394,3.1382,3.1345,3.1305,3.1296,3.1244,3.8433,3.8022,3.7383,3.6859,3.6374,3.5835,3.5555,3.5232,3.5371,3.5488,3.5583,3.5838,3.6187,3.6418,3.6742,3.7086,3.72,3.7315,3.711,3.6318,3.5513,3.5268,3.5268,3.5625,3.5647,3.54,3.5625,3.5692,3.5245,3.4955,3.484,3.4679,3.3737,3.3237,3.2959,3.2332,3.2115,3.252,3.2652,3.2823,3.3242,3.3473,3.3627,3.3571,3.3429,3.3405,3.3458,3.2285,3.1384,3.0895,3.0229,3.0074,3.0215,2.9986,2.9859,2.9528,2.8724,2.7879,2.7434,2.6944,2.704,2.7569,2.7521,2.7483,2.7909,2.7777,2.8018,2.8657,2.8895,2.8706,2.8322,2.8874,2.9035,2.8677,2.8007,2.7966,2.8407,2.9009,2.9371,3.0057,3.0965,3.1679,3.1903,3.0526,2.9408,2.914,2.8708,2.8174,2.7549,2.7138,2.7565,2.8106,2.878,3.0049,3.1673,3.2671,3.3353,3.3944,3.4397,3.3816,3.3309,3.231,3.1455,3.1455,3.1607,3.2072,3.1771,3.2022,3.2271,3.2271,3.2179,3.212,3.1959,3.184,3.1803,3.892,3.8573,3.8202,3.7466,3.6689,3.6484,3.6274,3.5852,3.6107,3.6151,3.5873,3.629,3.6479,3.6667,3.7103,3.7564,3.7885,3.8204,3.8315,3.7924,3.6905,3.5983,3.5825,3.578,3.5869,3.5911,3.5911,3.5798,3.6036,3.5859,3.5591,3.5205,3.4854,3.4531,3.3984,3.3482,3.3351,3.3785,3.3546,3.3648,3.4072,3.4388,3.4635,3.4751,3.4781,3.4702,3.4631,3.4299,3.3742,3.3093,3.2326,3.1782,3.1395,3.1242,3.0726,3.0061,2.9404,2.87,2.7953,2.773,2.7779,2.8191,2.8114,2.8077,2.8299,2.8498,2.8816,2.9365,2.9677,2.9514,2.9165,3.0056,3.0712,3.0683,2.9555,2.9167,2.9738,3.0102,3.0125,2.9988,3.0858,3.1832,3.2374,3.0547,2.968,2.9245,2.892,2.8368,2.8037,2.7796,2.8306,2.8911,2.9766,3.097,3.2706,3.3713,3.4336,3.4781,3.5111,3.4489,3.3498,3.2367,3.1788,3.1766,3.1782,3.2205,3.26,3.2787,3.2902,3.2938,3.284,3.2757,3.2696,3.2532,3.2297,3.9359,3.9078,3.8362,3.8105,3.8101,3.7574,3.7406,3.7599,3.774,3.7555,3.7718,3.7955,3.8005,3.8168,3.8498,3.8918,3.9198,3.9337,3.9125,3.8629,3.8218,3.7966,3.7979,3.7739,3.766,3.766,3.7613,3.7628,3.7167,3.6796,3.6511,3.5962,3.5381,3.4899,3.4486,3.4106,3.3883,3.4168,3.4758,3.5017,3.523,3.5653,3.5655,3.5442,3.5461,3.5429,3.55,3.5772,3.5175,3.3828,3.3416,3.3349,3.33,3.2384,3.1448,3.0777,3.0266,2.9859,2.9429,2.89,2.8825,2.9197,2.8795,2.8795,2.9341,2.939,2.9702,3.0062,3.047,3.0497,3.0318,3.1489,3.2102,3.1663,3.1023,3.0826,3.0998,3.1026,3.0937,3.0714,3.0694,3.0651,3.017,3.0045,2.9597,2.9599,2.9343,2.896,2.8672,2.875,2.916,3.0413,3.1365,3.2447,3.3485,3.4604,3.5303,3.5644,3.5669,3.5135,3.3834,3.2336,3.2144,3.2081,3.2119,3.2427,3.2971,3.332,3.3392,3.3575,3.3499,3.3515,3.3269,3.3138,3.2836,3.9779,3.9403,3.8869,3.868,3.8766,3.8258,3.8326,3.8551,3.8596,3.8596,3.8834,3.9049,3.9262,3.9403,3.9849,4.0223,4.0595,4.0711,4.0607,4.0242,4.0018,3.9426,3.8656,3.8227,3.824,3.8431,3.8479,3.8179,3.7833,3.7572,3.7227,3.6773,3.6087,3.5625,3.5409,3.5029,3.4849,3.5046,3.5596,3.6079,3.64,3.6697,3.6896,3.6701,3.6734,3.6751,3.6593,3.6903,3.6274,3.4959,3.445,3.4485,3.4515,3.3595,3.2541,3.1757,3.1266,3.0881,3.0548,2.9961,2.9758,2.9961,2.958,2.9554,2.9781,2.9934,3.0241,3.0596,3.0924,3.088,3.1105,3.2339,3.2962,3.2777,3.2585,3.2438,3.2201,3.1913,3.1649,3.1365,3.1058,3.0377,2.9135,2.9721,3.0125,3.0037,2.9659,2.9611,2.9514,2.9768,3.0489,3.1861,3.2841,3.3684,3.4647,3.5773,3.6045,3.6431,3.6005,3.5558,3.4406,3.2748,3.2576,3.2598,3.2511,3.27,3.3488,3.4096,3.4379,3.4489,3.4373,3.4326,3.4225,3.4303,3.3954,4.0013,3.9802,3.9544,3.9285,3.9026,3.9049,3.9121,3.9144,3.9285,3.9403,3.9638,3.9849,4.0199,4.0455,4.0894,4.1378,4.1582,4.1712,4.1678,4.1397,4.104,4.0119,3.85,3.8417,3.8476,3.8534,3.8258,3.821,3.808,3.808,3.7892,3.7572,3.6989,3.6688,3.6402,3.6162,3.6122,3.6248,3.6464,3.6942,3.7477,3.7666,3.7781,3.7983,3.8009,3.7817,3.7648,3.7764,3.7284,3.5634,3.5759,3.5531,3.5248,3.458,3.394,3.3067,3.2463,3.1837,3.1396,3.0933,3.0548,3.0548,3.0522,3.0267,3.0036,3.0114,3.0623,3.1441,3.1153,3.1395,3.2406,3.3322,3.3854,3.4067,3.4067,3.376,3.3219,3.2823,3.2425,3.1898,3.216,3.1228,3.0431,3.0436,3.1315,3.1008,3.0537,3.0327,3.0553,3.0859,3.2028,3.3763,3.4437,3.4733,3.5861,3.711,3.7019,3.7042,3.6365,3.5714,3.4891,3.3704,3.3269,3.3203,3.4111,3.4448,3.4598,3.5074,3.5362,3.5404,3.5372,3.5388,3.5553,3.5788,3.5741,4.0106,4.013,4.0339,4.0339,4.0316,4.0548,4.0779,4.0894,4.1009,4.1009,4.1329,4.1444,4.1558,4.1558,4.181,4.2037,4.2238,4.1979,4.1444,4.0739,4.0345,4.0124,3.959,3.973,3.9879,3.9755,3.9327,3.8841,3.8631,3.8421,3.821,3.7892,3.7785,3.7572,3.7274,3.7251,3.7274,3.7382,3.7465,3.7761,3.821,3.8396,3.8436,3.8378,3.8467,3.8209,3.8133,3.8512,3.8383,3.7563,3.7016,3.6458,3.5602,3.4902,3.4713,3.4633,3.3752,3.2907,3.2489,3.2176,3.1889,3.1289,3.1472,3.1161,2.9935,3.0292,3.1215,3.2196,3.1856,3.2671,3.5006,3.5331,3.5398,3.5588,3.5752,3.5858,3.5566,3.4561,3.3658,3.3096,3.3015,3.2889,3.2323,3.1675,3.1962,3.1847,3.1576,3.1251,3.1572,3.204,3.3378,3.4958,3.5558,3.587,3.6997,3.8021,3.8136,3.786,3.7107,3.6339,3.5488,3.4604,3.4164,3.4885,3.6218,3.633,3.5911,3.619,3.6534,3.6446,3.6405,3.6453,3.6651,3.7079,3.7151,4.0631,4.0021,4.0817,4.098,4.0836,4.1257,4.1696,4.1948,4.2061,4.2174,4.2488,4.26,4.2712,4.2712,4.2824,4.2961,4.3134,4.3017,4.2696,4.2404,4.2153,4.1977,4.1514,4.1384,4.1203,4.0616,4.0055,3.9697,3.9258,3.905,3.8841,3.8421,3.8315,3.8104,3.7998,3.8104,3.8104,3.8104,3.8421,3.8736,3.905,3.9258,3.9293,3.9045,3.9114,3.902,3.8411,3.8991,3.8906,3.8405,3.8011,3.7256,3.6062,3.5683,3.5817,3.576,3.5002,3.4068,3.37,3.3304,3.2935,3.2384,3.2567,3.2332,3.1734,3.163,3.2097,3.3276,3.3697,3.4471,3.6634,3.7175,3.6784,3.6075,3.6129,3.6236,3.6338,3.5765,3.5018,3.44,3.4329,3.4168,3.3764,3.3324,3.3024,3.3124,3.2779,3.2487,3.3016,3.363,3.4486,3.5659,3.6351,3.7077,3.8106,3.8798,3.9125,3.8774,3.8237,3.7484,3.6691,3.5889,3.5024,3.6036,3.6881,3.7263,3.7038,3.734,3.7557,3.7661,3.7667,3.7599,3.7453,3.758,3.7775,4.1163,3.9964,4.1198,4.1433,4.125,4.1979,4.2538,4.2811,4.3048,4.3406,4.3517,4.3713,4.4042,4.3932,4.4177,4.4152,4.4028,4.4033,4.3857,4.3334,4.3362,4.3075,4.271,4.2346,4.193,4.0873,4.0517,4.0185,3.9878,3.98,3.9569,3.9154,3.8816,3.8816,3.8816,3.8921,3.8921,3.8841,3.9258,3.9569,3.9775,4.0083,4.0209,4.0227,4.0395,3.9991,3.937,3.9588,3.9654,3.8755,3.8906,3.8057,3.7154,3.6525,3.6823,3.6512,3.5696,3.5268,3.4871,3.4389,3.3936,3.3672,3.3647,3.3807,3.3754,3.3463,3.3728,3.4338,3.5033,3.5842,3.6789,3.773,3.7648,3.6989,3.6388,3.6414,3.6931,3.6962,3.6743,3.59,3.5839,3.5855,3.5375,3.4872,3.4678,3.4308,3.3962,3.3994,3.452,3.5001,3.5756,3.6657,3.7402,3.8217,3.9172,3.9849,4.0206,3.9801,3.9253,3.8469,3.7825,3.7014,3.6409,3.6386,3.6881,3.7501,3.7926,3.8097,3.8331,3.8841,3.8699,3.8333,3.8185,3.8083,3.8107,4.1347,4.1279,4.1828,4.2067,4.2387,4.3384,4.3964,4.4494,4.489,4.5555,4.5662,4.5901,4.5768,4.5768,4.5874,4.5418,4.4596,4.4516,4.401,4.3141,4.3136,4.303,4.2977,4.2944,4.2465,4.1875,4.1198,4.0593,4.0491,4.0415,4.0287,4.0185,4.0083,3.9981,3.975,3.9853,3.9853,3.9775,4.0083,4.0287,4.0491,4.0769,4.1067,4.1083,4.1229,4.0843,4.0292,4.0468,4.0495,3.9821,3.977,3.9809,3.9228,3.8062,3.7282,3.6856,3.6476,3.6156,3.6026,3.5653,3.5304,3.5009,3.4902,3.5009,3.5089,3.4927,3.4955,3.5571,3.6136,3.6816,3.8762,3.9247,3.9564,3.9452,3.9283,3.9254,3.9619,3.9645,3.8906,3.7597,3.7516,3.7547,3.6913,3.6213,3.5667,3.5284,3.4987,3.5189,3.5679,3.6081,3.654,3.7498,3.8597,3.9443,4.0314,4.0813,4.1217,4.0682,4.0147,3.9346,3.8695,3.8072,3.7726,3.7572,3.7655,3.808,3.8502,3.8736,3.905,3.9465,3.9268,3.8918,3.8617,3.8317,3.7767,4.232,4.175,4.2735,4.3021,4.3095,4.3983,4.4559,4.4743,4.5385,4.5759,4.5971,4.6265,4.6428,4.6428,4.6428,4.5944,4.5538,4.5587,4.5234,4.4644,4.4719,4.4501,4.3995,4.3904,4.3507,4.304,4.2179,4.1597,4.1272,4.1198,4.1097,4.0896,4.0795,4.0593,4.0593,4.0694,4.0593,4.0694,4.0896,4.1097,4.1198,4.1597,4.1663,4.1692,4.1656,4.1287,4.0773,4.0896,4.0935,4.0396,4.0122,4.0349,4.0069,3.9168,3.7648,3.7289,3.7078,3.7035,3.7013,3.6693,3.6401,3.6215,3.6031,3.5978,3.598,3.5817,3.5871,3.6377,3.6484,3.6995,3.8552,4.0278,4.0937,4.0297,4.0313,4.0713,4.1022,4.1251,4.0407,3.9188,3.8878,3.8649,3.8342,3.7638,3.6803,3.6293,3.6037,3.6407,3.6969,3.7409,3.78,3.8723,3.986,4.0721,4.1389,4.1654,4.2002,4.1494,4.0864,4.0187,3.9529,3.8851,3.868,3.8631,3.8841,3.905,3.8945,3.9025,3.9569,4.0032,3.9652,3.9371,3.8914,3.8481,3.7855,4.3218,4.2172,4.3379,4.3687,4.349,4.433,4.4702,4.4811,4.543,4.5676,4.5758,4.6113,4.6435,4.6359,4.6332,4.625,4.6223,4.6393,4.6146,4.5999,4.6072,4.6072,4.5641,4.5255,4.4566,4.3918,4.3478,4.2873,4.2289,4.2092,4.1868,4.1769,4.1471,4.1372,4.1398,4.1498,4.1398,4.1398,4.1597,4.1895,4.2092,4.2235,4.2463,4.2425,4.2316,4.1835,4.1349,4.1313,4.1275,4.0943,4.0661,4.0434,4.0294,3.9601,3.8831,3.837,3.7968,3.7596,3.7519,3.726,3.7056,3.6978,3.6822,3.6665,3.6587,3.6429,3.648,3.6822,3.6929,3.7544,3.9379,4.1181,4.1655,4.1273,4.1125,4.1456,4.1697,4.1878,4.1811,4.0887,4.0229,3.9645,3.9114,3.8655,3.7742,3.8007,3.7789,3.788,3.8439,3.9044,3.9474,4.0313,4.1209,4.2009,4.2501,4.2523,4.2648,4.2358,4.1741,4.0971,4.0174,3.9382,3.9411,3.9465,3.9955,4.016,3.9853,3.9647,4.0262,4.0514,4.0127,3.9715,3.9349,3.8614,3.791,4.3272,4.319,4.3327,4.3396,4.3739,4.4608,4.5011,4.5094,4.5874,4.6196,4.6265,4.6364,4.6504,4.656,4.6433,4.6112,4.5832,4.586,4.5804,4.558,4.5425,4.5312,4.4836,4.48,4.4997,4.4639,4.4537,4.3859,4.3163,4.3067,4.297,4.2679,4.2776,4.2873,4.2484,4.2289,4.2315,4.2315,4.2413,4.2776,4.3204,4.33,4.3626,4.3686,4.3454,4.2929,4.2411,4.2018,4.1682,4.1592,4.1532,4.0904,4.0106,4.0706,4.1568,4.1222,3.9894,3.773,3.8045,3.7816,3.7634,3.7662,3.7402,3.685,3.6878,3.7487,3.7748,3.6978,3.7345,3.8946,4.0666,4.1115,4.156,4.2157,4.2652,4.2763,4.2862,4.2503,4.2304,4.2087,4.1339,4.0315,3.9557,3.9249,3.8868,3.923,3.9596,3.98,4.0043,4.054,4.0958,4.1629,4.2266,4.2918,4.303,4.3194,4.3122,4.3124,4.2422,4.1645,4.0978,4.0287,4.0236,4.0389,4.087,4.087,4.0262,4.0364,4.0971,4.1036,4.0743,4.0174,3.9677,3.8912,3.7955,4.4648,4.4397,4.4648,4.4712,4.4862,4.5331,4.558,4.5978,4.6576,4.7059,4.7332,4.7673,4.7815,4.7644,4.7815,4.7603,4.7234,4.6878,4.6611,4.6225,4.5997,4.5855,4.5817,4.5694,4.5495,4.5474,4.5153,4.4769,4.4209,4.3859,4.3669,4.3546,4.3355,4.3163,4.3259,4.3094,4.3067,4.3163,4.3451,4.3737,4.4021,4.4153,4.42,4.4231,4.3788,4.3455,4.3113,4.2536,4.2215,4.2222,4.2099,4.1836,4.123,4.1136,4.1279,4.2108,4.038,3.922,3.9295,3.8935,3.8754,3.8754,3.8467,3.8073,3.7756,3.8572,3.9291,3.8485,3.8851,4.0571,4.2908,4.3346,4.3182,4.3533,4.3805,4.3693,4.3566,4.317,4.293,4.2688,4.2392,4.1508,4.0572,3.9963,4.0392,4.1562,4.1879,4.2058,4.2059,4.2276,4.256,4.2814,4.3312,4.3739,4.3655,4.3596,4.3507,4.3363,4.2858,4.2186,4.176,4.1402,4.1224,4.1298,4.167,4.1372,4.0668,4.0919,4.1465,4.147,4.1346,4.0691,4.0012,3.8938,3.8109,4.6046,4.5566,4.5747,4.5837,4.5837,4.5837,4.6007,4.6316,4.6749,4.7137,4.7673,4.7949,4.8121,4.8132,4.7903,4.7673,4.8028,4.7712,4.754,4.7338,4.7203,4.6829,4.6598,4.6397,4.6518,4.6483,4.6051,4.5729,4.543,4.4854,4.4397,4.4303,4.4021,4.3832,4.3737,4.3642,4.3642,4.3614,4.4115,4.449,4.4769,4.5018,4.492,4.4642,4.424,4.3887,4.3608,4.3071,4.2799,4.3001,4.2812,4.2753,4.2674,4.2252,4.1926,4.2437,4.1519,4.116,4.0771,4.0337,4.0052,3.9858,3.9782,3.9226,3.8909,4.011,4.1471,4.1122,3.9876,4.1867,4.4229,4.511,4.4775,4.4353,4.4326,4.4251,4.4173,4.3844,4.3479,4.3239,4.3057,4.2931,4.2016,4.1057,4.1615,4.3567,4.4188,4.418,4.4088,4.3995,4.4041,4.4132,4.4227,4.4565,4.4433,4.4244,4.4054,4.3835,4.3245,4.2831,4.2538,4.2244,4.202,4.219,4.2484,4.2164,4.167,4.1762,4.1923,4.1977,4.1828,4.1058,4.0253,3.9108,3.8292,4.6844,4.6726,4.6106,4.5837,4.5837,4.5837,4.5866,4.6069,4.6069,4.6442,4.6922,4.6835,4.6871,4.6471,4.6674,4.6679,4.6602,4.6369,4.6661,4.6812,4.6668,4.6665,4.6783,4.7076,4.7372,4.7281,4.6894,4.6832,4.6745,4.5768,4.5287,4.5018,4.4741,4.4954,4.4769,4.449,4.4303,4.4397,4.4769,4.523,4.5656,4.5958,4.605,4.5836,4.5436,4.4975,4.4559,4.3988,4.3844,4.4126,4.3927,4.362,4.3603,4.3334,4.3104,4.2867,4.3149,4.2741,4.2166,4.134,4.0618,4.0321,4.0321,4.0541,4.0224,3.9699,4.1255,4.38,4.191,4.2058,4.4204,4.5573,4.5405,4.5258,4.5067,4.5029,4.488,4.4478,4.4116,4.3818,4.3948,4.4278,4.3961,4.3182,4.2105,4.3718,4.5219,4.5364,4.5389,4.5298,4.5235,4.5258,4.535,4.5379,4.5252,4.5068,4.4696,4.4509,4.4049,4.3737,4.3451,4.3136,4.2873,4.3067,4.3355,4.297,4.2571,4.2397,4.2263,4.2537,4.2187,4.1315,4.0404,3.9311,3.8591,4.6976,4.7279,4.7163,4.6989,4.6756,4.6756,4.6875,4.7021,4.708,4.7342,4.7624,4.7746,4.7629,4.7515,4.7486,4.7486,4.7519,4.7137,4.7139,4.6933,4.6874,4.6639,4.6815,4.7109,4.7372,4.7462,4.7372,4.7281,4.7284,4.6546,4.6223,4.5956,4.5504,4.511,4.5046,4.523,4.5321,4.5504,4.5776,4.6225,4.6462,4.6929,4.7091,4.6629,4.6539,4.6272,4.5984,4.537,4.528,4.531,4.5126,4.4818,4.4327,4.4205,4.3877,4.351,4.3969,4.3679,4.3297,4.2516,4.2016,4.194,4.2089,4.2043,4.1411,4.152,4.3057,4.4044,4.3499,4.3332,4.5142,4.6008,4.5977,4.5886,4.5824,4.5865,4.5815,4.5557,4.5139,4.5061,4.583,4.6462,4.6031,4.5484,4.4288,4.3701,4.5226,4.6462,4.6491,4.6461,4.6343,4.6135,4.6135,4.5956,4.5743,4.5533,4.535,4.5046,4.4862,4.4555,4.4369,4.4115,4.3926,4.4143,4.4143,4.3832,4.3421,4.2857,4.2602,4.2733,4.2216,4.146,4.0494,3.9563,3.8979,4.7243,4.7764,4.8049,4.788,4.7538,4.7482,4.7635,4.782,4.7732,4.7941,4.8147,4.8381,4.8591,4.8502,4.862,4.8741,4.8654,4.8387,4.803,4.7822,4.7466,4.7051,4.7111,4.7317,4.7818,4.767,4.7698,4.7756,4.7523,4.6904,4.655,4.6314,4.5956,4.5656,4.5685,4.5866,4.6225,4.6491,4.6668,4.7106,4.7336,4.7649,4.7935,4.7548,4.7398,4.7294,4.7092,4.6624,4.6313,4.6265,4.6064,4.5818,4.517,4.4644,4.4452,4.4421,4.4254,4.4087,4.4099,4.3574,4.3137,4.2864,4.2864,4.2501,4.2258,4.2697,4.3605,4.552,4.4781,4.4692,4.6262,4.6474,4.6802,4.682,4.6861,4.6939,4.7225,4.7177,4.6684,4.6392,4.7434,4.8514,4.8388,4.7901,4.7077,4.597,4.6017,4.7096,4.7486,4.7399,4.7135,4.6931,4.6756,4.6491,4.6225,4.6046,4.5866,4.5866,4.5595,4.5413,4.5138,4.4954,4.4769,4.4769,4.4769,4.4676,4.4321,4.3947,4.337,4.2817,4.2322,4.1876,4.1018,4.0254,3.9536,4.7794,4.8271,4.8271,4.8187,4.7964,4.7964,4.7825,4.7658,4.7572,4.7546,4.7611,4.8328,4.8536,4.8447,4.8746,4.8985,4.9224,4.9284,4.9074,4.8623,4.8503,4.7995,4.8087,4.8328,4.8684,4.8148,4.8295,4.8322,4.782,4.7436,4.6993,4.6963,4.6934,4.6579,4.6609,4.6609,4.6697,4.6931,4.6989,4.7508,4.8103,4.8355,4.848,4.8462,4.8357,4.8168,4.8166,4.7851,4.7505,4.7233,4.7082,4.6912,4.6693,4.5797,4.5947,4.6843,4.5759,4.5426,4.557,4.4309,4.3858,4.3679,4.3605,4.3039,4.2376,4.2602,4.3685,4.6095,4.5832,4.5905,4.6615,4.7131,4.7456,4.7679,4.7696,4.8038,4.8409,4.9,4.8572,4.8358,4.94,5.0352,5.0454,5.0358,4.9772,4.892,4.7702,4.776,4.8279,4.8286,4.7964,4.7709,4.7538,4.7193,4.6931,4.658,4.6403,4.6491,4.6314,4.6046,4.5956,4.5776,4.5595,4.5595,4.5504,4.5413,4.523,4.511,4.4604,4.4002,4.3044,4.2491,4.163,4.0775,4.0062,4.6991,4.7876,4.7927,4.8204,4.8324,4.788,4.7709,4.7538,4.7482,4.7396,4.7369,4.776,4.779,4.7878,4.8327,4.8805,4.8923,4.9523,4.9372,4.9312,4.9428,4.9367,4.934,4.9434,4.9794,4.9764,4.9702,4.9488,4.934,4.8506,4.8507,4.8536,4.8117,4.7785,4.7461,4.7461,4.7932,4.7855,4.8019,4.8355,4.8934,4.9178,4.9296,4.9442,4.9251,4.917,4.9279,4.8916,4.858,4.837,4.8175,4.8048,4.7814,4.7007,4.7164,4.7221,4.6072,4.5939,4.5845,4.5217,4.4934,4.4631,4.4402,4.4142,4.4118,4.4413,4.5556,4.6421,4.6684,4.6823,4.7167,4.7737,4.8101,4.8198,4.8357,4.9075,4.9622,5.0456,5.0733,5.0658,5.121,5.1059,5.107,5.1303,5.0995,5.0493,4.9284,4.8805,4.9159,4.9027,4.8769,4.8469,4.8187,4.7964,4.7624,4.7508,4.7163,4.6989,4.6844,4.658,4.6491,4.6491,4.6314,4.6225,4.6135,4.6046,4.5956,4.5776,4.5776,4.5309,4.4031,4.2962,4.2128,4.1215,4.0221,4.678,4.757,4.7929,4.819,4.8266,4.8012,4.7794,4.7624,4.7396,4.7309,4.7369,4.7519,4.7698,4.7878,4.8267,4.8715,4.8863,4.9554,4.9673,4.9703,5.0152,4.997,5.0003,5.0276,5.0125,5.0336,5.0184,5.0092,4.9521,4.9434,4.9284,4.9343,4.9667,4.9304,4.8793,4.8607,4.848,4.8546,4.8798,4.9006,4.9559,4.9962,4.9931,5.0009,5.0006,4.9923,5.0069,4.9942,4.9528,4.94,4.9228,4.8885,4.8541,4.8464,4.8418,4.7806,4.6862,4.6496,4.5835,4.5864,4.5624,4.5634,4.5614,4.5573,4.5573,4.5602,4.6276,4.703,4.7267,4.747,4.7737,4.8389,4.8882,4.8925,4.9261,4.9955,5.0952,5.1806,5.1795,5.1822,5.1514,5.1467,5.1484,5.1875,5.1948,5.1359,5.0723,5.037,4.9979,4.9741,4.9582,4.934,4.9015,4.8769,4.8604,4.8521,4.8187,4.7679,4.7422,4.7279,4.7279,4.7279,4.7019,4.6844,4.658,4.6491,4.6491,4.6403,4.6137,4.5374,4.4182,4.3256,4.2594,4.1707,4.077,4.7032,4.754,4.8028,4.804,4.7923,4.7987,4.7904,4.7538,4.7396,4.7309,4.7339,4.7908,4.7997,4.8267,4.8865,4.9284,4.9643,5.0216,5.0306,5.0245,5.0666,5.0364,5.0304,5.0366,5.0306,4.9945,4.9944,5.0154,4.9252,4.9764,4.9915,5.0004,5.0545,5.0506,5.0013,4.9402,4.9297,4.9634,4.9677,4.9946,5.0497,5.058,5.0549,5.0579,5.053,5.0515,5.05,5.02,4.974,4.9567,4.9599,4.9284,4.9206,4.9426,4.9631,4.9346,4.7985,4.6803,4.6108,4.6199,4.6223,4.6301,4.6294,4.6223,4.6294,4.6365,4.7017,4.7599,4.7934,4.8035,4.8231,4.908,4.9763,4.9978,5.0255,5.1094,5.2135,5.2436,5.2232,5.2029,5.1522,5.1416,5.1536,5.1877,5.243,5.234,5.1802,5.1327,5.0876,5.037,5.0292,5.0292,4.9979,4.9661,4.9582,4.9421,4.9015,4.849,4.8355,4.8218,4.8133,4.7849,4.7593,4.7336,4.6989,4.6844,4.6844,4.655,4.6138,4.5347,4.4647,4.3748,4.3027,4.2253,4.1483,4.6339,4.6787,4.6778,4.692,4.7181,4.7323,4.7371,4.7366,4.7309,4.7309,4.7309,4.7489,4.7668,4.7638,4.8267,4.8953,4.9703,5.0456,5.1152,5.1303,5.1241,5.1117,5.0964,5.0723,5.0484,5.0607,5.0638,5.0667,5.0693,5.0878,5.1213,5.1637,5.1422,5.1502,5.1159,5.0513,5.0762,5.0829,5.0757,5.0932,5.134,5.1518,5.1455,5.1342,5.1214,5.1295,5.1279,5.0644,5.0279,5.0374,5.0341,5.0009,4.9425,4.9135,4.8942,4.8812,4.7738,4.6814,4.678,4.6478,4.6436,4.6818,4.6856,4.6823,4.6754,4.692,4.7557,4.8131,4.8829,4.9127,4.9379,4.9955,5.0537,5.0782,5.1133,5.1945,5.2895,5.3103,5.287,5.2604,5.2134,5.1162,5.1328,5.2135,5.2604,5.2808,5.2764,5.2307,5.1842,5.1285,5.0908,5.0908,5.0864,5.0525,5.0324,5.0246,4.9741,4.934,4.921,4.8934,4.8543,4.8263,4.8072,4.7849,4.7422,4.7279,4.7135,4.6842,4.6461,4.6196,4.5638,4.45,4.3544,4.2767,4.2107,4.6529,4.676,4.7025,4.7185,4.7163,4.714,4.7068,4.7091,4.7189,4.7309,4.7309,4.7339,4.7309,4.7459,4.8085,4.8771,4.9251,5.0455,5.1212,5.1303,5.1725,5.1756,5.1601,5.1475,5.1481,5.1454,5.1485,5.1455,5.1635,5.1787,5.2002,5.2184,5.2027,5.2233,5.2105,5.1976,5.2051,5.2059,5.1999,5.1903,5.2118,5.2363,5.2125,5.2077,5.1949,5.2076,5.2055,5.1167,5.1023,5.0799,5.0517,5.0089,4.9582,4.9178,4.8736,4.8671,4.8275,4.7743,4.7585,4.7309,4.727,4.7424,4.7533,4.7504,4.737,4.7435,4.8199,4.896,4.9725,5.0356,5.0629,5.0883,5.1176,5.1503,5.2175,5.2823,5.3307,5.3721,5.3604,5.3318,5.2482,5.118,5.121,5.2135,5.2975,5.344,5.345,5.3008,5.259,5.202,5.1655,5.154,5.1466,5.1317,5.1167,5.1016,5.0602,5.0292,5.0168,4.9821,4.9135,4.8841,4.8821,4.8438,4.7934,4.7709,4.7538,4.7193,4.6842,4.6634,4.6251,4.5282,4.4232,4.3335,4.2673,4.7002,4.7098,4.804,4.8012,4.77,4.7456,4.7189,4.6864,4.7327,4.7396,4.7396,4.7309,4.7456,4.7782,4.8407,4.8917,4.9549,5.0575,5.1302,5.1181,5.1666,5.1999,5.2119,5.2303,5.1723,5.1939,5.2063,5.182,5.1972,5.2063,5.2155,5.2306,5.2336,5.2544,5.2781,5.2719,5.2741,5.3052,5.2488,5.2188,5.2764,5.2822,5.2472,5.244,5.2522,5.2617,5.2124,5.182,5.1537,5.0794,5.0245,4.9915,4.9693,4.9501,4.9125,4.8891,4.8762,4.8561,4.8327,4.7942,4.8042,4.8125,4.8232,4.8398,4.8332,4.7803,4.8365,4.9513,5.0342,5.0667,5.083,5.1287,5.1637,5.1893,5.2358,5.2938,5.338,5.3763,5.3878,5.3697,5.3349,5.2283,5.2495,5.3494,5.3673,5.4166,5.411,5.3651,5.3349,5.287,5.252,5.2236,5.2197,5.2125,5.1948,5.1729,5.1508,5.1317,5.1016,5.0711,5.0073,4.9789,4.9613,4.9097,4.8521,4.8103,4.788,4.7593,4.7332,4.6748,4.6334,4.5832,4.4955,4.4196,4.3098,4.6628,4.6542,4.7035,4.7495,4.8071,4.7862,4.7978,4.8419,4.8126,4.788,4.7568,4.7598,4.7895,4.843,4.8789,4.9391,5.051,5.0936,5.1603,5.1725,5.1999,5.1938,5.172,5.1659,5.1417,5.142,5.1603,5.1939,5.2154,5.2215,5.2306,5.2608,5.2608,5.2788,5.2997,5.2966,5.3024,5.3434,5.3239,5.2762,5.3092,5.3692,5.3744,5.3363,5.3172,5.3343,5.2913,5.2303,5.1842,5.1111,5.034,4.9978,4.9852,4.9773,4.9599,4.9378,4.9297,4.9181,4.9006,4.8654,4.8417,4.8596,4.8795,4.9291,4.9224,4.8365,4.856,4.9864,5.0571,5.0754,5.1167,5.1661,5.2091,5.231,5.2529,5.3006,5.3484,5.3857,5.4103,5.4128,5.4056,5.4147,5.427,5.4356,5.4544,5.462,5.4494,5.4239,5.4239,5.3881,5.3483,5.3213,5.2903,5.2834,5.2661,5.2449,5.2164,5.1802,5.1508,5.121,5.1016,5.048,4.9931,4.9533,4.9097,4.8604,4.8355,4.8438,4.7981,4.7347,4.7001,4.6676,4.6181,4.5421,4.3965,4.7168,4.6949,4.6939,4.736,4.7934,4.7793,4.804,4.85,4.8594,4.8469,4.8133,4.7995,4.8122,4.8809,4.9261,4.9865,5.0961,5.1631,5.2088,5.2362,5.227,5.2178,5.184,5.1506,5.1812,5.1904,5.1966,5.2242,5.2457,5.2487,5.2608,5.2698,5.2729,5.2819,5.2877,5.2877,5.3055,5.3377,5.3496,5.3538,5.3502,5.3957,5.4115,5.3735,5.3851,5.3957,5.3724,5.308,5.2461,5.1528,5.0497,4.9978,4.99,4.9852,4.99,4.9757,4.9764,4.9812,4.9693,4.93,4.8923,4.936,4.8888,4.9248,5.0109,4.9449,4.9746,5.0782,5.0335,5.041,5.1647,5.2381,5.2555,5.2796,5.3071,5.352,5.4176,5.4741,5.4931,5.512,5.5074,5.5168,5.5285,5.5366,5.5437,5.5113,5.493,5.4745,5.4745,5.4745,5.4367,5.4045,5.3717,5.345,5.3213,5.3008,5.2731,5.2378,5.1915,5.1729,5.1466,5.0788,5.0278,4.9979,4.9661,4.9015,4.8852,4.8934,4.8687,4.8065,4.7813,4.7613,4.7117,4.6621,4.5595,4.7804,4.7677,4.7317,4.7437,4.7814,4.782,4.7887,4.8244,4.8767,4.9078,4.8996,4.8469,4.8248,4.8767,4.9524,4.9983,5.0682,5.1598,5.2359,5.2513,5.2606,5.2513,5.2544,5.2606,5.2455,5.2455,5.2485,5.2516,5.2608,5.2608,5.2608,5.2729,5.2729,5.2729,5.2819,5.2997,5.3144,5.3409,5.3584,5.3876,5.4017,5.4103,5.4125,5.4125,5.4242,5.4189,5.4103,5.3796,5.3281,5.2155,5.0812,5.0199,5.001,5.001,5.037,5.0365,5.0338,5.0626,5.07,4.9875,5.0222,5.0426,4.948,4.9434,5.0328,5.0759,5.0992,5.0925,5.0435,5.0668,5.1906,5.2822,5.2958,5.3303,5.3667,5.4027,5.4737,5.5375,5.5568,5.583,5.5993,5.6049,5.6106,5.6162,5.5993,5.5648,5.5413,5.5294,5.5174,5.5113,5.493,5.462,5.4367,5.411,5.3815,5.345,5.3179,5.287,5.252,5.234,5.2013,5.1466,5.1016,5.0679,5.026,4.9741,4.9421,4.9501,4.9178,4.8769,4.8521,4.824,4.7867,4.7431,4.7267,4.7199,4.7709,4.7637,4.7878,4.8297,4.8612,4.8916,4.8983,4.9299,4.9452,4.9309,4.9241,4.9213,4.9634,4.9651,4.9965,5.058,5.1528,5.1805,5.1898,5.2359,5.2575,5.2698,5.2637,5.2698,5.2729,5.2729,5.2729,5.2729,5.2729,5.2698,5.2637,5.2667,5.2667,5.2667,5.2935,5.3082,5.329,5.3584,5.3962,5.4017,5.4071,5.4242,5.4242,5.4327,5.4242,5.4103,5.3931,5.3544,5.266,5.148,5.0532,5.0279,5.0324,5.0788,5.107,5.096,5.1092,5.0961,5.0452,5.0827,5.0787,5.0067,5.0125,5.0754,5.1083,5.1268,5.1415,5.1095,5.1002,5.1926,5.281,5.3207,5.3831,5.4278,5.4688,5.5259,5.5419,5.5598,5.5936,5.6383,5.6328,5.6273,5.6328,5.6328,5.6049,5.5764,5.5648,5.559,5.5531,5.5413,5.5113,5.4869,5.4683,5.4367,5.3849,5.3517,5.3315,5.3041,5.2694,5.2412,5.2302,5.1908,5.1359,5.0984,5.0634,5.0402,5.001,4.9613,4.9291,4.9078,4.8718,4.8377,4.7973,4.7576]}]]